[[[{"header":{"parameterUnit":"kt","parameterCategory":2,"dx":1,"dy":1,"la1":29.587661999999998,"la2":31.0,"lo1":-88.76705300000003,"lo2":-86.6583820000003,"nx":115,"ny":88,"refTime":"2022-10-16T18:00:00:Z","depth":0,"parameterNumber":1,"parameterNumberName":"U-component_of_WINDS"},"data":[-2.2455,-2.2033,-2.2322,-2.2611,-2.3044,-2.2467,-2.231,-2.2599,-2.2755,-2.3044,-2.3892,-2.5447,-2.6718,-2.7251,-2.9167,-3.1628,-3.4589,-3.655,-3.8494,-4.0544,-4.2601,-4.4151,-4.5476,-4.6576,-4.7306,-4.8289,-4.9423,-5.0448,-5.0097,-4.907,-4.8144,-4.7367,-4.6831,-4.6124,-4.569,-4.5459,-4.5228,-4.5435,-4.5805,-4.6516,-4.6718,-4.6718,-4.7031,-4.7611,-4.8218,-4.9908,-5.122,-5.1633,-5.2535,-5.3359,-5.3738,-5.3572,-5.3305,-5.2808,-5.2405,-5.1896,-5.1222,-5.0727,-5.0439,-5.0227,-4.9661,-5.0716,-5.1333,-5.1097,-5.2174,-5.3143,-5.245,-5.2174,-5.2304,-5.2679,-5.3923,-5.4532,-5.4724,-5.4532,-5.4473,-5.4141,-5.305,-5.0328,-4.8042,-4.762,-4.754,-4.754,-4.751,-4.756,-4.756,-4.754,-4.738,-4.6886,-4.6506,-4.6588,-4.667,-4.7159,-4.756,-4.7239,-4.6804,-4.6886,-4.7027,-4.7269,-4.751,-4.7767,-4.8159,-4.8575,-4.9004,-4.9097,-5.0848,-5.3048,-5.4185,-5.4838,-5.5938,-5.6694,-5.6216,-5.5848,-5.5695,-5.5572,-5.5445,-1.8972,-1.9716,-2.0446,-2.0727,-2.0727,-2.0435,-2.03,-2.03,-2.0581,-2.1163,-2.1877,-2.2322,-2.3475,-2.5163,-2.7251,-2.9888,-3.2356,-3.4343,-3.657,-3.8599,-4.05,-4.1972,-4.332,-4.4503,-4.4793,-4.5595,-4.6704,-4.7195,-4.7548,-4.6655,-4.5755,-4.5179,-4.4386,-4.344,-4.332,-4.3105,-4.2985,-4.3224,-4.382,-4.4528,-4.4621,-4.4645,-4.4971,-4.5895,-4.7015,-4.8368,-4.9583,-5.0556,-5.141,-5.2016,-5.2348,-5.2275,-5.21,-5.1663,-5.1353,-5.0937,-5.0278,-4.9638,-4.9342,-4.9152,-4.8671,-4.8484,-4.9208,-5.0202,-5.1472,-5.1568,-5.07,-5.0439,-5.0544,-5.1249,-5.2707,-5.3757,-5.3757,-5.363,-5.3699,-5.3611,-5.1759,-4.9687,-4.8122,-4.69,-4.6871,-4.6871,-4.6893,-4.6916,-4.7027,-4.7116,-4.6871,-4.6452,-4.6061,-4.5894,-4.5977,-4.6423,-4.6752,-4.6476,-4.6032,-4.609,-4.6262,-4.6546,-4.6923,-4.693,-4.7167,-4.8252,-4.8927,-4.8904,-4.9753,-5.1601,-5.2922,-5.3978,-5.4904,-5.5851,-5.5451,-5.5103,-5.4884,-5.4599,-5.437,-1.6613,-1.7048,-1.7795,-1.8384,-1.8668,-1.8384,-1.8394,-1.8532,-1.8983,-1.9276,-1.9716,-2.0581,-2.2033,-2.4049,-2.5744,-2.8119,-3.0332,-3.2374,-3.4475,-3.6441,-3.824,-3.9775,-4.1262,-4.2577,-4.2704,-4.3014,-4.412,-4.4873,-4.5063,-4.4362,-4.3654,-4.3201,-4.2261,-4.1552,-4.1139,-4.0792,-4.069,-4.0937,-4.1697,-4.1774,-4.1362,-4.2238,-4.2841,-4.3862,-4.5014,-4.6271,-4.7376,-4.8352,-4.9685,-5.086,-5.0517,-5.0517,-5.0832,-5.0517,-5.0199,-4.9907,-4.9342,-4.8443,-4.8112,-4.8112,-4.8144,-4.8039,-4.8469,-4.8715,-5.0015,-4.9341,-4.8496,-4.8689,-4.8798,-5.0305,-5.1868,-5.2836,-5.2936,-5.2736,-5.2607,-5.2506,-5.1195,-4.9721,-4.8591,-4.7348,-4.6796,-4.668,-4.624,-4.6265,-4.6257,-4.6316,-4.6065,-4.5641,-4.5214,-4.5043,-4.53,-4.5669,-4.5809,-4.5641,-4.5587,-4.5672,-4.5873,-4.6161,-4.6565,-4.6941,-4.7638,-4.8363,-4.908,-4.9578,-5.0372,-5.132,-5.201,-5.3042,-5.3974,-5.4809,-5.467,-5.4281,-5.4117,-5.3826,-5.3235,-1.4987,-1.4987,-1.5731,-1.6474,-1.7057,-1.677,-1.677,-1.7057,-1.7381,-1.7529,-1.7972,-1.9276,-2.1018,-2.2755,-2.4478,-2.6466,-2.8537,-3.0453,-3.2356,-3.4494,-3.62,-3.7857,-3.9273,-4.0769,-4.1295,-4.1623,-4.2226,-4.2964,-4.2915,-4.2457,-4.1873,-4.1285,-4.0296,-3.9567,-3.919,-3.881,-3.8684,-3.881,-3.8789,-3.824,-3.8515,-3.9524,-4.0792,-4.1887,-4.3014,-4.4202,-4.5572,-4.6399,-4.7992,-4.9367,-4.8575,-4.8742,-4.9504,-4.9179,-4.9096,-4.9096,-4.8165,-4.7358,-4.702,-4.7046,-4.6944,-4.6918,-4.6969,-4.7445,-4.7496,-4.6845,-4.6617,-4.6794,-4.7668,-4.9423,-5.0805,-5.1663,-5.2202,-5.1794,-5.1381,-5.1257,-5.0943,-5.0004,-4.9143,-4.8132,-4.711,-4.6405,-4.5785,-4.5558,-4.5472,-4.5386,-4.5157,-4.487,-4.4434,-4.416,-4.4455,-4.4724,-4.4898,-4.5259,-4.5498,-4.5654,-4.6129,-4.6474,-4.6558,-4.7334,-4.8227,-4.8417,-4.85,-4.959,-5.0629,-5.1194,-5.1787,-5.2467,-5.2991,-5.3773,-5.3894,-5.3502,-5.3206,-5.2607,-5.1998,-1.4107,-1.4107,-1.4987,-1.5442,-1.5889,-1.5897,-1.5897,-1.5897,-1.5608,-1.5906,-1.6779,-1.81,-1.9862,-2.1599,-2.3175,-2.5319,-2.714,-2.8676,-3.0607,-3.3118,-3.4513,-3.5959,-3.7514,-3.8937,-3.9775,-4.0442,-4.0915,-4.1362,-4.1184,-4.069,-3.9943,-3.9294,-3.8281,-3.7662,-3.7168,-3.665,-3.639,-3.624,-3.5436,-3.5154,-3.5848,-3.6869,-3.8091,-3.9775,-4.1195,-4.2318,-4.3961,-4.5252,-4.6085,-4.6833,-4.6883,-4.6643,-4.7261,-4.7477,-4.7935,-4.7686,-4.6681,-4.5995,-4.5905,-4.579,-4.5435,-4.5063,-4.4503,-4.5277,-4.5624,-4.5302,-4.4859,-4.4952,-4.6224,-4.8002,-4.9638,-5.0622,-5.0672,-5.0251,-5.012,-5.0015,-5.0256,-5.0418,-4.9653,-4.8844,-4.7785,-4.6708,-4.6053,-4.5189,-4.5142,-4.4719,-4.4431,-4.3993,-4.3567,-4.3256,-4.3515,-4.3899,-4.4383,-4.4961,-4.5239,-4.5677,-4.6251,-4.6634,-4.6717,-4.7281,-4.8194,-4.8286,-4.8157,-4.9021,-4.9959,-5.0738,-5.139,-5.1289,-5.1676,-5.2559,-5.2879,-5.2578,-5.197,-5.1146,-5.0622,-1.2458,-1.2601,-1.3208,-1.3658,-1.4107,-1.4556,-1.4713,-1.4705,-1.4713,-1.5442,-1.6483,-1.7667,-1.914,-2.0727,-2.2166,-2.3892,-2.59,-2.7295,-2.8969,-3.105,-3.2814,-3.4285,-3.5606,-3.7039,-3.8088,-3.8853,-3.9484,-3.9965,-3.9714,-3.9106,-3.8385,-3.7765,-3.652,-3.5737,-3.5079,-3.4418,-3.3886,-3.3217,-3.2814,-3.2831,-3.3752,-3.4796,-3.579,-3.7196,-3.9168,-3.9931,-4.088,-4.2891,-4.4009,-4.4762,-4.4224,-4.4295,-4.5234,-4.5098,-4.5259,-4.5955,-4.4952,-4.4576,-4.4483,-4.4389,-4.4105,-4.3725,-4.3318,-4.3295,-4.3271,-4.363,-4.3415,-4.3438,-4.4952,-4.6478,-4.8028,-4.9369,-4.9098,-4.8719,-4.8742,-4.8738,-4.9503,-5.0363,-5.0133,-4.9289,-4.8405,-4.7198,-4.617,-4.5341,-4.4743,-4.4604,-4.4311,-4.3915,-4.3504,-4.3385,-4.3743,-4.4233,-4.465,-4.4976,-4.5037,-4.5565,-4.6208,-4.6614,-4.6748,-4.7202,-4.8161,-4.8475,-4.8537,-4.9001,-4.9447,-5.0178,-5.1083,-5.0757,-5.0531,-5.1164,-5.1663,-5.1014,-5.0278,-4.9665,-4.945,-1.1398,-1.1542,-1.2013,-1.2464,-1.2908,-1.3366,-1.3665,-1.3957,-1.4249,-1.4995,-1.6037,-1.7233,-1.8404,-1.9862,-2.1163,-2.2755,-2.4335,-2.59,-2.7435,-2.9262,-3.1067,-3.2697,-3.4171,-3.5474,-3.652,-3.7426,-3.796,-3.845,-3.8323,-3.7939,-3.7228,-3.6247,-3.4966,-3.4019,-3.3083,-3.1885,-3.1204,-3.0656,-3.0365,-3.093,-3.1749,-3.2544,-3.3716,-3.5003,-3.6849,-3.7672,-3.841,-4.0178,-4.1752,-4.2336,-4.172,-4.1652,-4.2915,-4.2768,-4.293,-4.3868,-4.3175,-4.2526,-4.2572,-4.2526,-4.2405,-4.2087,-4.061,-4.0237,-4.0712,-4.1206,-4.1497,-4.2109,-4.3175,-4.4624,-4.6085,-4.7686,-4.8321,-4.7935,-4.7573,-4.7677,-4.8229,-4.9146,-5.0041,-4.9311,-4.8804,-4.7647,-4.6672,-4.5746,-4.5032,-4.4912,-4.4666,-4.4342,-4.407,-4.4399,-4.4684,-4.5222,-4.552,-4.5812,-4.5943,-4.5892,-4.6337,-4.6623,-4.6858,-4.7198,-4.7673,-4.8101,-4.8775,-4.9074,-4.9114,-4.9727,-5.0485,-5.0292,-4.9749,-5.022,-5.0172,-4.9315,-4.8579,-4.8443,-4.8223,-1.1103,-1.1548,-1.2013,-1.2464,-1.2758,-1.2471,-1.2765,-1.3344,-1.3808,-1.4414,-1.5327,-1.651,-1.7557,-1.8572,-2.0154,-2.1744,-2.3044,-2.4478,-2.6183,-2.787,-2.9555,-3.1221,-3.2831,-3.4152,-3.5192,-3.5979,-3.665,-3.7059,-3.7208,-3.667,-3.5717,-3.4664,-3.3637,-3.2562,-3.1187,-2.9969,-2.9001,-2.8738,-2.8599,-2.9016,-2.9709,-3.0382,-3.1442,-3.2778,-3.4343,-3.5243,-3.6351,-3.7672,-3.9252,-3.9714,-3.961,-3.9292,-3.9602,-4.0579,-4.1442,-4.1677,-4.0801,-4.0383,-4.0237,-4.0237,-4.0112,-3.9316,-3.7317,-3.7426,-3.8174,-3.9232,-3.9632,-4.0383,-4.1374,-4.2814,-4.4295,-4.5798,-4.7187,-4.6769,-4.6235,-4.659,-4.7035,-4.8091,-4.915,-4.9098,-4.856,-4.8055,-4.6997,-4.6176,-4.5376,-4.535,-4.546,-4.5029,-4.5077,-4.5322,-4.5619,-4.6044,-4.6304,-4.6555,-4.6678,-4.662,-4.6793,-4.6366,-4.6561,-4.6474,-4.6877,-4.7281,-4.7582,-4.8002,-4.8583,-4.8883,-4.9127,-4.91,-4.8912,-4.8748,-4.8636,-4.7891,-4.7108,-4.6995,-4.6882,-1.0191,-1.0801,-1.1109,-1.1712,-1.2314,-1.1712,-1.1404,-1.1856,-1.2758,-1.3943,-1.5128,-1.6009,-1.6925,-1.8255,-1.9634,-2.094,-2.2033,-2.3331,-2.4906,-2.6494,-2.818,-2.9709,-3.1067,-3.2526,-3.3734,-3.4815,-3.5513,-3.6038,-3.6168,-3.5644,-3.4966,-3.3867,-3.2697,-3.1221,-2.9709,-2.846,-2.7355,-2.7214,-2.6932,-2.7214,-2.762,-2.8444,-2.9262,-3.047,-3.1815,-3.2993,-3.4136,-3.549,-3.676,-3.7148,-3.7018,-3.67,-3.6161,-3.6441,-3.7127,-3.9022,-3.9,-3.8364,-3.8216,-3.8195,-3.7277,-3.661,-3.4815,-3.4815,-3.65,-3.7446,-3.7852,-3.8492,-3.9506,-4.0712,-4.2185,-4.4507,-4.5234,-4.4645,-4.4434,-4.5171,-4.5805,-4.7312,-4.8275,-4.8191,-4.7728,-4.765,-4.7073,-4.63,-4.5441,-4.5859,-4.6144,-4.6025,-4.5999,-4.6174,-4.6433,-4.6545,-4.6698,-4.6612,-4.6653,-4.6706,-4.6478,-4.6135,-4.5945,-4.564,-4.5995,-4.6085,-4.6364,-4.6706,-4.7108,-4.7531,-4.7754,-4.7865,-4.759,-4.7393,-4.7108,-4.6428,-4.574,-4.5534,-4.5534,-0.9587,-1.0191,-1.0499,-1.1157,-1.1858,-1.1325,-1.1219,-1.1374,-1.2152,-1.3328,-1.454,-1.5654,-1.6603,-1.7607,-1.8881,-2.0047,-2.1042,-2.2138,-2.3263,-2.4817,-2.6748,-2.8165,-2.9555,-3.0914,-3.2274,-3.3235,-3.3904,-3.4322,-3.4985,-3.4266,-3.3867,-3.3351,-3.1732,-3.009,-2.8583,-2.7073,-2.6226,-2.5942,-2.5658,-2.5516,-2.5786,-2.648,-2.7295,-2.8274,-2.9799,-3.1017,-3.2356,-3.3679,-3.4645,-3.5041,-3.4928,-3.4399,-3.3886,-3.3083,-3.4152,-3.652,-3.7188,-3.641,-3.6129,-3.5455,-3.455,-3.3752,-3.2831,-3.3217,-3.4947,-3.5868,-3.641,-3.7059,-3.796,-3.9106,-4.0025,-4.2192,-4.3154,-4.2558,-4.2891,-4.3485,-4.4606,-4.6095,-4.7159,-4.7046,-4.6706,-4.6377,-4.6352,-4.5621,-4.5307,-4.5509,-4.5696,-4.5731,-4.5765,-4.6135,-4.6731,-4.6757,-4.6757,-4.6529,-4.63,-4.593,-4.5674,-4.5442,-4.521,-4.4884,-4.4884,-4.4976,-4.521,-4.5442,-4.5814,-4.6045,-4.6224,-4.6314,-4.6199,-4.588,-4.5302,-4.4718,-4.4579,-4.4628,-4.4582,-0.9279,-0.9727,-1.0202,-1.0653,-1.1199,-1.1457,-1.1533,-1.132,-1.1807,-1.264,-1.3651,-1.4881,-1.5686,-1.6532,-1.8178,-1.9043,-1.9856,-2.133,-2.2459,-2.3427,-2.5225,-2.6664,-2.8041,-2.9278,-3.0503,-3.1477,-3.2156,-3.2697,-3.2984,-3.2643,-3.2256,-3.1732,-3.0743,-2.9507,-2.8165,-2.6494,-2.5218,-2.4491,-2.4205,-2.4205,-2.4491,-2.4919,-2.5758,-2.6733,-2.798,-2.9108,-3.0332,-3.1561,-3.2374,-3.2778,-3.2661,-3.2274,-3.1613,-3.081,-3.1902,-3.4569,-3.4721,-3.4304,-3.3333,-3.2003,-3.1596,-3.146,-3.105,-3.1596,-3.3369,-3.4455,-3.5117,-3.5737,-3.654,-3.7703,-3.8578,-3.9412,-4.038,-4.0748,-4.125,-4.1919,-4.3218,-4.4652,-4.5492,-4.5814,-4.5326,-4.4952,-4.5069,-4.5161,-4.4854,-4.4879,-4.5118,-4.5259,-4.5093,-4.5674,-4.6503,-4.6643,-4.6529,-4.6185,-4.5699,-4.5351,-4.4932,-4.4624,-4.4389,-4.4058,-4.3963,-4.3939,-4.4058,-4.4389,-4.4624,-4.4742,-4.4859,-4.4884,-4.4365,-4.3891,-4.3462,-4.3694,-4.3841,-4.396,-4.4435,-0.8376,-0.9299,-0.9912,-0.9956,-0.9844,-0.9924,-0.9949,-0.9949,-1.0279,-1.1156,-1.2651,-1.3586,-1.457,-1.5672,-1.6877,-1.775,-1.8926,-2.0251,-2.1357,-2.2614,-2.3851,-2.5257,-2.6325,-2.762,-2.8909,-3.009,-3.0777,-3.146,-3.185,-3.1732,-3.1187,-3.0365,-2.9385,-2.8135,-2.6636,-2.536,-2.4205,-2.3762,-2.3331,-2.32,-2.3344,-2.3619,-2.4335,-2.519,-2.59,-2.7155,-2.8274,-2.9246,-2.9783,-3.0212,-3.0365,-3.009,-2.9416,-2.9139,-2.9815,-3.117,-3.2256,-3.2256,-3.1306,-3.009,-2.9124,-2.9539,-2.9262,-3.009,-3.1596,-3.2831,-3.3655,-3.4418,-3.523,-3.6168,-3.7554,-3.8452,-3.927,-3.9537,-3.9894,-4.088,-4.217,-4.3265,-4.4011,-4.4649,-4.4176,-4.3701,-4.3796,-4.3606,-4.344,-4.3367,-4.3677,-4.4034,-4.4271,-4.5118,-4.6045,-4.63,-4.6185,-4.5699,-4.5234,-4.5078,-4.4893,-4.4512,-4.4054,-4.3597,-4.3354,-4.3004,-4.3102,-4.3765,-4.391,-4.3676,-4.3747,-4.3886,-4.3064,-4.2192,-4.2615,-4.3251,-4.3457,-4.4098,-4.4534,-0.7672,-0.863,-0.9136,-0.9133,-0.9098,-0.9171,-0.9369,-0.9369,-0.9697,-1.0454,-1.1588,-1.2098,-1.3103,-1.4538,-1.5568,-1.6909,-1.7869,-1.9162,-2.0155,-2.1292,-2.2456,-2.3534,-2.4691,-2.5807,-2.7093,-2.8165,-2.8969,-2.9799,-3.0212,-3.009,-2.9693,-2.8707,-2.7295,-2.6211,-2.536,-2.4205,-2.3344,-2.2755,-2.2467,-2.2322,-2.2322,-2.2611,-2.3188,-2.3905,-2.4348,-2.519,-2.6183,-2.6888,-2.7435,-2.7995,-2.8429,-2.801,-2.7325,-2.6888,-2.7591,-2.9246,-3.0074,-2.9936,-2.9124,-2.7855,-2.7044,-2.745,-2.745,-2.801,-2.9936,-3.134,-3.2173,-3.3101,-3.4037,-3.5249,-3.641,-3.7426,-3.8408,-3.8557,-3.9021,-4.0035,-4.1124,-4.2124,-4.2884,-4.3222,-4.2884,-4.2399,-4.233,-4.2162,-4.1942,-4.1842,-4.233,-4.2958,-4.3677,-4.4531,-4.5351,-4.5699,-4.5699,-4.5467,-4.4957,-4.4869,-4.4703,-4.431,-4.3829,-4.4005,-4.4157,-4.34,-4.3023,-4.3377,-4.3709,-4.3456,-4.3194,-4.3013,-4.2713,-4.226,-4.242,-4.2794,-4.3496,-4.4307,-4.45,-0.6871,-0.7729,-0.7873,-0.8108,-0.8461,-0.9322,-0.9553,-0.9168,-0.9362,-0.9707,-1.0234,-1.0741,-1.174,-1.333,-1.463,-1.5859,-1.6631,-1.7795,-1.8688,-1.9564,-2.0657,-2.1943,-2.3015,-2.4142,-2.5449,-2.6381,-2.7107,-2.7503,-2.7725,-2.8234,-2.721,-2.5797,-2.5642,-2.5019,-2.4165,-2.3444,-2.2527,-2.2067,-2.1779,-2.1744,-2.1744,-2.2021,-2.231,-2.29,-2.3475,-2.4049,-2.4478,-2.5319,-2.6013,-2.6155,-2.6592,-2.6324,-2.5475,-2.5204,-2.5914,-2.717,-2.801,-2.7715,-2.6733,-2.5616,-2.5204,-2.5218,-2.5502,-2.6183,-2.7995,-2.9571,-3.0536,-3.1033,-3.3083,-3.4455,-3.5269,-3.5979,-3.6829,-3.7155,-3.7601,-3.8448,-3.9064,-4.0237,-4.1419,-4.1788,-4.1665,-4.1251,-4.096,-4.0982,-4.0778,-4.0858,-4.1352,-4.2078,-4.293,-4.382,-4.4624,-4.5326,-4.5351,-4.5049,-4.4652,-4.456,-4.4479,-4.4193,-4.4053,-4.4326,-4.45,-4.4132,-4.3512,-4.3732,-4.3462,-4.3243,-4.3047,-4.2837,-4.2616,-4.2406,-4.2286,-4.2485,-4.3043,-4.3906,-4.4449,-0.6005,-0.6184,-0.6211,-0.6568,-0.6919,-0.7472,-0.7663,-0.7663,-0.7663,-0.8184,-0.87,-0.9043,-1.0254,-1.2169,-1.3368,-1.4878,-1.6529,-1.736,-1.7777,-1.8527,-1.9487,-2.057,-2.1533,-2.2782,-2.409,-2.5217,-2.5624,-2.6076,-2.6319,-2.6217,-2.5837,-2.5079,-2.4584,-2.4195,-2.3638,-2.2807,-2.2328,-2.191,-2.1733,-2.1558,-2.1646,-2.1634,-2.1924,-2.219,-2.2624,-2.2912,-2.3475,-2.4049,-2.4179,-2.4464,-2.475,-2.4464,-2.3749,-2.3918,-2.4634,-2.5488,-2.607,-2.563,-2.4478,-2.3905,-2.3905,-2.3905,-2.4049,-2.4634,-2.6183,-2.6918,-2.7746,-2.9044,-3.168,-3.346,-3.4338,-3.5023,-3.5397,-3.5731,-3.6051,-3.633,-3.6869,-3.8684,-3.9987,-4.0258,-4.028,-3.9861,-3.9632,-3.9675,-3.9801,-3.9883,-4.0449,-4.1182,-4.2124,-4.2981,-4.3915,-4.4976,-4.4766,-4.4461,-4.4368,-4.458,-4.427,-4.4236,-4.4288,-4.4443,-4.4495,-4.4208,-4.4027,-4.3607,-4.3233,-4.3144,-4.3026,-4.2734,-4.2405,-4.2084,-4.1805,-4.2007,-4.258,-4.3472,-4.4252,-0.3582,-0.4187,-0.5229,-0.5751,-0.5928,-0.6276,-0.6444,-0.6444,-0.6621,-0.6969,-0.749,-0.7837,-0.8878,-1.0441,-1.1996,-1.3732,-1.5121,-1.5941,-1.649,-1.7177,-1.8127,-1.9111,-2.0082,-2.1258,-2.2202,-2.3255,-2.395,-2.475,-2.4699,-2.4424,-2.3947,-2.3744,-2.3446,-2.3206,-2.2744,-2.2213,-2.2066,-2.1983,-2.17,-2.1439,-2.1417,-2.1349,-2.1416,-2.1477,-2.1454,-2.1599,-2.2033,-2.2178,-2.2467,-2.2755,-2.29,-2.2599,-2.2455,-2.2611,-2.3188,-2.3905,-2.4075,-2.32,-2.2033,-2.2033,-2.2178,-2.2467,-2.2755,-2.3188,-2.3775,-2.4777,-2.5886,-2.7516,-3.0332,-3.1919,-3.265,-3.3405,-3.3794,-3.4022,-3.4343,-3.4475,-3.4965,-3.6938,-3.8577,-3.8726,-3.8874,-3.8364,-3.8109,-3.8257,-3.8364,-3.8874,-3.9718,-4.016,-4.0947,-4.1743,-4.2814,-4.4152,-4.4176,-4.3963,-4.4104,-4.4617,-4.4362,-4.4408,-4.4466,-4.519,-4.4873,-4.4711,-4.4671,-4.4285,-4.38,-4.3407,-4.2923,-4.2632,-4.2289,-4.1796,-4.1428,-4.1589,-4.2101,-4.2923,-4.3652,-0.0697,-0.1918,-0.4189,-0.5237,-0.5411,-0.5403,-0.5572,-0.5575,-0.5925,-0.6099,-0.6099,-0.6972,-0.7663,-0.8527,-1.0436,-1.2002,-1.3381,-1.4056,-1.47,-1.5362,-1.6561,-1.7588,-1.8352,-1.9613,-2.0576,-2.1492,-2.255,-2.3106,-2.3198,-2.2481,-2.2009,-2.22,-2.2245,-2.2122,-2.1822,-2.1524,-2.1278,-2.154,-2.1361,-2.1134,-2.1073,-2.1127,-2.0862,-2.0565,-2.0411,-2.0546,-2.0603,-2.0727,-2.1018,-2.1308,-2.1308,-2.1308,-2.1454,-2.1454,-2.1877,-2.1888,-2.1477,-2.0469,-2.0446,-2.0581,-2.0872,-2.1308,-2.1454,-2.1454,-2.2033,-2.3044,-2.4335,-2.631,-2.883,-3.0398,-3.0673,-3.1477,-3.2086,-3.2491,-3.2966,-3.3101,-3.3109,-3.5266,-3.7317,-3.7595,-3.7337,-3.6969,-3.682,-3.6929,-3.7188,-3.8022,-3.8852,-3.9085,-3.9549,-4.0134,-4.096,-4.2837,-4.3389,-4.3365,-4.3573,-4.4543,-4.4559,-4.4438,-4.5235,-4.613,-4.5695,-4.5283,-4.5228,-4.4758,-4.47,-4.4164,-4.3112,-4.245,-4.2082,-4.1746,-4.132,-4.1499,-4.1648,-4.2094,-4.2498,-0.0174,-0.0523,-0.1569,-0.2965,-0.4363,-0.4535,-0.4709,-0.4883,-0.4883,-0.5058,-0.5234,-0.5751,-0.6273,-0.6965,-0.8003,-0.9566,-1.1662,-1.2508,-1.3012,-1.3534,-1.4735,-1.6096,-1.7021,-1.8346,-1.9448,-2.0038,-2.1044,-2.131,-2.1611,-2.1373,-2.1218,-2.1136,-2.1373,-2.1415,-2.1022,-2.0776,-2.0819,-2.085,-2.0717,-2.0652,-2.0636,-2.05,-2.0291,-2.0013,-1.995,-1.976,-1.9465,-1.9569,-1.9716,-1.9997,-1.9997,-2.0008,-2.0581,-2.1163,-2.1308,-2.0884,-2.0019,-1.9726,-1.9569,-1.9716,-2.0008,-2.03,-2.0435,-2.0592,-2.0872,-2.1599,-2.2587,-2.41,-2.6815,-2.8862,-2.9048,-3.0189,-3.0844,-3.1357,-3.2023,-3.2673,-3.2462,-3.3849,-3.5887,-3.6188,-3.5795,-3.5664,-3.5756,-3.5998,-3.622,-3.7039,-3.8403,-3.8638,-3.8257,-3.8747,-4.0134,-4.1888,-4.2907,-4.2884,-4.315,-4.403,-4.4257,-4.4273,-4.5069,-4.6156,-4.6025,-4.5596,-4.5101,-4.4562,-4.4421,-4.3693,-4.296,-4.2074,-4.1499,-4.12,-4.1219,-4.107,-4.107,-4.1219,-4.1667,0.2614,0.1743,0.0523,-0.0872,-0.2092,-0.2616,-0.2965,-0.3139,-0.4012,-0.4537,-0.4712,-0.5232,-0.5754,-0.5928,-0.6444,-0.7656,-0.9576,-1.0955,-1.164,-1.1979,-1.319,-1.4392,-1.5235,-1.6608,-1.7808,-1.8603,-1.901,-1.9541,-2.0246,-2.0198,-1.9972,-2.001,-2.0347,-2.0347,-2.0179,-2.0179,-2.0044,-2.0106,-2.0019,-1.9912,-1.9892,-1.9629,-1.919,-1.8781,-1.8557,-1.8513,-1.8188,-1.8247,-1.8542,-1.8846,-1.8846,-1.8983,-1.9276,-1.9569,-1.9716,-1.9276,-1.8846,-1.8699,-1.8542,-1.8689,-1.915,-1.9454,-1.958,-1.9569,-1.958,-2.0446,-2.143,-2.285,-2.5305,-2.7369,-2.7399,-2.8366,-2.9512,-3.0359,-3.0238,-3.0221,-3.081,-3.3235,-3.4455,-3.5004,-3.4607,-3.4455,-3.4683,-3.5041,-3.5266,-3.6279,-3.767,-3.7609,-3.7099,-3.8109,-3.9506,-4.115,-4.2422,-4.2277,-4.2138,-4.3073,-4.3629,-4.3873,-4.4656,-4.561,-4.5739,-4.4999,-4.4566,-4.413,-4.3254,-4.2686,-4.1945,-4.1349,-4.075,-4.0299,-4.0299,-4.0299,-4.0318,-4.0469,-4.092,0.5403,0.3664,0.2267,0.122,0.0349,-0.0523,-0.1046,-0.1395,-0.279,-0.3664,-0.3838,-0.4712,-0.5062,-0.5409,-0.5403,-0.6447,-0.7663,-0.9051,-1.009,-1.0604,-1.1462,-1.2674,-1.3534,-1.4735,-1.5584,-1.6298,-1.716,-1.7654,-1.8199,-1.8513,-1.8656,-1.8995,-1.9174,-1.9174,-1.9174,-1.9174,-1.9156,-1.927,-1.9101,-1.9101,-1.9169,-1.8773,-1.8336,-1.7635,-1.7553,-1.7271,-1.7065,-1.7066,-1.7362,-1.7667,-1.7677,-1.7529,-1.7519,-1.7815,-1.7962,-1.7962,-1.7824,-1.7815,-1.7805,-1.7815,-1.8277,-1.8729,-1.8709,-1.8404,-1.8404,-1.9266,-2.0289,-2.1732,-2.3619,-2.5658,-2.5984,-2.648,-2.7791,-2.8692,-2.8366,-2.7561,-2.9246,-3.1477,-3.3271,-3.3539,-3.3387,-3.3369,-3.3734,-3.4096,-3.4626,-3.5644,-3.6738,-3.6738,-3.6489,-3.7466,-3.8853,-4.0383,-4.1788,-4.1542,-4.115,-4.2172,-4.2749,-4.3026,-4.4241,-4.5185,-4.5309,-4.4566,-4.3839,-4.3254,-4.2518,-4.1797,-4.12,-4.06,-4.0148,-3.9846,-3.9524,-3.9372,-3.9543,-3.9713,-4.0148,0.5577,0.4189,0.3664,0.2965,0.2267,0.1395,0.0523,-0.0174,-0.0523,-0.122,-0.1918,-0.279,-0.3489,-0.4187,-0.506,-0.5409,-0.5931,-0.6972,-0.8184,-0.8874,-0.974,-1.095,-1.1991,-1.2674,-1.3012,-1.2306,-1.4592,-1.5457,-1.5956,-1.6445,-1.7127,-1.7297,-1.7816,-1.8165,-1.8165,-1.8335,-1.8335,-1.8343,-1.8335,-1.8335,-1.83,-1.8256,-1.769,-1.7113,-1.6932,-1.6578,-1.6035,-1.6037,-1.6186,-1.6483,-1.6343,-1.5749,-1.5591,-1.6177,-1.7057,-1.7066,-1.7066,-1.7066,-1.7066,-1.7371,-1.7538,-1.7686,-1.7972,-1.7824,-1.7667,-1.8394,-1.9423,-2.03,-2.1308,-2.3044,-2.4647,-2.4879,-2.5447,-2.6339,-2.5505,-2.5618,-2.7531,-2.9815,-3.1494,-3.1902,-3.2173,-3.2291,-3.2661,-3.3163,-3.4,-3.4853,-3.5667,-3.6121,-3.6116,-3.669,-3.796,-3.9506,-4.053,-4.0676,-4.0471,-4.1094,-4.1392,-4.2179,-4.3976,-4.4629,-4.5143,-4.4276,-4.3254,-4.2665,-4.1945,-4.1369,-4.0769,-4.0016,-3.9543,-3.9543,-3.922,-3.8916,-3.8916,-3.8934,-3.9087,0.6444,0.5055,0.5055,0.4533,0.3664,0.3139,0.2616,0.2093,0.122,0.0697,0.0523,-0.0697,-0.1918,-0.3313,-0.4363,-0.5062,-0.5411,-0.6105,-0.6624,-0.7313,-0.818,-0.922,-1.0263,-1.0081,-0.9898,-1.0239,-1.2864,-1.4083,-1.4234,-1.4907,-1.5584,-1.5755,-1.6282,-1.6802,-1.6965,-1.6965,-1.7143,-1.733,-1.733,-1.733,-1.733,-1.733,-1.7084,-1.6862,-1.641,-1.5884,-1.5227,-1.531,-1.5608,-1.5608,-1.5451,-1.4995,-1.4838,-1.602,-1.677,-1.677,-1.6622,-1.6186,-1.6177,-1.6343,-1.6658,-1.6797,-1.6946,-1.6797,-1.6788,-1.7529,-1.8562,-1.9287,-2.0008,-2.1006,-2.2731,-2.2994,-2.4023,-2.4777,-2.4567,-2.4554,-2.6169,-2.815,-2.9815,-3.0794,-3.0947,-3.134,-3.185,-3.2339,-3.3029,-3.4093,-3.489,-3.5251,-3.5269,-3.5644,-3.7079,-3.8619,-3.9527,-3.9948,-3.9635,-3.9807,-4.0113,-4.1396,-4.3275,-4.4392,-4.4421,-4.3547,-4.2665,-4.1777,-4.1031,-4.0449,-4.0016,-3.9391,-3.8782,-3.8782,-3.8629,-3.8458,-3.8458,-3.8611,-3.8611,0.766,0.6267,0.627,0.5751,0.4883,0.4537,0.4363,0.4189,0.2616,0.2442,0.2616,0.1395,-0.0349,-0.2092,-0.279,-0.3838,-0.4363,-0.4712,-0.5409,-0.5923,-0.6792,-0.7837,-0.8014,-0.7483,-0.7476,-0.8865,-1.1668,-1.2889,-1.2858,-1.3528,-1.4036,-1.4214,-1.4907,-1.5427,-1.5762,-1.5933,-1.6119,-1.6476,-1.6647,-1.6647,-1.6826,-1.6826,-1.6632,-1.6351,-1.5773,-1.5094,-1.4555,-1.4713,-1.4862,-1.4713,-1.4548,-1.4241,-1.4233,-1.5574,-1.6474,-1.6474,-1.6037,-1.5442,-1.5293,-1.5591,-1.5906,-1.6203,-1.6203,-1.5906,-1.56,-1.664,-1.7667,-1.8552,-1.8836,-1.9548,-2.1129,-2.2021,-2.2755,-2.3631,-2.3619,-2.3475,-2.4348,-2.6324,-2.8444,-2.9555,-2.9847,-2.9969,-3.088,-3.1255,-3.2104,-3.3307,-3.3862,-3.4226,-3.4493,-3.4891,-3.6429,-3.8109,-3.8895,-3.9148,-3.8937,-3.8978,-3.953,-4.0581,-4.2794,-4.411,-4.3442,-4.2518,-4.1777,-4.0861,-4.011,-3.9675,-3.9239,-3.8629,-3.8323,-3.8188,-3.8034,-3.8016,-3.7998,-3.8152,-3.8305,0.8705,0.8011,0.6795,0.5925,0.5575,0.506,0.4712,0.4712,0.4187,0.4187,0.3838,0.2965,0.1395,-0.0174,-0.0523,-0.1046,-0.1918,-0.279,-0.3488,-0.4533,-0.5577,-0.6099,-0.6105,-0.5751,-0.6264,-0.783,-1.0109,-1.0976,-1.1133,-1.1985,-1.2668,-1.3012,-1.4043,-1.4557,-1.4899,-1.5085,-1.5599,-1.5948,-1.6119,-1.6298,-1.6484,-1.6655,-1.6476,-1.602,-1.5461,-1.4646,-1.4047,-1.395,-1.395,-1.3329,-1.3486,-1.318,-1.2866,-1.4689,-1.5749,-1.5749,-1.5285,-1.4987,-1.4846,-1.5293,-1.5749,-1.5889,-1.5749,-1.5451,-1.5144,-1.5723,-1.6613,-1.7362,-1.7214,-1.8237,-1.9986,-2.0581,-2.1308,-2.2178,-2.2033,-2.1442,-2.1744,-2.4205,-2.7073,-2.832,-2.8305,-2.8723,-2.9385,-3.0058,-3.059,-3.2226,-3.2768,-3.3002,-3.3118,-3.3807,-3.5381,-3.7337,-3.8001,-3.8257,-3.8237,-3.8088,-3.8818,-3.9459,-4.1654,-4.2552,-4.1721,-4.1212,-4.0653,-3.9959,-3.9353,-3.8763,-3.8323,-3.817,-3.7863,-3.7709,-3.7555,-3.7537,-3.7537,-3.7691,-3.7845,0.9051,0.818,0.732,0.6795,0.6447,0.5925,0.558,0.5232,0.4883,0.4712,0.4537,0.4012,0.3315,0.2442,0.1743,0.1046,0.0174,-0.0697,-0.1395,-0.2091,-0.3486,-0.401,-0.401,-0.401,-0.505,-0.6969,-0.9238,-0.9758,-0.9571,-1.0609,-1.1295,-1.1807,-1.2502,-1.3362,-1.4049,-1.4399,-1.4742,-1.5435,-1.5941,-1.5948,-1.6298,-1.6298,-1.6119,-1.5819,-1.5148,-1.4554,-1.4065,-1.3691,-1.3501,-1.3051,-1.2751,-1.2608,-1.2437,-1.4107,-1.4862,-1.4398,-1.4398,-1.4249,-1.4249,-1.4241,-1.4548,-1.4697,-1.454,-1.4241,-1.4241,-1.5153,-1.6186,-1.6622,-1.602,-1.6909,-1.8542,-1.9423,-2.0154,-2.0727,-2.0143,-1.9423,-1.9129,-2.2467,-2.5204,-2.6621,-2.7029,-2.7295,-2.7949,-2.9076,-3.009,-3.0981,-3.1664,-3.1766,-3.1885,-3.2849,-3.4056,-3.6168,-3.7358,-3.7358,-3.7208,-3.7208,-3.7631,-3.8183,-3.9616,-4.0309,-3.9959,-3.9617,-3.9015,-3.8726,-3.8287,-3.7845,-3.7401,-3.7109,-3.6954,-3.7092,-3.6937,-3.6937,-3.7092,-3.7246,-3.7228,0.9393,0.87,0.8014,0.7497,0.7146,0.6795,0.6444,0.5925,0.558,0.5232,0.4883,0.4883,0.4709,0.4363,0.3489,0.279,0.2092,0.1395,0.1046,0.0523,-0.0523,-0.0872,-0.122,-0.122,-0.2788,-0.5925,-0.7844,-0.8539,-0.8007,-0.9225,-1.0086,-1.0426,-1.1128,-1.1996,-1.3018,-1.3362,-1.4056,-1.4914,-1.5427,-1.5606,-1.5777,-1.577,-1.577,-1.5539,-1.4648,-1.4168,-1.3943,-1.3384,-1.2908,-1.2608,-1.2464,-1.217,-1.2314,-1.3223,-1.3673,-1.3208,-1.3201,-1.3201,-1.3051,-1.3044,-1.3344,-1.3808,-1.3651,-1.3044,-1.3037,-1.4099,-1.4697,-1.4689,-1.5136,-1.5434,-1.7076,-1.811,-1.8689,-1.9119,-1.809,-1.7519,-1.8247,-2.1006,-2.3905,-2.5218,-2.5616,-2.6027,-2.6845,-2.798,-2.9139,-2.988,-3.0569,-3.0947,-3.093,-3.1613,-3.3253,-3.5098,-3.6449,-3.6449,-3.6188,-3.6168,-3.637,-3.6901,-3.7382,-3.8107,-3.7853,-3.7767,-3.7735,-3.7483,-3.733,-3.7074,-3.6644,-3.6178,-3.6178,-3.6316,-3.6161,-3.6161,-3.6472,-3.6817,-3.6817,0.974,0.9562,0.87,0.8014,0.7497,0.7497,0.7146,0.6972,0.6798,0.6273,0.5749,0.5575,0.5229,0.4712,0.4535,0.4187,0.4012,0.3664,0.3313,0.2965,0.3139,0.279,0.2092,0.1918,-0.0523,-0.4359,-0.645,-0.6972,-0.6618,-0.7837,-0.8527,-0.87,-0.9917,-1.0787,-1.1468,-1.2152,-1.3018,-1.3712,-1.4406,-1.4928,-1.5263,-1.5435,-1.5271,-1.4735,-1.4168,-1.3664,-1.3275,-1.2822,-1.2347,-1.2314,-1.2314,-1.217,-1.217,-1.2321,-1.2321,-1.2321,-1.1849,-1.1548,-1.1253,-1.1693,-1.2594,-1.3823,-1.2901,-1.2287,-1.213,-1.2417,-1.2417,-1.094,-1.2744,-1.4697,-1.5749,-1.6631,-1.677,-1.6474,-1.5871,-1.5871,-1.6909,-1.9694,-2.2166,-2.3619,-2.4062,-2.4491,-2.563,-2.6748,-2.7746,-2.8475,-2.9155,-2.9555,-2.9693,-3.0503,-3.2409,-3.4171,-3.5664,-3.5532,-3.4985,-3.4853,-3.5042,-3.5432,-3.5368,-3.5659,-3.5419,-3.604,-3.6398,-3.6398,-3.6368,-3.6299,-3.5866,-3.5537,-3.5363,-3.538,-3.538,-3.5363,-3.571,-3.6073,-3.6247,0.9571,0.9225,0.8705,0.8184,0.8014,0.8014,0.7841,0.7497,0.732,0.6972,0.6621,0.6444,0.6102,0.5754,0.5403,0.5055,0.4712,0.4537,0.4535,0.4705,0.5058,0.4712,0.4012,0.3838,0.1395,-0.2266,-0.5058,-0.6108,-0.5928,-0.6621,-0.7313,-0.783,-0.87,-0.9571,-1.0787,-1.1295,-1.1813,-1.268,-1.354,-1.4228,-1.4399,-1.4756,-1.4763,-1.4508,-1.3832,-1.3208,-1.2994,-1.2645,-1.2189,-1.1888,-1.2013,-1.1718,-1.0807,-1.0644,-1.0946,-1.1259,-1.0952,-1.0342,-0.9587,-1.0337,-1.1398,-1.2006,-1.1705,-1.1241,-1.0928,-1.1686,-1.0928,-0.8982,-1.0342,-1.2451,-1.4548,-1.5285,-1.4689,-1.3486,-1.3494,-1.3793,-1.4375,-1.7914,-2.1006,-2.2178,-2.2768,-2.3488,-2.4491,-2.563,-2.6211,-2.7214,-2.7901,-2.8165,-2.8289,-2.8862,-3.1323,-3.3369,-3.4455,-3.4322,-3.3789,-3.3728,-3.3819,-3.3604,-3.341,-3.322,-3.3369,-3.4265,-3.5075,-3.5066,-3.5388,-3.5145,-3.5067,-3.4736,-3.4422,-3.4422,-3.4438,-3.4422,-3.4579,-3.5117,-3.5464,0.9398,0.9056,0.8531,0.8354,0.8354,0.8354,0.8188,0.7841,0.7844,0.7671,0.7146,0.7146,0.6969,0.6447,0.6096,0.5925,0.5583,0.5409,0.558,0.5925,0.5754,0.5406,0.4883,0.4537,0.2965,0.0174,-0.279,-0.4537,-0.506,-0.5754,-0.627,-0.6965,-0.766,-0.8531,-0.9749,-1.0431,-1.095,-1.1646,-1.268,-1.3368,-1.3712,-1.4069,-1.4241,-1.4187,-1.3589,-1.2951,-1.2698,-1.2586,-1.2145,-1.1712,-1.1705,-1.1109,-1.0051,-0.9743,-0.9895,-1.0348,-1.0046,-0.9284,-0.8523,-0.9133,-0.9592,-0.9738,-1.0046,-0.9884,-0.9425,-1.0191,-0.9738,-0.8376,-0.8987,-1.065,-1.2901,-1.3643,-1.3037,-1.1091,-1.1699,-1.215,-1.2437,-1.5706,-1.8962,-2.0715,-2.1454,-2.2178,-2.3488,-2.4491,-2.5231,-2.641,-2.6947,-2.6903,-2.6888,-2.7465,-2.9539,-3.2444,-3.2714,-3.3002,-3.2427,-3.2173,-3.1954,-3.1475,-3.1245,-3.1215,-3.1729,-3.2408,-3.3286,-3.3717,-3.4044,-3.4201,-3.4009,-3.3791,-3.3474,-3.3316,-3.2998,-3.3141,-3.3458,-3.3791,-3.4155,0.9398,0.906,0.8531,0.8354,0.8354,0.8354,0.8354,0.8358,0.8354,0.8014,0.7671,0.7671,0.732,0.7146,0.6969,0.6975,0.6972,0.6798,0.6972,0.6795,0.6099,0.5749,0.5575,0.5058,0.4187,0.3313,0.0174,-0.2092,-0.3838,-0.506,-0.5583,-0.5751,-0.6621,-0.749,-0.8354,-0.922,-1.0086,-1.095,-1.1646,-1.2341,-1.3037,-1.3203,-1.3375,-1.368,-1.3452,-1.3,-1.2394,-1.2138,-1.2029,-1.1914,-1.1103,-1.0354,-0.9749,-0.9597,-0.9602,-0.9446,-0.8683,-0.7925,-0.747,-0.7773,-0.7921,-0.7912,-0.8215,-0.8367,-0.8215,-0.8068,-0.7921,-0.822,-0.8987,-0.99,-1.0801,-1.1542,-1.1379,-1.0029,-1.004,-1.065,-1.1253,-1.3194,-1.602,-1.9402,-2.0446,-2.1029,-2.219,-2.32,-2.4374,-2.5585,-2.6126,-2.5928,-2.5644,-2.648,-2.8429,-3.0794,-3.163,-3.1494,-3.1067,-3.064,-2.9969,-2.9464,-2.9469,-2.958,-3.0199,-3.0678,-3.1544,-3.2192,-3.2491,-3.2962,-3.2748,-3.2777,-3.2459,-3.2187,-3.1547,-3.1387,-3.1867,-3.2202,-3.2536,0.9571,0.9056,0.8531,0.8354,0.8354,0.8354,0.8354,0.8354,0.8354,0.8184,0.8184,0.8184,0.8011,0.7837,0.7497,0.7493,0.7837,0.7833,0.7663,0.732,0.7146,0.6795,0.6447,0.5751,0.5401,0.5053,0.3486,0.0523,-0.279,-0.4189,-0.4709,-0.5055,-0.6099,-0.6795,-0.7139,-0.818,-0.8878,-0.9393,-1.0441,-1.1133,-1.1818,-1.2169,-1.2508,-1.2834,-1.2602,-1.2187,-1.1909,-1.1813,-1.1409,-1.0713,-1.0197,-0.9597,-0.8987,-0.8982,-0.8679,-0.8077,-0.747,-0.6858,-0.6402,-0.6706,-0.7158,-0.731,-0.7006,-0.701,-0.7306,-0.7314,-0.7166,-0.7166,-0.7626,-0.838,-0.9133,-0.9576,-0.9274,-0.8371,-0.8224,-0.883,-1.0051,-1.1856,-1.4391,-1.7353,-1.8689,-2.0008,-2.1454,-2.2033,-2.3225,-2.5014,-2.4817,-2.4933,-2.5075,-2.563,-2.6748,-2.8846,-2.9831,-2.9985,-2.9571,-2.8723,-2.8056,-2.8056,-2.8007,-2.8287,-2.8815,-2.9263,-2.9757,-3.0337,-3.088,-3.1516,-3.1716,-3.1625,-3.1457,-3.1211,-3.0583,-3.0085,-3.0261,-3.0598,-3.1081,0.9571,0.9229,0.8705,0.8354,0.8354,0.8354,0.8354,0.8354,0.8354,0.8354,0.8354,0.8354,0.8354,0.8354,0.8014,0.8014,0.8354,0.8354,0.8184,0.7841,0.7671,0.7497,0.7146,0.6444,0.6096,0.6096,0.5406,0.2614,-0.2266,-0.2616,-0.3139,-0.4012,-0.5406,-0.6102,-0.6276,-0.732,-0.8014,-0.8011,-0.9051,-1.0086,-1.0604,-1.1133,-1.1473,-1.1462,-1.1473,-1.125,-1.0932,-1.1077,-1.0531,-0.9597,-0.9133,-0.8683,-0.8224,-0.8068,-0.7917,-0.7314,-0.6399,-0.5791,-0.549,-0.5639,-0.594,-0.6095,-0.5645,-0.5338,-0.5943,-0.6247,-0.6098,-0.5496,-0.5949,-0.6554,-0.7158,-0.7462,-0.7466,-0.7006,-0.6706,-0.7162,-0.8683,-1.0354,-1.2608,-1.5434,-1.6622,-1.7933,-1.937,-2.085,-2.2045,-2.3552,-2.3657,-2.3775,-2.4062,-2.4205,-2.5062,-2.7044,-2.8165,-2.8583,-2.7916,-2.6947,-2.6523,-2.6664,-2.6806,-2.7229,-2.7369,-2.777,-2.8415,-2.9127,-2.9312,-2.9779,-3.0321,-3.0362,-3.0293,-3.0074,-2.9438,-2.9114,-2.9114,-2.8979,-2.9466,0.974,0.9562,0.87,0.8358,0.8354,0.8354,0.8354,0.8354,0.8354,0.8354,0.8354,0.8354,0.835,0.8511,0.8523,0.8527,0.8531,0.8531,0.8358,0.8358,0.7844,0.7671,0.7497,0.7146,0.6621,0.6096,0.6447,0.3832,-0.1568,-0.0697,-0.0872,-0.279,-0.4363,-0.5411,-0.5585,-0.6627,-0.7149,-0.6972,-0.7841,-0.87,-0.9566,-1.009,-0.9917,-0.9735,-1.0076,-1.0208,-0.9837,-0.9767,-0.9569,-0.8996,-0.8073,-0.7466,-0.7314,-0.7314,-0.7162,-0.701,-0.5335,-0.4422,-0.4726,-0.4574,-0.4422,-0.4272,-0.3969,-0.3971,-0.4729,-0.4881,-0.4426,-0.3819,-0.4272,-0.4729,-0.5185,-0.5797,-0.6102,-0.5788,-0.5332,-0.5642,-0.701,-0.8532,-1.0946,-1.3643,-1.4689,-1.5417,-1.6836,-1.9224,-2.1041,-2.2395,-2.266,-2.2611,-2.2755,-2.2755,-2.3905,-2.563,-2.6777,-2.6903,-2.5786,-2.536,-2.536,-2.5516,-2.5658,-2.6084,-2.6098,-2.6297,-2.704,-2.7648,-2.7837,-2.8104,-2.8755,-2.8913,-2.8925,-2.8768,-2.8126,-2.7824,-2.7661,-2.7523,-2.7595,1.0268,0.974,0.9389,0.9047,0.8354,0.8354,0.8354,0.8354,0.8354,0.8354,0.8354,0.8354,0.8634,0.9054,0.9163,0.9393,0.9393,0.9051,0.8882,0.8882,0.8362,0.8184,0.8011,0.7667,0.732,0.6972,0.6795,0.5749,0.4181,0.2788,0.0349,-0.2267,-0.2616,-0.279,-0.3664,-0.5234,-0.6108,-0.6105,-0.7149,-0.7841,-0.8003,-0.766,-0.766,-0.8165,-0.8572,-0.89,-0.931,-0.9314,-0.8791,-0.7938,-0.7617,-0.7166,-0.6409,-0.5794,-0.549,-0.5487,-0.4426,-0.3819,-0.3971,-0.3971,-0.3816,-0.3819,-0.3208,-0.3206,-0.3666,-0.3511,-0.3055,-0.2597,-0.1984,-0.2442,-0.4276,-0.5041,-0.4886,-0.4419,-0.4729,-0.4429,-0.4121,-0.6399,-0.9279,-1.213,-1.303,-1.377,-1.526,-1.7491,-1.9873,-2.1389,-2.1803,-2.1744,-2.1308,-2.2033,-2.3344,-2.5062,-2.5502,-2.5204,-2.3905,-2.3762,-2.3905,-2.4062,-2.4348,-2.4777,-2.4933,-2.4933,-2.5525,-2.628,-2.6486,-2.6799,-2.7231,-2.7174,-2.7124,-2.7058,-2.6698,-2.6462,-2.621,-2.6323,-2.6512,1.0337,1.0005,0.9923,0.9322,0.87,0.8878,0.8874,0.8705,0.8874,0.8836,0.8764,0.9019,0.943,0.999,1.0104,1.0159,1.0159,1.0,0.9705,0.9448,0.9106,0.8974,0.8869,0.8362,0.8018,0.7844,0.7493,0.6795,0.6096,0.5055,0.2963,0.0523,-0.0174,-0.0697,-0.1743,-0.3139,-0.4363,-0.5062,-0.6108,-0.674,-0.6637,-0.6282,-0.6282,-0.7118,-0.7205,-0.7413,-0.7743,-0.7635,-0.7341,-0.6572,-0.6102,-0.5645,-0.5039,-0.4274,-0.3969,-0.3814,-0.3206,-0.275,-0.321,-0.2903,-0.2597,-0.275,-0.1375,-0.1069,-0.2292,-0.1222,-0.0153,0.0305,0.0764,0.0305,-0.1527,-0.3057,-0.3359,-0.2593,-0.3206,-0.321,-0.1833,-0.503,-0.822,-1.0627,-1.1223,-1.1824,-1.3479,-1.4955,-1.7353,-2.0411,-2.0794,-2.0446,-2.0154,-2.1029,-2.2479,-2.3775,-2.3762,-2.3188,-2.2611,-2.2611,-2.2743,-2.29,-2.3331,-2.3631,-2.3918,-2.4049,-2.4205,-2.4803,-2.4915,-2.5023,-2.5584,-2.5427,-2.5311,-2.5203,-2.508,-2.4582,-2.4409,-2.4409,-2.4183,1.0129,1.0331,1.0161,0.9687,0.9326,0.9675,0.9498,0.9335,0.9684,0.9743,0.9707,1.0193,1.0748,1.1033,1.1066,1.1251,1.1245,1.1066,1.071,1.0226,1.0075,0.9856,0.9689,0.9367,0.8865,0.8531,0.8366,0.7486,0.624,0.6596,0.6073,0.4336,0.2601,0.1212,0.0346,-0.0519,-0.1905,-0.3816,-0.4685,-0.5108,-0.5085,-0.507,-0.5399,-0.6222,-0.6037,-0.5967,-0.6021,-0.5826,-0.5752,-0.5183,-0.4241,-0.3483,-0.3332,-0.2716,-0.2268,-0.2288,-0.1375,-0.122,-0.1977,-0.1372,-0.1067,-0.0761,0.1066,0.1527,-0.0,0.1527,0.3361,0.4126,0.3513,0.2749,0.2597,0.0153,-0.0916,-0.0,-0.0915,-0.1375,-0.0611,-0.4115,-0.7613,-0.9118,-0.9113,-0.9566,-1.1223,-1.1792,-1.4038,-1.8494,-1.9034,-1.9129,-1.914,-2.0019,-2.1186,-2.2033,-2.1888,-2.1454,-2.1308,-2.1599,-2.1744,-2.1888,-2.2467,-2.29,-2.2912,-2.3056,-2.32,-2.3488,-2.3407,-2.3427,-2.3729,-2.3658,-2.3545,-2.3587,-2.3136,-2.2548,-2.2101,-2.2011,-2.1634,1.17,1.1245,1.1139,1.0705,1.0095,1.01,1.0095,1.01,1.01,1.0781,1.1711,1.2152,1.2404,1.2534,1.2742,1.2994,1.3148,1.2685,1.2071,1.147,1.0988,1.0291,0.9827,0.9841,0.9587,0.938,0.8705,0.8114,0.7655,0.7139,0.6242,0.4988,0.3982,0.3486,0.2991,0.2156,0.0664,-0.0996,-0.0831,-0.0992,-0.1473,-0.1797,-0.3106,-0.5391,-0.5304,-0.5399,-0.5844,-0.5953,-0.5374,-0.4153,-0.331,-0.2132,-0.1006,-0.0695,-0.0564,-0.0454,0.0611,0.136,0.1034,0.0301,-0.0,0.0446,0.1813,0.2597,0.275,0.3662,0.4729,0.5496,0.4878,0.4274,0.4126,0.3513,0.2901,0.2134,0.2593,0.275,0.168,-0.1829,-0.5177,-0.6544,-0.6999,-0.7757,-0.8962,-0.9384,-1.0875,-1.4532,-1.677,-1.7952,-1.8404,-1.8993,-1.9862,-2.0435,-2.0289,-1.9862,-1.9716,-2.0154,-2.0289,-2.03,-2.0727,-2.1163,-2.1454,-2.1599,-2.1599,-2.2033,-2.2033,-2.2117,-2.2177,-2.1944,-2.1873,-2.1991,-2.1509,-2.1161,-2.129,-2.121,-2.053,1.2674,1.2162,1.2131,1.1864,1.1233,1.1188,1.1233,1.1216,1.1626,1.221,1.2854,1.3011,1.33,1.3765,1.408,1.4472,1.4782,1.4324,1.3781,1.2955,1.2327,1.1676,1.1093,1.078,1.0352,0.9961,0.9294,0.8566,0.7985,0.7649,0.6618,0.5402,0.5072,0.4743,0.4421,0.3759,0.278,0.1637,0.2084,0.2063,0.1587,0.0476,-0.1109,-0.2853,-0.2945,-0.3519,-0.4438,-0.4133,-0.3616,-0.275,-0.1543,-0.0412,0.041,0.1464,0.1631,0.1026,0.1772,0.2483,0.2987,0.1728,0.116,0.1592,0.264,0.3692,0.4725,0.5569,0.6213,0.6728,0.6354,0.5794,0.5493,0.5807,0.5499,0.4262,0.5949,0.6112,0.3662,-0.0,-0.3203,-0.5033,-0.5183,-0.5633,-0.7306,-0.7127,-0.8166,-1.1511,-1.4406,-1.6195,-1.6474,-1.6918,-1.7657,-1.8993,-1.8542,-1.81,-1.8384,-1.8679,-1.914,-1.9287,-1.9423,-1.9716,-2.0143,-1.9997,-2.0154,-2.0435,-2.0446,-2.0446,-2.0446,-2.0154,-2.0117,-2.0239,-1.9802,-1.9576,-1.9794,-1.9725,-1.8944,1.3808,1.338,1.3349,1.3146,1.2836,1.2618,1.2563,1.2512,1.3179,1.351,1.3502,1.3502,1.3806,1.4553,1.5029,1.5507,1.5968,1.602,1.5459,1.4505,1.4065,1.3447,1.2454,1.1986,1.1366,1.0592,1.0101,0.9282,0.813,0.7968,0.7305,0.6156,0.5994,0.5829,0.5185,0.4695,0.4212,0.389,0.4211,0.4124,0.3819,0.2289,0.1067,0.0607,-0.0,-0.0735,-0.1757,-0.1429,-0.1127,-0.0986,0.0691,0.1621,0.1706,0.3534,0.3874,0.2372,0.2242,0.2764,0.3891,0.267,0.2033,0.2395,0.3356,0.4593,0.6025,0.6996,0.7693,0.7971,0.791,0.7302,0.6501,0.7108,0.725,0.6623,0.8444,0.8608,0.5869,0.1818,-0.168,-0.3666,-0.3203,-0.335,-0.487,-0.4708,-0.5454,-0.9405,-1.2615,-1.4303,-1.4107,-1.3636,-1.4524,-1.6779,-1.6631,-1.6334,-1.677,-1.7362,-1.7667,-1.81,-1.81,-1.8247,-1.8689,-1.8542,-1.8552,-1.8836,-1.8836,-1.8983,-1.8836,-1.8542,-1.8572,-1.8434,-1.8169,-1.7863,-1.7902,-1.7763,-1.7428,1.5731,1.574,1.5376,1.5093,1.4635,1.3943,1.3669,1.3784,1.4139,0.0,0.0,1.3555,1.3976,1.4571,1.5277,1.6279,1.7351,1.7221,1.6807,1.5984,1.5535,1.4672,1.3426,1.3277,1.2777,1.1873,1.1066,1.0319,0.9677,0.8884,0.8022,0.7113,0.7098,0.6643,0.5873,0.5096,0.4944,0.5099,0.5211,0.5036,0.4729,0.4272,0.3779,0.3114,0.236,0.1749,0.1284,0.1391,0.1646,0.2193,0.2542,0.3552,0.5231,0.5619,0.4989,0.3181,0.2918,0.2927,0.2881,0.2102,0.2001,0.2251,0.2873,0.4159,0.6465,0.7619,0.8407,0.8993,0.9259,0.9029,0.8194,0.8471,0.8572,0.8318,0.9162,0.9452,0.8184,0.3859,0.0458,-0.0458,-0.0,-0.0152,-0.1521,-0.1367,-0.2732,-0.7605,-1.1272,-1.3244,-1.1542,-0.9566,-0.9857,-1.4084,-1.4689,-1.4406,-1.4697,-1.5136,-1.5723,-1.5714,-1.6011,-1.6465,-1.677,-1.677,-1.6927,-1.7214,-1.7353,-1.7353,-1.7362,-1.7214,-1.7205,-1.7214,-1.6918,-1.6631,-1.6631,-1.6177,-1.5731,1.6751,1.6733,1.6395,1.6026,0.0,1.5311,1.5176,1.5285,1.5185,1.4751,1.4076,1.4076,1.4328,1.4596,1.5769,1.6858,1.8034,1.8151,1.792,1.736,1.7139,1.6282,1.5248,1.4952,1.4122,1.318,1.2559,1.1558,1.0516,1.0056,0.9385,0.8224,0.8073,0.7617,0.671,0.6098,0.5943,0.6095,0.5797,0.549,0.5185,0.5185,0.4976,0.4564,0.3927,0.0,0.0,0.0,0.0,0.0,0.0,0.0,0.0,0.627,0.5419,0.3762,0.3166,0.2403,0.1646,0.1148,0.1106,0.1565,0.2255,0.3205,0.4345,0.7562,0.9591,0.988,1.0626,1.0746,1.0116,1.0332,1.0417,1.0272,1.0737,1.1242,1.0709,0.6786,0.411,0.4569,0.3767,0.2402,0.1368,0.1674,-0.0152,-0.4569,-0.8532,-1.0818,-1.0505,-0.8376,-0.7765,-1.1091,-1.1693,-1.1987,-1.258,-1.3023,-1.3322,-1.377,-1.392,-1.4226,-1.4838,-1.4838,-1.4987,-1.5285,-1.5583,-1.5731,-1.5731,-1.588,-1.6029,-1.602,-1.588,-1.5583,-1.4987,-1.4689,-1.4548,1.7465,1.7566,1.7088,1.6813,1.6793,1.6636,1.6702,1.6971,1.6143,1.5476,1.4816,1.4816,1.4934,1.516,1.6365,1.7519,1.8498,1.8955,1.9032,1.8632,1.8519,1.7982,1.7102,1.6447,1.5583,1.4383,1.3785,1.2887,1.1386,1.1229,1.0633,0.9436,0.9128,0.8523,0.7769,0.0,0.0,0.0,0.6695,0.6257,0.5642,0.5621,0.5541,0.5257,0.499,0.0,0.5147,0.4367,0.379,0.3793,0.4423,0.0,0.0,0.0,0.0,0.0,0.0,0.0,0.0,0.0,0.0,0.0,0.1341,0.1811,0.174,0.6526,0.9871,1.0411,1.1599,1.2263,1.1855,1.2265,1.2353,1.1967,1.2461,1.2991,1.3032,0.9523,0.7506,0.9333,0.708,0.5141,0.4662,0.4388,0.2878,-0.1064,-0.5791,-0.8546,-0.8532,-0.6247,-0.6098,-0.8376,-0.9587,-1.0035,-1.0772,-1.0772,-1.1066,-1.1517,-1.1523,-1.183,-1.2437,-1.2737,-1.2887,-1.3501,-1.38,-1.3942,-1.4092,-1.4383,-1.4689,-1.4681,-1.483,-1.4383,-1.3187,-1.3201,-1.3351,1.8273,1.8672,1.8209,1.8052,1.8124,1.8189,1.8072,1.7842,1.6808,1.6173,1.5663,1.5555,1.5938,1.686,1.7381,1.8228,1.9333,1.9531,1.9478,1.9114,1.9312,1.8811,1.7815,1.7787,1.6937,1.5442,1.4697,1.3942,1.3037,1.2281,1.1536,1.0633,1.0627,1.0029,0.8977,0.8796,0.8699,0.8552,0.7989,0.7314,0.6699,0.6423,0.6135,0.5556,0.5411,0.5269,0.5258,0.5101,0.4961,0.4958,0.4978,0.5099,0.5328,0.3891,0.3116,0.0,0.1259,0.0,0.0,0.0,0.0,0.0,0.0,0.0,0.0,0.3866,0.7398,0.9779,1.1445,1.2518,1.2837,1.3218,1.3319,1.3227,1.4082,1.4043,1.2716,1.1354,1.0116,0.9136,0.8811,0.8878,0.8816,0.7823,0.5808,0.2119,-0.4106,-0.6547,-0.2434,0.0609,-0.0304,-0.6855,-0.8849,-0.8996,-0.8532,-0.8367,-0.8358,-0.866,-0.8967,-0.9274,-1.018,-1.0325,-1.0482,-1.1542,-1.1843,-1.1993,-1.2287,-1.2744,-1.3051,-1.3044,-1.3308,-1.2838,-1.1348,-1.1036,-1.1235,1.9507,1.9616,1.9086,1.8762,1.846,1.8574,1.8366,1.8012,1.7289,1.6695,1.6337,1.625,1.6478,1.6944,1.7542,1.8407,1.9364,2.0001,2.0222,1.9897,2.0442,2.0253,1.9567,1.8967,1.8099,1.6967,1.5972,1.4822,1.3661,1.3095,1.2376,1.1656,1.1223,1.0716,1.0298,1.0039,0.9839,0.9681,0.9195,0.85,0.7749,0.7146,0.6684,0.6244,0.5893,0.5642,0.5623,0.5352,0.5185,0.5116,0.5001,0.4772,0.4277,0.212,0.0665,0.0,0.0,0.0,0.0,0.0,0.0,0.0,0.0,0.0,0.0,0.0,0.5285,0.8066,1.1069,1.269,1.2378,1.3494,1.3991,1.3631,1.4352,1.443,1.3665,1.2418,1.1337,1.0779,1.0705,1.0679,1.0428,1.0188,0.8997,0.5963,0.2233,0.1344,0.5294,0.7458,0.5478,-0.2589,-0.5335,-0.5943,-0.4417,-0.4716,-0.5478,-0.7162,-0.7778,-0.8081,-0.8376,-0.883,-0.9289,-0.9284,-0.9733,-1.0191,-1.0488,-1.094,-1.1398,-1.1355,-1.085,-0.9933,-0.9047,-0.9336,-0.9681,2.0076,2.0014,1.9585,1.9193,1.8743,1.8862,1.8706,1.8359,1.8011,1.7675,1.7327,1.723,1.7145,1.7219,1.803,1.8743,1.9415,2.0252,2.0593,2.0436,2.1179,2.1384,2.1003,2.02,1.9376,1.8449,1.7076,1.5697,1.4311,1.3969,1.3387,1.2532,1.1487,1.0967,1.1095,1.0705,1.0628,1.0558,1.0107,0.9583,0.8712,0.7803,0.722,0.6676,0.6358,0.601,0.5753,0.5451,0.4994,0.4644,0.4522,0.3861,0.2519,0.0195,0.0,0.0,0.0,0.0,0.0,0.0,0.0,0.0,0.0,-0.3948,-0.4091,0.0,0.3007,0.0,1.0223,1.2445,1.1841,1.3273,0.0,0.0,1.4041,1.4132,1.4056,1.3129,1.2597,1.2455,1.2527,1.2328,1.1655,1.2334,1.2115,0.9804,0.8816,0.9047,1.1292,1.2127,0.9467,0.2431,-0.0457,-0.1366,-0.0599,-0.0898,-0.2247,-0.4984,-0.5716,-0.6009,-0.5882,-0.6619,-0.7195,-0.6889,-0.7634,-0.8388,-0.8677,-0.9128,-0.9267,-0.8495,-0.7394,-0.6349,-0.6489,-0.7064,-0.7675,1.9683,1.9711,1.958,1.9246,1.8697,1.9246,1.9485,1.9485,1.935,1.9244,1.9216,1.8777,1.8525,1.8525,1.8946,0.0,1.9599,2.0173,2.036,2.0447,2.1614,2.1946,2.151,2.1231,2.0698,1.9792,1.8114,1.688,1.5769,1.5177,1.4358,1.3251,1.1547,1.068,1.0543,1.0623,1.0703,1.0659,1.0502,1.0192,0.9759,0.8291,0.7354,0.693,0.6506,0.6025,0.5872,0.5353,0.4522,0.35,0.3249,0.1985,-0.0325,0.0,0.0,0.0,0.0,0.0,0.0,0.0,0.0,0.0,0.0,0.0,0.0,0.0,0.0,0.449,0.8738,0.0,1.1344,1.2688,0.0,0.0,0.0,1.2935,1.2517,1.3392,1.3917,1.3831,0.0,0.0,1.3823,1.4605,1.4757,1.3466,1.1781,1.1539,1.3847,1.3026,1.0823,0.6957,0.5188,0.3754,0.2592,0.2426,0.1869,0.0586,-0.1155,-0.2156,-0.1902,-0.2316,-0.2992,-0.3996,-0.5556,-0.6707,-0.7276,-0.6826,-0.611,-0.3683,-0.3104,-0.3097,-0.3364,-0.3922,-0.4766,1.9633,1.9004,1.8768,1.8347,1.781,1.8652,1.9039,1.9055,1.9429,1.9288,1.8808,1.853,1.8175,1.7861,1.8365,0.0,0.0,0.0,2.0346,2.053,2.1742,2.2269,2.2122,2.1949,2.125,2.0192,1.7894,1.6663,1.673,1.481,1.3037,1.1539,0.0,0.9216,0.9465,0.9684,1.0243,1.0877,1.1214,1.112,1.0731,0.9688,0.8623,0.7299,0.6834,0.6223,0.5346,0.4662,0.3543,0.2078,0.0778,-0.1153,0.0,0.0,0.0,0.0,0.0,0.0,0.0,0.0,0.0,0.0,0.0,-0.6459,-0.7354,0.0,0.0,0.0,0.299,0.7317,1.1576,1.213,0.0,0.0,0.0,0.0,0.0,0.0,0.0,1.4996,1.4801,1.4772,1.4908,1.5765,1.6107,1.5565,1.4113,1.36,1.542,0.0,1.216,0.8106,0.6277,0.536,0.5951,0.6352,0.6512,0.601,0.3831,0.2125,0.1861,0.1139,-0.0,-0.1272,-0.2546,-0.3676,-0.3966,-0.2412,-0.064,0.0256,0.0256,-0.0128,-0.0256,-0.1154,-0.2062,1.9052,0.0,0.0,0.0,0.0,1.7806,1.8408,1.8712,1.9296,1.9006,1.8296,1.8071,0.0,0.0,0.0,0.0,0.0,0.0,1.9661,2.006,2.1331,2.2084,2.2214,2.203,2.1421,2.0204,1.7884,1.6888,1.6842,1.3492,1.0934,0.9341,0.0,0.0,0.0,0.0,0.9465,1.0615,1.1434,1.1732,1.1507,1.0985,0.9831,0.8089,0.7126,0.6008,0.4629,0.3512,0.2064,0.0211,-0.1929,0.0,0.0,0.0,0.0,0.0,0.0,0.0,0.0,0.0,0.0,0.0,0.0,0.0,0.0,0.0,0.0,0.0,0.0,0.0,1.0022,1.088,1.1447,0.0,0.0,0.0,0.0,0.0,0.0,0.0,0.0,0.0,1.551,1.5903,1.6303,0.0,0.0,1.5437,1.6692,1.6146,1.4034,0.9332,0.7736,0.0,0.9092,0.9651,1.0073,1.0359,0.8134,0.6185,0.5463,0.4476,0.3376,0.243,0.081,-0.0134,0.0264,0.2093,0.3275,0.3373,0.314,0.2792,0.2677,0.1862,0.0822,0.0,0.0,0.0,0.0,1.5895,0.0,0.0,0.0,1.9057,1.8752,0.0,1.7476,0.0,0.0,0.0,0.0,1.5453,1.6882,0.0,0.0,2.0288,2.123,2.1539,2.1603,2.0981,1.9853,1.8935,1.7643,1.5934,1.1359,0.8293,0.0,0.0,0.0,0.0,0.0,0.8316,0.9577,1.0865,1.1641,1.1959,1.1596,1.0945,0.9759,0.7495,0.5391,0.3491,0.1893,0.0102,-0.1949,-0.4799,0.0,0.0,0.0,0.0,0.0,0.0,0.0,0.0,0.0,0.0,0.0,0.0,0.0,0.0,0.0,0.0,0.0,0.0,0.0,0.0,0.8528,0.0,0.0,0.0,0.0,0.0,0.0,0.0,0.0,0.0,1.5339,1.5434,1.4983,1.5433,1.7573,0.0,0.0,0.0,0.0,1.6628,1.1989,1.0708,1.0837,1.2103,1.1967,1.2118,1.2792,0.0,0.0,0.8281,0.8074,0.7704,0.6852,0.4445,0.3413,0.5086,0.5414,0.5501,0.5613,0.5484,0.5527,0.5548,0.453,0.3578,0.0,0.0,0.0,0.0,0.0,0.0,0.0,0.0,0.0,1.7471,1.6708,1.5795,0.0,0.0,0.0,0.0,0.0,0.0,0.0,0.0,1.8686,1.9536,2.0353,1.9293,1.86,1.8238,1.7293,1.5042,0.0,0.0,0.0,0.0,0.0,0.0,0.0,0.0,0.7324,1.0175,1.087,1.1521,1.2312,1.2216,1.1703,1.0932,0.9033,0.6323,0.2754,0.0715,-0.1266,0.0,0.0,0.0,0.0,0.0,0.0,0.0,0.0,0.0,0.0,0.0,0.0,0.0,0.0,0.0,0.0,0.0,0.0,0.0,0.0,0.0,0.0,0.0,0.6927,0.0,0.0,0.0,0.0,0.0,0.0,0.0,0.0,0.0,1.3715,1.4064,1.4839,1.6653,1.7048,1.7421,1.8325,0.0,0.0,0.0,0.0,0.0,0.0,0.0,1.4591,1.5614,1.4025,1.2414,1.1783,1.0073,0.85,0.7803,0.0,0.0,0.6343,0.6586,0.6506,0.6518,0.6174,0.5791,0.5596,0.4633,0.3581,0.0,0.0,0.0,0.0,0.0,0.0,0.0,0.0,0.0,1.5153,1.4379,0.0,0.0,0.0,0.0,0.0,0.0,0.0,0.0,0.0,0.0,0.0,1.833,1.6829,0.0,0.0,0.0,0.0,0.0,0.0,0.0,0.0,0.0,0.0,0.0,0.0,0.5795,0.9103,1.0066,1.1292,1.2568,1.2488,1.2227,1.1831,1.0062,0.7242,0.3541,0.0,0.0,0.0,0.0,0.0,0.0,0.0,0.0,0.0,0.0,0.0,0.0,0.0,0.0,0.0,0.0,0.0,0.0,0.0,0.0,0.0,0.0,0.0,0.0,0.0,0.4681,0.0,0.0,0.0,0.0,0.0,0.0,0.0,0.0,0.0,0.0,1.3177,1.4076,1.5686,1.6921,1.792,1.8988,1.9348,1.8867,0.0,0.0,0.0,0.0,0.0,0.0,0.0,0.0,0.0,0.0,0.0,0.0,0.0,0.76,0.7085,0.7699,0.7781,0.7649,0.7597,0.0,0.0,0.0,0.0,0.0,0.0,0.0,0.0,0.0,0.0,0.0,0.0,0.0,0.0,0.0,1.1068,0.0,0.0,0.9539,0.0,0.0,0.0,0.0,0.0,0.0,0.0,0.0,0.0,0.0,0.0,0.0,0.0,0.0,0.0,0.0,0.0,0.0,0.0,0.0,0.0,0.0,0.3811,0.6417,0.8562,1.0718,1.2926,1.2646,1.253,1.2448,1.0377,0.7997,0.5554,0.0,0.0,0.0,0.0,0.0,0.0,0.0,0.0,0.0,0.0,0.0,0.0,0.0,0.0,0.0,0.0,0.0,0.0,0.0,0.0,0.0,0.0,0.0,0.0,0.0,0.0,0.4414,0.7545,0.9892,0.0,0.0,0.0,0.0,0.0,0.0,0.0,0.0,0.0,1.4868,1.666,1.8286,1.9402,1.966,1.9589,1.9491,1.8886,1.9121,2.0683,2.0078,1.9283,0.0,0.0,0.0,0.0,0.0,0.0,0.0,0.0,0.0,0.0,0.0,0.0,0.0,0.0,0.0,0.0,0.0,0.0,0.0,0.0,0.0,0.0,0.0,0.0,0.0,0.0,0.0,0.0,0.0,0.0,0.0,0.0,0.0,0.0,0.0,0.0,0.0,0.0,0.0,0.0,0.0,0.0,0.0,0.0,0.0,0.0,0.0,0.0,0.0,0.0,0.0,0.0,0.0,0.0,0.264,0.5024,0.8609,1.1419,1.3222,1.3753,1.3618,1.2831,1.1299,0.9309,0.6705,0.0,0.0,0.0,0.0,0.0,0.0,0.0,0.0,0.0,0.0,0.0,0.0,0.0,0.0,0.0,0.0,0.0,0.0,0.0,0.0,0.0,0.0,0.0,0.0,0.0,0.0,0.0,0.4866,0.7299,0.8833,0.0,0.0,0.0,0.0,0.0,0.0,0.0,0.0,0.0,0.0,1.7536,1.8017,1.968,2.0835,2.0956,2.1117,2.1291,2.1391,2.0845,2.0291,2.013,0.0,0.0,0.0,0.0,0.0,0.0,0.0,0.0,0.0,0.0,0.0,0.0,0.0,0.0,0.0,0.0,0.0,0.0,0.0,0.0,0.0,0.0,0.0,0.0,0.0,0.0,0.0,0.0,0.0,0.0,0.0,0.0,0.0,0.0,0.0,0.0,0.0,0.0,0.0,0.0,0.0,0.0,0.0,0.0,0.0,0.0,0.0,0.0,0.0,0.0,0.0,0.0,0.0,0.2051,0.472,0.8416,1.1367,1.3402,1.4043,1.3789,1.2935,1.1273,0.8957,0.0,0.0,0.0,0.0,0.0,0.0,0.0,0.0,0.0,0.0,0.0,0.0,0.0,0.0,0.0,0.0,0.0,0.0,0.0,0.0,0.0,0.0,0.0,0.0,0.0,0.0,0.0,0.0,0.2932,0.4873,0.6032,0.0,0.0,0.0,0.0,0.0,0.0,0.0,0.0,0.0,0.0,1.7386,1.7984,1.9886,0.0,0.0,2.2332,2.273,2.2673,2.1963,2.1188,2.06,1.8829,0.0,0.0,0.0,0.0,0.0,0.0,0.0,0.0,0.0,0.0,0.0,0.0,0.0,0.0,0.0,0.0,0.0,0.0,0.0,0.0,0.0,0.0,0.0,0.0,0.0,0.0,0.0,0.0,0.0,0.0,0.0,0.0,0.0,0.0,0.0,0.0,0.0,0.0,0.0,0.0,0.0,0.0,0.0,0.0,0.0,0.0,0.0,0.0,0.0,0.0,0.0,0.0,0.183,0.4958,0.8087,1.0972,1.3504,1.3821,1.3616,1.286,1.053,0.7519,0.0,0.0,0.0,0.0,0.0,0.0,0.0,0.0,0.0,0.0,0.0,0.0,0.0,0.0,0.0,0.0,0.0,0.0,0.0,0.0,0.0,0.0,0.0,0.0,0.0,0.0,0.0,0.0,0.0,0.0,0.0,0.0,0.0,0.0,0.0,0.0,0.0,0.0,0.0,0.0,0.0,1.762,1.8724,2.0136,2.1384,0.0,2.2764,2.338,2.3979,2.3088,2.1865,2.0581,0.0,0.0,0.0,0.0,0.0,0.0,0.0,0.0,0.0,0.0,0.0,0.0,0.0,0.0,0.0,0.0,0.0,0.0,0.0,0.0,0.0,0.0,0.0,0.0,0.0,0.0,0.0,0.0,0.0,0.0,0.0,0.0,0.0,0.0,0.0,0.0,0.0,0.0,0.0,0.0,0.0,0.0,0.0,0.0,0.0,0.0,0.0,0.0,0.0,0.0,0.0,0.0,0.0,0.0,0.4476,0.8364,1.163,1.4112,1.4968,1.4912,1.3759,1.2257,0.0,0.0,0.0,0.0,0.0,0.0,0.0,0.0,0.0,0.0,0.0,0.0,0.0,0.0,0.0,0.0,0.0,0.0,0.0,0.0,0.0,0.0,0.0,0.0,0.0,0.0,0.0,-0.1939,0.0,0.0,0.0,0.0,0.0,0.0,0.0,0.0,0.0,0.0,0.0,0.0,0.0,0.0,1.6944,1.9107,1.9769,2.0694,0.0,0.0,2.2757,2.255,2.2121,2.1417,0.0,0.0,0.0,0.0,0.0,0.0,0.0,0.0,0.0,0.0,0.0,0.0,0.0,0.0,0.0,0.0,0.0,0.0,0.0,0.0,0.0,0.0,0.0,0.0,0.0,0.0,0.0,0.0,0.0,0.0,0.0,0.0,0.0,0.0,0.0,0.0,0.0,0.0,0.0,0.0,0.0,0.0,0.0,0.0,0.0,0.0,0.0,0.0,0.0,0.0,0.0,0.0,0.0,0.0,0.1001,0.4085,0.8386,1.1894,1.4335,1.5536,1.5432,1.4103,1.239,0.967,0.0,0.0,0.0,0.0,0.0,0.0,0.0,0.0,0.0,0.0,0.0,0.0,0.0,0.0,0.0,0.0,0.0,0.0,0.0,0.0,0.0,0.0,0.0,0.0,0.0,0.0,0.0,0.0,0.0,0.0,0.0,0.0,0.0,0.0,0.0,0.0,0.0,0.0,0.0,0.0,0.0,0.0,1.7612,1.8357,0.0,0.0,0.0,2.2532,2.1331,0.0,0.0,0.0,0.0,0.0,0.0,0.0,0.0,0.0,0.0,0.0,0.0,0.0,0.0,0.0,0.0,0.0,0.0,0.0,0.0,0.0,0.0,0.0,0.0,0.0,0.0,0.0,0.0,0.0,0.0,0.0,0.0,0.0,0.0,0.0,0.0,0.0,0.0,0.0,0.0,0.0,0.0,0.0,0.0,0.0,0.0,0.0,0.0,0.0,0.0,0.0,0.0,0.0,0.0,0.0,0.0,0.0,0.377,0.8324,1.1925,1.4403,1.5794,1.582,1.4263,1.1836,0.9586,0.0,0.0,0.0,0.0,0.0,0.0,0.0,0.0,0.0,0.0,0.0,0.0,0.0,0.0,0.0,0.0,0.0,0.0,0.0,0.0,0.0,0.0,0.0,0.0,0.0,0.0,0.0,0.0,0.0,0.0,0.0,0.0,0.0,0.0,0.0,0.0,0.0,0.0,0.0,0.0,0.0,1.558,1.529,1.646,1.8103,0.0,0.0,2.1896,2.0082,1.9217,0.0,0.0,0.0,0.0,0.0,0.0,0.0,0.0,0.0,0.0,0.0,0.0,0.0,0.0,0.0,0.0,0.0,0.0,0.0,0.0,0.0,0.0,0.0,0.0,0.0,0.0,0.0,0.0,0.0,0.0,0.0,0.0,0.0,0.0,0.0,0.0,0.0,0.0,0.0,0.0,0.0,0.0,0.0,0.0,0.0,0.0,0.0,0.0,0.0,0.0,0.0,0.0,0.0,0.0,0.0,0.0,0.403,0.8331,1.2009,1.4881,1.6509,1.6489,1.5033,1.2943,0.9991,0.0,0.0,0.0,0.0,0.0,0.0,0.0,0.0,0.0,0.0,0.0,0.0,0.0,0.0,0.0,0.0,0.0,0.0,0.0,0.0,0.0,0.0,0.0,0.0,0.0,0.0,0.0,0.0,0.0,0.0,0.0,0.0,0.0,0.0,0.0,0.0,0.0,0.0,0.0,0.0,0.0,1.443,1.4798,1.5717,0.0,0.0,0.0,0.0,1.8596,1.7489,0.0,0.0,0.0,0.0,0.0,0.0,0.0,0.0,0.0,0.0,0.0,0.0,0.0,0.0,0.0,0.0,0.0,0.0,0.0,0.0,0.0,0.0,0.0,0.0,0.0,0.0,0.0,0.0,0.0,0.0,0.0,0.0,0.0,0.0,0.0,0.0,0.0,0.0,0.0,0.0,0.0,0.0,0.0,0.0,0.0,0.0,0.0,0.0,0.0,0.0,0.0,0.0,0.0,0.0,0.0,0.0,0.3837,0.7947,1.1739,1.5198,1.6668,1.682,1.5691,1.3672,1.0618,0.0,0.0,0.0,0.0,0.0,0.0,0.0,0.0,0.0,0.0,0.0,0.0,0.0,0.0,0.0,0.0,0.0,0.0,0.0,0.0,0.0,0.0,0.0,0.0,0.0,0.0,0.0,0.0,0.0,0.0,0.0,0.0,0.0,0.0,0.0,0.0,0.0,0.0,0.0,0.0,1.2488,1.2589,1.262,0.0,0.0,0.0,0.0,0.0,0.0,1.4656,1.3477,0.0,0.0,0.0,0.0,0.0,0.0,0.0,0.0,0.0,0.0,0.0,0.0,0.0,0.0,0.0,0.0,0.0,0.0,0.0,0.0,0.0,0.0,0.0,0.0,0.0,0.0,0.0,0.0,0.0,0.0,0.0,0.0,0.0,0.0,0.0,0.0,0.0,0.0,0.0,0.0,0.0,0.0,0.0,0.0,0.0,0.0,0.0,0.0,0.0,0.0,0.0,0.0,0.0,0.0,0.0,0.352,0.7567,1.1446,1.5174,1.6634,1.7014,1.6204,1.4182,1.1301,0.7823,0.0,0.0,0.0,0.0,0.0,0.0,0.0,0.0,0.0,0.0,0.0,0.0,0.0,0.0,0.0,0.0,0.0,0.0,0.0,0.0,0.0,0.0,0.0,0.0,0.0,0.0,0.0,0.0,0.0,0.0,0.0,0.0,0.0,0.0,0.0,0.0,0.0,0.0,0.0,1.1134,1.0732,0.0,0.0,0.0,0.0,0.0,0.0,0.0,0.0,1.0701,0.0,0.0,0.0,0.0,0.0,0.0,0.0,0.0,0.0,0.0,0.0,0.0,0.0,0.0,0.0,0.0,0.0,0.0,0.0,0.0,0.0,0.0,0.0,0.0,0.0,0.0,0.0,0.0,0.0,0.0,0.0,0.0,0.0,0.0,0.0,0.0,0.0,0.0,0.0,0.0,0.0,0.0,0.0,0.0,0.0,0.0,0.0,0.0,0.0,0.0,0.0,0.0,0.0,0.0,0.0,0.0,0.7192,1.0924,1.4757,1.6554,1.7046,1.6194,1.4636,1.2179,0.8851,0.0,0.0,0.0,0.0,0.0,0.0,0.0,0.0,0.0,0.0,0.0,0.0,0.0,0.0,0.0,0.0,0.0,0.0,0.0,0.0,0.0,0.0,0.0,0.0,0.0,0.0,0.0,0.0,0.0,0.0,0.0,0.0,0.0,0.0,0.0,0.0,0.0,0.0,0.6682,0.8685,0.0,0.0,0.0,0.0,0.0,0.0,0.0,0.0,1.0692,0.0,0.0,0.0,0.0,0.0,0.0,0.0,0.0,0.0,0.0,0.0,0.0,0.0,0.0,0.0,0.0,0.0,0.0,0.0,0.0,0.0,0.0,0.0,0.0,0.0,0.0,0.0,0.0,0.0,0.0,0.0,0.0,0.0,0.0,0.0,0.0,0.0,0.0,0.0,0.0,0.0,0.0,0.0,0.0,0.0,0.0,0.0,0.0,0.0,0.0,0.0,0.0,0.0,0.0,0.0,0.0,0.0,0.0,1.1282,1.3568,1.5615,1.6333,1.5846,1.3996,1.1318,0.0,0.0,0.0,0.0,0.0,0.0,0.0,0.0,0.0,0.0,0.0,0.0,0.0,0.0,0.0,0.0,0.0,0.0,0.0,0.0,0.0,0.0,0.0,0.0,0.0,0.0,0.0,0.0,0.0,0.0,0.0,0.0,0.0,0.0,0.0,0.0,0.0,0.0,0.0,0.0,0.0,0.0,0.0,0.0,0.0,0.0,0.0,0.0,0.0,0.0,0.0,0.0,0.0,0.0,0.0,0.0,0.0,0.0,0.0,0.0,0.0,0.0,0.0,0.0,0.0,0.0,0.0,0.0,0.0,0.0,0.0,0.0,0.0,0.0,0.0,0.0,0.0,0.0,0.0,0.0,0.0,0.0,0.0,0.0,0.0,0.0,0.0,0.0,0.0,0.0,0.0,0.0,0.0,0.0,0.0,0.0,0.0,0.0,0.0,0.0,0.0,0.0,0.0,0.0,0.0,0.0,0.0,0.0,1.0804,1.2298,1.426,1.5143,1.5117,1.2539,0.9855,0.0,0.0,0.0,0.0,0.0,0.0,0.0,0.0,0.0,0.0,0.0,0.0,0.0,0.0,0.0,0.0,0.0,0.0,0.0,0.0,0.0,0.0,0.0,0.0,0.0,0.0,0.0,0.0,0.0,0.0,0.0,0.0,0.0,0.0,0.0,0.0,0.0,0.0,0.0,0.0,0.0,0.0,0.0,0.0,0.0,0.0,0.0,0.0,0.8202,0.0,0.0,0.0,0.0,0.0,0.0,0.0,0.0,0.0,0.0,0.0,0.0,0.0,0.0,0.0,0.0,0.0,0.0,0.0,0.0,0.0,0.0,0.0,0.0,0.0,0.0,0.0,0.0,0.0,0.0,0.0,0.0,0.0,0.0,0.0,0.0,0.0,0.0,0.0,0.0,0.0,0.0,0.0,0.0,0.0,0.0,0.0,0.0,0.0,0.0,0.0,0.0,0.0,0.0,0.0,0.0,0.0,0.0,0.0,0.8398,1.1356,1.2871,1.3685,1.3565,1.0352,0.8029,0.0,0.0,0.0,0.0,0.0,0.0,0.0,0.0,0.0,0.0,0.0,0.0,0.0,0.0,0.0,0.0,0.0,0.0,0.0,0.0,0.0,0.0,0.0,0.0,0.0,0.0,0.0,0.0,0.0,0.0,0.0,0.0,0.0,0.0,0.0,0.0,0.0,0.0,0.0,0.0,0.0,0.0,0.0,0.0,0.0,0.0,0.0,0.0,0.0,0.0,0.0,0.0,0.0,0.0,0.0,0.0,0.0,0.0,0.0,0.0,0.0,0.0,0.0,0.0,0.0,0.0,0.0,0.0,0.0,0.0,0.0,0.0,0.0,0.0,0.0,0.0,0.0,0.0,0.0,0.0,0.0,0.0,0.0,0.0,0.0,0.0,0.0,0.0,0.0,0.0,0.0,0.0,0.0,0.0,0.0,0.0,0.0,0.0,0.0,0.0,0.0,0.0,0.0,0.0,0.0,0.0,0.0,0.0,0.8116,0.9347,1.1168,1.1462,1.0165,0.8348,0.6627,0.0,0.0,0.0,0.0,0.0,0.0,0.0,0.0,0.0,0.0,0.0,0.0,0.0,0.0,0.0,0.0,0.0,0.0,0.0,0.0,0.0,0.0,0.0,0.0,0.0,0.0,0.0,0.0,0.0,0.0,0.0,0.0,0.0,0.0,0.0,0.0,0.0,0.0,0.0,0.0,0.0,0.0,0.0,0.0,0.0,0.0,0.0,0.0,0.0,0.0,0.0,0.0,0.0,0.0,0.0,0.0,0.0,0.0,0.0,0.0,0.0,0.0,0.0,0.0,0.0,0.0,0.0,0.0,0.0,0.0,0.0,0.0,0.0,0.0,0.0,0.0,0.0,0.0,0.0,0.0,0.0,0.0,0.0,0.0,0.0,0.0,0.0,0.0,0.0,0.0,0.0,0.0,0.0,0.0,0.0,0.0,0.0,0.0,0.0,0.0,0.0,0.0,0.0,0.0,0.0,0.0,0.0,0.0,0.0,0.7782,0.901,0.8858,0.7154,0.6311,0.508,0.0,0.0,0.0,0.0,0.0,0.0,0.0,0.0,0.0,0.0,0.0,0.0,0.0,0.0,0.0,0.0,0.0,0.0,0.0,0.0,0.0,0.0,0.0,0.0,0.0,0.0,0.0,0.0,0.0,0.0,0.0,0.0,0.0,0.0,0.0,0.0,0.0,0.0,0.0,0.0,0.0,0.0,0.0,0.0,0.0,0.0,0.0,0.0,0.0,0.0,0.0,0.0,0.0,0.0,0.0,0.0,0.0,0.0,0.0,0.0,0.0,0.0,0.0,0.0,0.0,0.0,0.0,0.0,0.0,0.0,0.0,0.0,0.0,0.0,0.0,0.0,0.0,0.0,0.0,0.0,0.0,0.0,0.0,0.0,0.0,0.0,0.0,0.0,0.0,0.0,0.0,0.0,0.0,0.0,0.0,0.0,0.0,0.0,0.0,0.0,0.0,0.0,0.0,0.0,0.0,0.0,0.0,0.0,0.0,0.7247,0.6395,0.5693,0.5249,0.4245,0.3209,0.0,0.0,0.0,0.0,0.0,0.0,0.0,0.0,0.0,0.0,0.0,0.0,0.0,0.0,0.0,0.0,0.0,0.0,0.0,0.0,0.0,0.0,0.0,0.0,0.0,0.0,0.0,0.0,0.0,0.0,0.0,0.0,0.0,0.0,0.0,0.0,0.0,0.0,0.0,0.0,0.0,0.0,0.0,0.0,0.0,0.0,0.0,0.0,0.0,0.0,0.0,0.0,0.0,0.0,0.0,0.0,0.0,0.0,0.0,0.0,0.0,0.0,0.0,0.0,0.0,0.0,0.0,0.0,0.0,0.0,0.0,0.0,0.0,0.0,0.0,0.0,0.0,0.0,0.0,0.0,0.0,0.0,0.0,0.0,0.0,0.0,0.0,0.0,0.0,0.0,0.0,0.0,0.0,0.0,0.0,0.0,0.0,0.0,0.0,0.0,0.0,0.0,0.0,0.0,0.0,0.0,0.0,0.0,0.0,0.4859,0.4743,0.447,0.3954,0.3171,0.2181,0.0981,0.0,0.0,0.0,0.0,0.0,0.0,0.0,0.0,0.0,0.0,0.0,0.0,0.0,0.0,0.0,0.0,0.0,0.0,0.0,0.0,0.0,0.0,0.0,0.0,0.0,0.0,0.0,0.0,0.0,0.0,0.0,0.0,0.0,0.0,0.0,0.0,0.0,0.0,0.0,0.0,0.0,0.0,0.0,0.0,0.0,0.0,0.0,0.0,0.0,0.0,0.0,0.0,0.0,0.0,0.0,0.0,0.0,0.0,0.0,0.0,0.0,0.0,0.0,0.0,0.0,0.0,0.0,0.0,0.0,0.0,0.0,0.0,0.0,0.0,0.0,0.0,0.0,0.0,0.0,0.0,0.0,0.0,0.0,0.0,0.0,0.0,0.0,0.0,0.0,0.0,0.0,0.0,0.0,0.0,0.0,0.0,0.0,0.0,0.0,0.0,0.0,0.0,0.0,0.0,0.0,0.0,0.0,0.0,0.3164,0.3485,0.3397,0.2861,0.2209,0.1243,0.0,0.0,0.0,0.0,0.0,0.0,0.0,0.0,0.0,0.0,0.0,0.0,0.0,0.0,0.0,0.0,0.0,0.0,0.0,0.0,0.0,0.0,0.0,0.0,0.0,0.0,0.0,0.0,0.0,0.0,0.0,0.0,0.0,0.0,0.0,0.0,0.0,0.0,0.0,0.0,0.0,0.0,0.0,0.0,0.0,0.0,0.0,0.0,0.0,0.0,0.0,0.0,0.0,0.0,0.0,0.0,0.0,0.0,0.0,0.0,0.0,0.0,0.0,0.0,0.0,0.0,0.0,0.0,0.0,0.0,0.0,0.0,0.0,0.0,0.0,0.0,0.0,0.0,0.0,0.0,0.0,0.0,0.0,0.0,0.0,0.0,0.0,0.0,0.0,0.0,0.0,0.0,0.0,0.0,0.0,0.0,0.0,0.0,0.0,0.0,0.0,0.0,0.0,0.0,0.0,0.0,0.0,0.0,0.2048,0.2533,0.271,0.2535,0.195,0.1218,0.0297,0.0,0.0,0.0,0.0,0.0,0.0,0.0,0.0,0.0,0.0,0.0,0.0,0.0,0.0,0.0,0.0,0.0,0.0,0.0,0.0,0.0,0.0,0.0,0.0,0.0,0.0,0.0,0.0,0.0,0.0,0.0,0.0,0.0,0.0,0.0,0.0,0.0,0.0,0.0,0.0,0.0,0.0,0.0,0.0,0.0,0.0,0.0,0.0,0.0,0.0,0.0,0.0,0.0,0.0,0.0,0.0,0.0,0.0,0.0,0.0,0.0,0.0,0.0,0.0,0.0,0.0,0.0,0.0,0.0,0.0,0.0,0.0,0.0,0.0,0.0,0.0,0.0,0.0,0.0,0.0,0.0,0.0,0.0,0.0,0.0,0.0,0.0,0.0,0.0,0.0,0.0,0.0,0.0,0.0,0.0,0.0,0.0,0.0,0.0,0.0,0.0,0.0,0.0,0.0,0.0,0.0,0.0,0.0,0.0,0.225,0.0,0.217,0.1774,0.0815,-0.0246,0.0,0.0,0.0,0.0,0.0,0.0,0.0,0.0,0.0,0.0,0.0,0.0,0.0,0.0,0.0,0.0,0.0,0.0,0.0,0.0,0.0,0.0,0.0,0.0,0.0,0.0,0.0,0.0,0.0,0.0,0.0,0.0,0.0,0.0,0.0,0.0,0.0,0.0,0.0,0.0,0.0,0.0,0.0,0.0,0.0,0.0,0.0,0.0,0.0,0.0,0.0,0.0,0.0,0.0,0.0,0.0,0.0,0.0,0.0,0.0,0.0,0.0,0.0,0.0,0.0,0.0,0.0,0.0,0.0,0.0,0.0,0.0,0.0,0.0,0.0,0.0,0.0,0.0,0.0,0.0,0.0,0.0,0.0,0.0,0.0,0.0,0.0,0.0,0.0,0.0,0.0,0.0,0.0,0.0,0.0,0.0,0.0,0.0,0.0,0.0,0.0,0.0,0.0,0.0,0.0,0.0,0.0,0.0,0.0,0.1985,0.196,0.1772,0.1385,0.04,-0.0583,0.0,0.0,0.0,0.0,0.0,0.0,0.0,0.0,0.0,0.0,0.0,0.0,0.0,0.0,0.0,0.0,0.0,0.0,0.0,0.0,0.0,0.0,0.0,0.0,0.0,0.0,0.0,0.0,0.0,0.0,0.0,0.0,0.0,0.0,0.0,0.0,0.0,0.0,0.0,0.0,0.0,0.0,0.0,0.0,0.0,0.0,0.0,0.0,0.0,0.0,0.0,0.0,0.0,0.0,0.0,0.0,0.0,0.0,0.0,0.0,0.0,0.0,0.0,0.0,0.0,0.0,0.0,0.0,0.0,0.0,0.0,0.0,0.0,0.0,0.0,0.0,0.0,0.0,0.0,0.0,0.0,0.0,0.0,0.0,0.0,0.0,0.0,0.0,0.0,0.0,0.0,0.0,0.0,0.0,0.0,0.0,0.0,0.0,0.0,0.0,0.0,0.0,0.0,0.0,0.0,0.0,0.0,0.0,0.0,0.1772,0.1601,0.1279,0.0826,-0.0,-0.0769,0.0,0.0,0.0,0.0,0.0,0.0,0.0,0.0,0.0,0.0,0.0,0.0,0.0,0.0,0.0,0.0,0.0,0.0,0.0,0.0,0.0,0.0,0.0,0.0,0.0,0.0,0.0,0.0,0.0,0.0,0.0,0.0,0.0,0.0,0.0,0.0,0.0,0.0,0.0,0.0,0.0,0.0,0.0,0.0,0.0,0.0,0.0,0.0,0.0,0.0,0.0,0.0,0.0,0.0,0.0,0.0,0.0,0.0,0.0,0.0,0.0,0.0,0.0,0.0,0.0,0.0,0.0,0.0,0.0,0.0,0.0,0.0,0.0,0.0,0.0,0.0,0.0,0.0,0.0,0.0,0.0,0.0,0.0,0.0,0.0,0.0,0.0,0.0,0.0,0.0,0.0,0.0,0.0,0.0,0.0,0.0,0.0,0.0,0.0,0.0,0.0,0.0,0.0,0.0,0.0,0.0,0.0,0.0,0.0,0.0,0.1308,0.096,0.0913,-0.0128,-0.0903,-0.1415,0.0,0.0,0.0,0.0,0.0,0.0,0.0,0.0,0.0,0.0,0.0,0.0,0.0,0.0,0.0,0.0,0.0,0.0,0.0,0.0,0.0,0.0,0.0,0.0,0.0,0.0,0.0,0.0,0.0,0.0,0.0,0.0,0.0,0.0,0.0,0.0,0.0,0.0,0.0,0.0,0.0,0.0,0.0,0.0,0.0,0.0,0.0,0.0,0.0,0.0,0.0,0.0,0.0,0.0,0.0,0.0,0.0,0.0,0.0,0.0,0.0,0.0,0.0,0.0,0.0,0.0,0.0,0.0,0.0,0.0,0.0,0.0,0.0,0.0,0.0,0.0,0.0,0.0,0.0,0.0,0.0,0.0,0.0,0.0,0.0,0.0,0.0,0.0,0.0,0.0,0.0,0.0,0.0,0.0,0.0,0.0,0.0,0.0,0.0,0.0,0.0,0.0,0.0,0.0,0.0,0.0,0.0,0.0,0.0,0.0,0.0373,0.0218,-0.0566,-0.1164,0.0,0.0,0.0,0.0,0.0,0.0,0.0,0.0,0.0,0.0,0.0,0.0,0.0,0.0,0.0,0.0,0.0,0.0,0.0,0.0,0.0,0.0,0.0,0.0,0.0,0.0,0.0,0.0,0.0,0.0,0.0,0.0,0.0,0.0,0.0,0.0,0.0,0.0,0.0,0.0,0.0,0.0,0.0,0.0,0.0,0.0,0.0,0.0,0.0,0.0,0.0,0.0,0.0,0.0,0.0,0.0,0.0,0.0,0.0,0.0,0.0,0.0,0.0,0.0,0.0,0.0,0.0,0.0,0.0,0.0,0.0,0.0,0.0,0.0,0.0,0.0,0.0,0.0,0.0,0.0,0.0,0.0,0.0,0.0,0.0,0.0,0.0,0.0,0.0,0.0,0.0,0.0,0.0,0.0,0.0,0.0,0.0,0.0,0.0,0.0,0.0,0.0,0.0,0.0,0.0,0.0,0.0,0.0,0.0,0.0,0.0,-0.0393,-0.1047,-0.1251,0.0,-0.1754,0.0,0.0,0.0,0.0,0.0,0.0,0.0,0.0,0.0,0.0,0.0,0.0,0.0,0.0,0.0,0.0,0.0,0.0,0.0,0.0,0.0,0.0,0.0,0.0,0.0,0.0,0.0,0.0,0.0,0.0,0.0,0.0,0.0,0.0,0.0,0.0,0.0,0.0,0.0,0.0,0.0,0.0,0.0,0.0,0.0,0.0,0.0,0.0,0.0,0.0,0.0,0.0,0.0,0.0,0.0,0.0,0.0,0.0,0.0,0.0,0.0,0.0,0.0,0.0,0.0,0.0,0.0,0.0,0.0,0.0,0.0,0.0,0.0,0.0,0.0,0.0,0.0,0.0,0.0,0.0,0.0,0.0,0.0,0.0,0.0,0.0,0.0,0.0,0.0,0.0,0.0,0.0,0.0,0.0,0.0,0.0,0.0,0.0,0.0,0.0,0.0,0.0,0.0,0.0,0.0,0.0,0.0,0.0,0.0,0.0,0.0,0.0,-0.1669,-0.1765,-0.2018,0.0,0.0,0.0,0.0,0.0,0.0,0.0,0.0,0.0,0.0,0.0,0.0,0.0,0.0,0.0,0.0,0.0,0.0,0.0,0.0,0.0,0.0,0.0,0.0,0.0,0.0,0.0,0.0,0.0,0.0,0.0,0.0,0.0,0.0,0.0,0.0,0.0,0.0,0.0,0.0,0.0,0.0,0.0,0.0,0.0,0.0,0.0,0.0,0.0,0.0,0.0,0.0,0.0,0.0,0.0,0.0,0.0,0.0,0.0,0.0,0.0,0.0,0.0,0.0,0.0,0.0,0.0,0.0,0.0,0.0,0.0,0.0,0.0,0.0,0.0,0.0,0.0,0.0,0.0,0.0,0.0,0.0,0.0,0.0,0.0,0.0,0.0,0.0,0.0,0.0,0.0,0.0,0.0,0.0,0.0,0.0,0.0,0.0,0.0,0.0,0.0,0.0,0.0,0.0,0.0,0.0,0.0,0.0,0.0,0.0,-0.192,-0.2173,-0.2295,-0.2299,-0.2232,0.0,0.0,0.0,0.0,0.0,0.0,0.0,0.0,0.0,0.0,0.0,0.0,0.0,0.0,0.0,0.0,0.0,0.0,0.0,0.0,0.0,0.0,0.0,0.0,0.0,0.0,0.0,0.0,0.0,0.0,0.0,0.0,0.0,0.0,0.0,0.0,0.0,0.0,0.0,0.0,0.0,0.0,0.0,0.0,0.0,0.0,0.0,0.0,0.0,0.0,0.0,0.0,0.0,0.0,0.0,0.0,0.0,0.0,0.0,0.0,0.0,0.0,0.0,0.0,0.0,0.0,0.0,0.0,0.0,0.0,0.0,0.0,0.0,0.0,0.0,0.0,0.0,0.0,0.0,0.0,0.0,0.0,0.0,0.0,0.0,0.0,0.0,0.0,0.0,0.0,0.0,0.0,0.0,0.0,0.0,0.0,0.0,0.0,0.0,0.0,0.0,0.0,0.0,0.0,0.0,0.0,0.0,0.0,0.0,0.0,0.0,0.0,0.0,0.0,-0.2482,0.0,0.0,0.0,0.0,0.0,0.0,0.0,0.0,0.0,0.0,0.0,0.0,0.0,0.0,0.0,0.0,0.0,0.0,0.0,0.0,0.0,0.0,0.0,0.0,0.0,0.0,0.0,0.0,0.0,0.0,0.0,0.0,0.0,0.0,0.0,0.0,0.0,0.0,0.0,0.0,0.0,0.0,0.0,0.0,0.0,0.0,0.0,0.0,0.0,0.0,0.0,0.0,0.0,0.0,0.0,0.0,0.0,0.0,0.0,0.0,0.0,0.0,0.0,0.0,0.0,0.0,0.0,0.0,0.0,0.0,0.0,0.0,0.0,0.0,0.0,0.0,0.0,0.0,0.0,0.0,0.0,0.0,0.0,0.0,0.0,0.0,0.0,0.0,0.0,0.0,0.0,0.0,0.0,0.0,0.0,0.0,0.0,0.0,0.0,0.0,0.0,0.0,0.0,0.0,0.0,0.0,0.0,0.0,0.0,0.0,0.0,0.0,0.0,0.0,0.0,0.0,0.0,0.0,0.0,0.0,0.0,0.0,0.0,0.0,0.0,0.0,0.0,0.0,0.0,0.0,0.0,0.0,0.0,0.0,0.0,0.0,0.0,0.0,0.0,0.0,0.0,0.0,0.0,0.0,0.0,0.0,0.0,0.0,0.0,0.0,0.0,0.0,0.0,0.0,0.0,0.0,0.0,0.0,0.0,0.0,0.0,0.0,0.0,0.0,0.0,0.0,0.0,0.0,0.0,0.0,0.0,0.0,0.0,0.0,0.0,0.0,0.0,0.0,0.0,0.0,0.0,0.0,0.0,0.0,0.0,0.0,0.0,0.0,0.0,0.0,0.0,0.0,0.0,0.0,0.0,0.0,0.0,0.0,0.0,0.0,0.0,0.0,0.0,0.0,0.0,0.0,0.0,0.0,0.0,0.0,0.0,0.0,0.0,0.0,0.0,0.0,0.0,0.0,0.0,0.0,0.0,0.0,0.0,0.0,0.0,0.0,0.0,0.0,0.0,0.0,0.0,0.0,0.0,0.0,0.0,0.0,0.0,0.0,0.0,0.0,0.0,0.0,0.0,0.0,0.0,0.0,0.0,0.0,0.0,0.0,0.0,0.0,0.0,0.0,0.0,0.0,0.0,0.0,0.0,0.0,0.0,0.0,0.0,0.0,0.0,0.0,0.0,0.0,0.0,0.0,0.0,0.0,0.0,0.0,0.0,0.0,0.0,0.0,0.0,0.0,0.0,0.0,0.0,0.0,0.0,0.0,0.0,0.0,0.0,0.0,0.0,0.0,0.0,0.0,0.0,0.0,0.0,0.0,0.0,0.0,0.0,0.0,0.0,0.0,0.0,0.0,0.0,0.0,0.0,0.0,0.0,0.0,0.0,0.0,0.0,0.0,0.0,0.0,0.0,0.0,0.0,0.0,0.0,0.0,0.0,0.0,0.0,0.0,0.0,0.0,0.0,0.0,0.0,0.0,0.0,0.0,0.0,0.0,0.0,0.0,0.0,0.0,0.0,0.0,0.0,0.0,0.0,0.0,0.0,0.0,0.0,0.0,0.0,0.0,0.0,0.0,0.0,0.0,0.0,0.0,0.0,0.0,0.0,0.0,0.0,0.0,0.0,0.0,0.0,0.0,0.0,0.0,0.0,0.0,0.0,0.0,0.0,0.0,0.0,0.0,0.0,0.0,0.0,0.0,0.0,0.0,0.0,0.0,0.0,0.0,0.0,0.0,0.0,0.0,0.0,0.0,0.0,0.0,0.0,0.0,0.0,0.0,0.0,0.0,0.0,0.0,0.0,0.0,0.0,0.0,0.0,0.0,0.0,0.0,0.0,0.0,0.0,0.0,0.0,0.0,0.0,0.0,0.0,0.0,0.0,0.0,0.0,0.0,0.0,0.0,0.0,0.0,0.0,0.0,0.0,0.0,0.0,0.0,0.0,0.0,0.0,0.0,0.0,0.0,0.0,0.0,0.0,0.0,0.0,0.0,0.0,0.0,0.0,0.0,0.0,0.0,0.0,0.0,0.0,0.0,0.0,0.0,0.0,0.0,0.0,0.0,0.0,0.0,0.0,0.0,0.0,0.0,0.0,0.0,0.0,0.0,0.0,0.0,0.0,0.0,0.0,0.0,0.0,0.0,0.0,0.0,0.0,0.0,0.0,0.0,0.0,0.0,0.0,0.0,0.0,0.0,0.0,0.0,0.0,0.0,0.0,0.0,0.0,0.0,0.0,0.0,0.0,0.0,0.0,0.0,0.0,0.0,0.0,0.0,0.0,0.0,0.0,0.0,0.0,0.0,0.0,0.0,0.0,0.0,0.0,0.0,0.0,0.0,0.0,0.0,0.0,0.0,0.0,0.0,0.0,0.0,0.0,0.0,0.0,0.0,0.0,0.0,0.0,0.0,0.0,0.0,0.0,0.0,0.0,0.0,0.0,0.0,0.0,0.0,0.0,0.0,0.0,0.0,0.0,0.0,0.0,0.0,0.0,0.0,0.0,0.0,0.0,0.0,0.0,0.0,0.0,0.0,0.0,0.0,0.0,0.0,0.0,0.0,0.0,0.0,0.0,0.0,0.0,0.0,0.0,0.0,0.0,0.0,0.0,0.0,0.0,0.0,0.0,0.0,0.0,0.0,0.0,0.0,0.0,0.0,0.0,0.0,0.0,0.0,0.0,0.0,0.0,0.0,0.0,0.0,0.0,0.0,0.0,0.0,0.0,0.0,0.0,0.0,0.0,0.0,0.0,0.0,0.0,0.0,0.0,0.0,0.0,0.0,0.0,0.0,0.0,0.0,0.0,0.0,0.0,0.0,0.0,0.0,0.0,0.0,0.0,0.0,0.0,0.0,0.0,0.0,0.0,0.0,0.0,0.0,0.0,0.0,0.0,0.0,0.0,0.0,0.0,0.0,0.0,0.0,0.0,0.0,0.0,0.0,0.0,0.0,0.0,0.0,0.0,0.0,0.0,0.0,0.0,0.0,0.0,0.0,0.0,0.0,0.0,0.0,0.0,0.0,0.0,0.0,0.0,0.0,0.0,0.0,0.0,0.0,0.0,0.0,0.0,0.0,0.0,0.0,0.0,0.0,0.0,0.0,0.0,0.0,0.0,0.0,0.0,0.0,0.0,0.0,0.0,0.0,0.0,0.0,0.0,0.0,0.0,0.0,0.0,0.0,0.0,0.0,0.0,0.0,0.0,0.0,0.0,0.0,0.0,0.0,0.0,0.0,0.0,0.0,0.0,0.0,0.0,0.0,0.0,0.0,0.0,0.0,0.0,0.0,0.0,0.0,0.0,0.0,0.0,0.0,0.0,0.0,0.0,0.0,0.0,0.0,0.0,0.0,0.0,0.0,0.0,0.0,0.0,0.0,0.0,0.0,0.0,0.0,0.0,0.0,0.0,0.0,0.0,0.0,0.0,0.0,0.0,0.0,0.0,0.0,0.0,0.0,0.0,0.0,0.0,0.0,0.0,0.0,0.0,0.0,0.0,0.0,0.0,0.0,0.0,0.0,0.0,0.0,0.0,0.0,0.0,0.0,0.0,0.0,0.0,0.0,0.0,0.0,0.0,0.0,0.0,0.0,0.0,0.0,0.0,0.0,0.0,0.0,0.0,0.0,0.0,0.0,0.0,0.0,0.0,0.0,0.0,0.0,0.0,0.0,0.0,0.0,0.0,0.0,0.0,0.0,0.0,0.0,0.0,0.0,0.0,0.0,0.0,0.0,0.0,0.0,0.0,0.0,0.0,0.0,0.0,0.0,0.0,0.0,0.0,0.0,0.0,0.0,0.0,0.0,0.0,0.0,0.0,0.0,0.0,0.0,0.0,0.0,0.0,0.0,0.0,0.0,0.0,0.0,0.0,0.0,0.0,0.0,0.0,0.0,0.0,0.0,0.0,0.0,0.0,0.0,0.0,0.0,0.0,0.0,0.0,0.0,0.0,0.0,0.0,0.0,0.0,0.0,0.0,0.0,0.0,0.0,0.0,0.0,0.0,0.0,0.0,0.0,0.0,0.0,0.0,0.0,0.0,0.0,0.0,0.0,0.0,0.0,0.0,0.0,0.0,0.0,0.0,0.0,0.0,0.0,0.0,0.0,0.0,0.0,0.0,0.0,0.0,0.0,0.0,0.0,0.0,0.0,0.0,0.0,0.0,0.0,0.0,0.0,0.0,0.0,0.0,0.0,0.0,0.0,0.0,0.0,0.0,0.0,0.0,0.0,0.0,0.0,0.0,0.0,0.0,0.0,0.0,0.0,0.0,0.0,0.0,0.0,0.0,0.0,0.0,0.0,0.0,0.0,0.0,0.0,0.0,0.0,0.0,0.0,0.0,0.0,0.0,0.0,0.0,0.0,0.0,0.0,0.0,0.0]}],[{"header":{"parameterUnit":"kt","parameterCategory":2,"dx":1,"dy":1,"la1":29.587661999999998,"la2":31.0,"lo1":-88.76705300000003,"lo2":-86.6583820000003,"nx":115,"ny":88,"refTime":"2022-10-16T18:00:00:Z","depth":0,"parameterNumber":2,"parameterNumberName":"V-component_of_WINDS"},"data":[-6.6149,-6.6331,-6.6234,-6.6136,-6.5987,-6.6185,-6.6198,-6.61,-6.6087,-6.5987,-6.5644,-6.5016,-6.4504,-6.4199,-6.3268,-6.2074,-6.0518,-5.9354,-5.8158,-5.6841,-5.5268,-5.4038,-5.2777,-5.1502,-5.0729,-5.0005,-4.9423,-4.9359,-4.9445,-4.9934,-5.0512,-5.1242,-5.1783,-5.2363,-5.2793,-5.2992,-5.3189,-5.2963,-5.2693,-5.2117,-5.1885,-5.1885,-5.1551,-5.0391,-4.8641,-4.7568,-4.6322,-4.4884,-4.4474,-4.4378,-4.4693,-4.4952,-4.5326,-4.5905,-4.6364,-4.6933,-4.7556,-4.8138,-4.8496,-4.8715,-4.8589,-4.7709,-4.766,-4.7857,-4.6567,-4.4989,-4.5795,-4.6567,-4.6478,-4.5995,-4.4649,-4.3963,-4.3725,-4.3963,-4.3915,-4.3843,-4.2959,-3.9675,-3.6864,-3.654,-3.6644,-3.6644,-3.6621,-3.6494,-3.6494,-3.6644,-3.6851,-3.7295,-3.7828,-3.7726,-3.7625,-3.701,-3.6494,-3.6908,-3.7397,-3.7295,-3.7239,-3.6931,-3.6621,-3.6159,-3.5636,-3.513,-3.4793,-3.4859,-3.5604,-3.663,-3.7589,-3.8576,-3.9717,-4.0814,-4.1788,-4.2468,-4.2543,-4.2642,-4.293,-6.7271,-6.7096,-6.6877,-6.6751,-6.6751,-6.6841,-6.6921,-6.6921,-6.6796,-6.6614,-6.6343,-6.6234,-6.5835,-6.5127,-6.4199,-6.3014,-6.1826,-6.0701,-5.9386,-5.8042,-5.6779,-5.5699,-5.4706,-5.3748,-5.2911,-5.2221,-5.1643,-5.1504,-5.1437,-5.2044,-5.2636,-5.3132,-5.3845,-5.4611,-5.4706,-5.4924,-5.5018,-5.483,-5.4355,-5.3777,-5.365,-5.368,-5.3357,-5.2564,-5.1308,-5.0087,-4.8938,-4.7767,-4.6903,-4.663,-4.6314,-4.6453,-4.6706,-4.7133,-4.747,-4.7917,-4.8553,-4.9207,-4.9558,-4.9799,-4.9527,-4.9338,-4.9423,-4.8904,-4.7789,-4.7461,-4.8112,-4.8496,-4.8386,-4.7582,-4.602,-4.4908,-4.4908,-4.5001,-4.4859,-4.4786,-4.2857,-4.0596,-3.8969,-3.7642,-3.7618,-3.7618,-3.7468,-3.7318,-3.7239,-3.731,-3.7618,-3.7953,-3.8309,-3.8509,-3.8409,-3.7929,-3.7523,-3.7804,-3.8284,-3.8333,-3.8305,-3.8199,-3.8338,-3.7665,-3.7184,-3.7025,-3.6702,-3.6352,-3.648,-3.749,-3.845,-3.9578,-4.0626,-4.1706,-4.2549,-4.3245,-4.3462,-4.382,-4.4224,-6.7892,-6.7745,-6.7591,-6.7434,-6.7316,-6.7434,-6.747,-6.7393,-6.7307,-6.7224,-6.7096,-6.6796,-6.6331,-6.5627,-6.494,-6.3906,-6.2886,-6.186,-6.0626,-5.9466,-5.8325,-5.7335,-5.6274,-5.5238,-5.4659,-5.4076,-5.3522,-5.3241,-5.323,-5.3815,-5.4391,-5.48,-5.5576,-5.6155,-5.6364,-5.6663,-5.6783,-5.6605,-5.6095,-5.5943,-5.6154,-5.5546,-5.5082,-5.3685,-5.2473,-5.1164,-5.0142,-4.8989,-4.8401,-4.8054,-4.8359,-4.8359,-4.8028,-4.8359,-4.8689,-4.9043,-4.9558,-5.0384,-5.07,-5.07,-5.0512,-5.0402,-5.0411,-5.0227,-4.915,-4.9773,-5.0439,-5.0199,-5.0093,-4.8579,-4.6907,-4.593,-4.5814,-4.6045,-4.6135,-4.625,-4.5095,-4.3032,-4.1317,-4.0083,-3.9441,-3.9343,-3.8628,-3.8479,-3.8131,-3.818,-3.8482,-3.8809,-3.9304,-3.9501,-3.9206,-3.8833,-3.8609,-3.8809,-3.9628,-3.9877,-3.9877,-3.9951,-4.0123,-4.0092,-4.0151,-3.9515,-3.8866,-3.8909,-3.9002,-3.9202,-3.9549,-4.07,-4.1791,-4.2821,-4.3487,-4.4152,-4.4413,-4.4766,-4.5467,-6.8308,-6.8308,-6.814,-6.7965,-6.7781,-6.7892,-6.7892,-6.7781,-6.7817,-6.7779,-6.7662,-6.7224,-6.666,-6.6087,-6.5468,-6.469,-6.3721,-6.2785,-6.1826,-6.0659,-5.9656,-5.8574,-5.768,-5.6632,-5.6062,-5.5487,-5.503,-5.4745,-5.4928,-5.5331,-5.5821,-5.6305,-5.7017,-5.7571,-5.7829,-5.8084,-5.8168,-5.8084,-5.8052,-5.8325,-5.8189,-5.7508,-5.6663,-5.5335,-5.4076,-5.2912,-5.1737,-5.0636,-5.0133,-4.98,-5.0521,-5.0254,-4.9504,-4.9827,-4.9961,-4.9961,-5.0755,-5.1457,-5.1765,-5.1794,-5.1681,-5.1653,-5.1709,-5.1325,-5.1381,-5.2027,-5.223,-5.197,-5.1118,-4.9423,-4.8002,-4.7133,-4.6592,-4.7046,-4.7496,-4.7798,-4.8132,-4.6021,-4.3862,-4.2771,-4.1863,-4.1056,-4.0152,-3.9603,-3.9181,-3.9107,-3.9428,-3.9697,-4.0184,-4.0821,-4.0557,-3.9918,-3.9723,-4.0573,-4.1328,-4.1834,-4.227,-4.2399,-4.2476,-4.2807,-4.3234,-4.2274,-4.1423,-4.1427,-4.1182,-4.1087,-4.1378,-4.2109,-4.2911,-4.3935,-4.4624,-4.5093,-4.5442,-4.6135,-4.682,-6.8573,-6.8573,-6.8308,-6.8245,-6.8143,-6.818,-6.818,-6.818,-6.8286,-6.8217,-6.7929,-6.755,-6.7053,-6.6474,-6.5901,-6.5107,-6.4328,-6.3658,-6.2753,-6.1636,-6.0692,-5.9846,-5.8885,-5.7999,-5.7335,-5.696,-5.6574,-5.6154,-5.6426,-5.6783,-5.7311,-5.7711,-5.8388,-5.8835,-5.9193,-5.9515,-5.9675,-5.9721,-6.0158,-6.0279,-5.9957,-5.929,-5.8376,-5.7335,-5.6183,-5.515,-5.4046,-5.3218,-5.255,-5.2242,-5.2298,-5.2259,-5.1803,-5.1812,-5.118,-5.1361,-5.2072,-5.2679,-5.2808,-5.2908,-5.2963,-5.323,-5.3748,-5.3247,-5.295,-5.3276,-5.3699,-5.3572,-5.2477,-5.0805,-4.9207,-4.8249,-4.8086,-4.8527,-4.8825,-4.915,-4.8957,-4.7637,-4.5898,-4.5151,-4.4172,-4.2987,-4.2016,-4.1047,-4.0646,-4.0265,-4.0358,-4.0667,-4.1344,-4.2323,-4.1838,-4.0936,-4.1752,-4.2853,-4.3496,-4.3917,-4.447,-4.4838,-4.4917,-4.5261,-4.5734,-4.5027,-4.3935,-4.337,-4.3047,-4.2953,-4.3122,-4.3419,-4.4135,-4.5089,-4.5765,-4.611,-4.6794,-4.7694,-4.8249,-6.8891,-6.8827,-6.8751,-6.8663,-6.8573,-6.8479,-6.8484,-6.8447,-6.8484,-6.8245,-6.8002,-6.7704,-6.7302,-6.6751,-6.6247,-6.5644,-6.4919,-6.4303,-6.3567,-6.2619,-6.1713,-6.0908,-6.0146,-5.9274,-5.865,-5.8147,-5.772,-5.7342,-5.7516,-5.7977,-5.8547,-5.8994,-5.9595,-6.0068,-6.0454,-6.0833,-6.1131,-6.1497,-6.1713,-6.1747,-6.1205,-6.0574,-5.986,-5.8951,-5.7797,-5.6763,-5.5754,-5.4898,-5.4104,-5.3582,-5.437,-5.4214,-5.3433,-5.3746,-5.3462,-5.2865,-5.3572,-5.3835,-5.3962,-5.4088,-5.4222,-5.448,-5.4949,-5.4919,-5.489,-5.4605,-5.4825,-5.4854,-5.3572,-5.2304,-5.0832,-4.9585,-4.9745,-5.0011,-5.0254,-5.0469,-4.9719,-4.8848,-4.7992,-4.7391,-4.6338,-4.5183,-4.4006,-4.2839,-4.209,-4.196,-4.2049,-4.2408,-4.3315,-4.4342,-4.3935,-4.3279,-4.4262,-4.5172,-4.5432,-4.5764,-4.641,-4.7023,-4.7158,-4.7616,-4.8161,-4.7845,-4.7077,-4.6096,-4.5112,-4.5379,-4.5794,-4.5702,-4.5498,-4.6271,-4.7133,-4.7779,-4.8553,-4.9234,-4.945,-6.9036,-6.8974,-6.9009,-6.8929,-6.8808,-6.876,-6.8701,-6.8603,-6.8504,-6.8345,-6.8108,-6.7855,-6.7507,-6.7053,-6.6614,-6.6087,-6.5522,-6.4919,-6.4244,-6.3474,-6.2653,-6.1818,-6.1016,-6.0223,-5.9595,-5.903,-5.8733,-5.8368,-5.8452,-5.8702,-5.929,-6.0028,-6.0563,-6.1057,-6.157,-6.2241,-6.2585,-6.2855,-6.2954,-6.2721,-6.231,-6.1856,-6.1139,-6.0323,-5.9258,-5.8287,-5.7484,-5.6588,-5.5912,-5.5423,-5.6125,-5.6034,-5.4928,-5.5235,-5.5445,-5.4658,-5.5014,-5.5421,-5.5481,-5.5421,-5.5514,-5.5851,-5.6933,-5.7198,-5.6814,-5.6456,-5.6337,-5.5881,-5.5014,-5.3894,-5.255,-5.1361,-5.092,-5.118,-5.1465,-5.1576,-5.1269,-5.0231,-4.8961,-4.8458,-4.8592,-4.744,-4.6267,-4.5151,-4.4253,-4.3942,-4.4085,-4.4731,-4.5635,-4.6582,-4.6677,-4.6422,-4.7137,-4.7647,-4.7784,-4.7939,-4.8616,-4.913,-4.9378,-4.9736,-5.0018,-5.0028,-4.9851,-4.9074,-4.7845,-4.7812,-4.8118,-4.7935,-4.7624,-4.8285,-4.8663,-4.9531,-5.0305,-5.0384,-5.0595,-6.9123,-6.9011,-6.9009,-6.8929,-6.8836,-6.8966,-6.8874,-6.8648,-6.8633,-6.8548,-6.8427,-6.8112,-6.7889,-6.754,-6.6966,-6.6427,-6.5987,-6.5468,-6.4805,-6.4098,-6.3381,-6.2619,-6.1747,-6.0983,-6.0345,-5.9879,-5.9515,-5.9306,-5.9257,-5.9548,-6.0035,-6.065,-6.1312,-6.189,-6.2551,-6.3186,-6.3636,-6.3797,-6.3859,-6.3671,-6.335,-6.2988,-6.2381,-6.1646,-6.0701,-5.9831,-5.903,-5.8287,-5.7649,-5.7516,-5.7633,-5.7438,-5.7086,-5.6629,-5.6519,-5.6582,-5.6937,-5.7141,-5.7198,-5.7198,-5.7285,-5.7743,-5.9144,-5.903,-5.8504,-5.7891,-5.7665,-5.7141,-5.6427,-5.5295,-5.4214,-5.3151,-5.2178,-5.24,-5.2721,-5.2661,-5.2468,-5.1346,-5.0015,-4.9745,-4.9848,-4.9545,-4.8455,-4.7401,-4.6377,-4.635,-4.6666,-4.745,-4.8551,-4.946,-4.9135,-4.8946,-4.9222,-4.9924,-5.0276,-5.0433,-5.0842,-5.0821,-5.126,-5.1389,-5.1382,-5.1373,-5.1249,-5.0805,-5.009,-4.9744,-4.9557,-4.953,-4.9556,-4.9824,-5.0145,-5.0909,-5.1635,-5.1737,-5.184,-6.9224,-6.917,-6.916,-6.9061,-6.8956,-6.9061,-6.9074,-6.8997,-6.8836,-6.9303,-6.9676,-6.866,-6.8519,-6.8727,-6.7911,-6.6923,-6.6331,-6.5886,-6.5307,-6.4761,-6.4045,-6.335,-6.2653,-6.1822,-6.1172,-6.0607,-6.0289,-5.9977,-5.9898,-6.0211,-6.0563,-6.1098,-6.1818,-6.2619,-6.335,-6.3921,-6.4443,-6.4503,-6.4621,-6.4503,-6.4288,-6.3887,-6.3474,-6.2819,-6.2106,-6.1402,-6.0644,-5.995,-5.9403,-5.9161,-5.9242,-5.9306,-5.9592,-5.9466,-5.9129,-5.8125,-5.8094,-5.8515,-5.8567,-5.8535,-5.908,-5.9451,-6.0607,-6.0607,-5.9563,-5.9062,-5.8848,-5.8432,-5.7751,-5.6814,-5.5729,-5.3991,-5.3433,-5.368,-5.3903,-5.3833,-5.3395,-5.1859,-5.065,-5.0782,-5.0958,-5.0875,-5.0479,-4.9434,-4.873,-4.8963,-4.9268,-5.0669,-5.1764,-5.1507,-5.1119,-5.1018,-5.1186,-5.1316,-5.1586,-5.21,-5.2304,-5.2607,-5.2621,-5.2735,-5.2679,-5.255,-5.2405,-5.21,-5.1635,-5.1194,-5.0986,-5.0882,-5.1034,-5.127,-5.1635,-5.2247,-5.285,-5.3078,-5.3078,-6.9311,-6.9224,-6.9217,-6.946,-6.9921,-7.051,-7.0834,-7.0809,-7.0719,-7.1047,-7.1468,-7.061,-7.051,-7.0618,-6.9856,-6.8779,-6.7766,-6.7136,-6.6151,-6.5503,-6.4574,-6.401,-6.3381,-6.2687,-6.1997,-6.1531,-6.1165,-6.0974,-6.0596,-6.0875,-6.1098,-6.1425,-6.2277,-6.3086,-6.3824,-6.4562,-6.4911,-6.5025,-6.5137,-6.5193,-6.5046,-6.4726,-6.4303,-6.3879,-6.3182,-6.2551,-6.1826,-6.1072,-6.0617,-6.0389,-6.0498,-6.08,-6.1131,-6.157,-6.0983,-5.9595,-5.9225,-5.9707,-5.9833,-6.0191,-6.0758,-6.1205,-6.1747,-6.1497,-6.0531,-5.999,-5.9707,-5.9306,-5.8733,-5.7977,-5.7161,-5.5485,-5.474,-5.4965,-5.4898,-5.4914,-5.4352,-5.2793,-5.1691,-5.1794,-5.21,-5.219,-5.2162,-5.1339,-5.1211,-5.1438,-5.1424,-5.2607,-5.2879,-5.2607,-5.2129,-5.2157,-5.2157,-5.236,-5.2563,-5.2836,-5.3007,-5.3206,-5.3404,-5.3728,-5.3728,-5.3601,-5.3404,-5.3206,-5.2936,-5.2736,-5.2477,-5.2348,-5.2449,-5.2779,-5.3276,-5.3767,-5.4079,-5.4138,-5.4323,-6.9314,-6.9215,-6.93,-7.023,-7.1721,-7.3372,-7.3859,-7.3547,-7.3508,-7.3562,-7.3652,-7.3142,-7.3012,-7.3059,-7.2236,-7.107,-6.9822,-6.9227,-6.811,-6.6617,-6.5713,-6.4773,-6.4106,-6.3509,-6.2888,-6.2448,-6.2101,-6.1818,-6.1709,-6.1718,-6.1964,-6.2277,-6.2686,-6.3277,-6.401,-6.4761,-6.5268,-6.5504,-6.561,-6.561,-6.5504,-6.5342,-6.4975,-6.4539,-6.3967,-6.3504,-6.2886,-6.2278,-6.186,-6.1646,-6.1751,-6.1997,-6.238,-6.2822,-6.2275,-6.0791,-6.0748,-6.0941,-6.1391,-6.2138,-6.2346,-6.2415,-6.2619,-6.2346,-6.1458,-6.0899,-6.052,-6.0068,-5.9627,-5.8899,-5.801,-5.7078,-5.6351,-5.6085,-5.6001,-5.5882,-5.5317,-5.4167,-5.3264,-5.2936,-5.3305,-5.3572,-5.3473,-5.3346,-5.3455,-5.3484,-5.3531,-5.3462,-5.3502,-5.3007,-5.2332,-5.2259,-5.236,-5.2664,-5.3036,-5.3334,-5.3786,-5.3894,-5.4088,-5.4407,-5.4532,-5.4503,-5.4407,-5.4088,-5.3894,-5.3796,-5.3699,-5.3728,-5.4059,-5.4444,-5.4884,-5.5426,-5.5116,-5.5265,-5.5614,-6.9468,-6.9465,-7.053,-7.1981,-7.3529,-7.4131,-7.4319,-7.4319,-7.4313,-7.4647,-7.5601,-7.4204,-7.4095,-7.4529,-7.3837,-7.2538,-7.1887,-7.1209,-6.9854,-6.8578,-6.7353,-6.6229,-6.5157,-6.4288,-6.3803,-6.3086,-6.2754,-6.2415,-6.2173,-6.2277,-6.2551,-6.2954,-6.3376,-6.3941,-6.4703,-6.5213,-6.561,-6.5732,-6.5886,-6.5972,-6.5921,-6.5783,-6.5522,-6.5198,-6.4919,-6.4363,-6.3879,-6.344,-6.3148,-6.2986,-6.2954,-6.3086,-6.3445,-6.3573,-6.3217,-6.2517,-6.1964,-6.1964,-6.2449,-6.3086,-6.3538,-6.3346,-6.3474,-6.3086,-6.2346,-6.1747,-6.1345,-6.0833,-6.041,-5.9898,-5.8949,-5.8094,-5.7406,-5.6992,-5.6975,-5.6786,-5.6216,-5.5377,-5.4592,-5.3923,-5.4311,-5.4694,-5.4569,-5.4575,-5.4611,-5.4765,-5.4664,-5.4377,-5.4185,-5.3531,-5.2736,-5.2563,-5.2664,-5.3036,-5.3433,-5.3961,-5.446,-5.4723,-5.5384,-5.5551,-5.5741,-5.5291,-5.5168,-5.5516,-5.545,-5.4908,-5.4997,-5.542,-5.5869,-5.6246,-5.7068,-5.792,-5.767,-5.7469,-5.7516,-7.1496,-7.1578,-7.3085,-7.4386,-7.5461,-7.6064,-7.6307,-7.6307,-7.6228,-7.6818,-7.7538,-7.6384,-7.6256,-7.6576,-7.5675,-7.4725,-7.3721,-7.3434,-7.2065,-7.0746,-6.9628,-6.8348,-6.6928,-6.5936,-6.5006,-6.401,-6.3567,-6.3182,-6.2986,-6.3086,-6.3316,-6.3727,-6.4303,-6.4876,-6.5213,-6.561,-6.5921,-6.6087,-6.6185,-6.6234,-6.6234,-6.6136,-6.5936,-6.568,-6.5557,-6.5198,-6.4805,-6.4516,-6.4244,-6.4002,-6.3852,-6.4037,-6.4373,-6.4516,-6.4219,-6.344,-6.3052,-6.3117,-6.3538,-6.4063,-6.4492,-6.4279,-6.4279,-6.4037,-6.3117,-6.2517,-6.2135,-6.1603,-6.109,-6.0443,-5.9707,-5.903,-5.8305,-5.7979,-5.7851,-5.771,-5.7125,-5.6155,-5.5385,-5.5073,-5.5385,-5.5757,-5.5667,-5.5698,-5.5912,-5.6034,-5.5667,-5.5231,-5.4664,-5.402,-5.3334,-5.3036,-5.3036,-5.3235,-5.3815,-5.443,-5.5204,-5.5956,-5.6862,-5.7349,-5.7807,-5.7333,-5.7094,-5.7303,-5.748,-5.7147,-5.706,-5.7339,-5.7988,-5.8974,-5.9746,-6.0272,-6.0143,-5.9878,-5.9593,-7.4781,-7.5117,-7.6514,-7.7139,-7.7254,-7.876,-7.923,-7.8931,-7.91,-7.9058,-7.9068,-7.8924,-7.8552,-7.8605,-7.7988,-7.7088,-7.5799,-7.5573,-7.4261,-7.3014,-7.2041,-7.0667,-6.9285,-6.8176,-6.7172,-6.5708,-6.5041,-6.4793,-6.4533,-6.4933,-6.5287,-6.549,-6.6366,-6.6036,-6.6393,-6.7134,-6.7327,-6.692,-6.6535,-6.6427,-6.6427,-6.6295,-6.6198,-6.6037,-6.5835,-6.5627,-6.5468,-6.5107,-6.4792,-6.4735,-6.4597,-6.4748,-6.5087,-6.5233,-6.4954,-6.4398,-6.4037,-6.4123,-6.4539,-6.5031,-6.5233,-6.5268,-6.5158,-6.4805,-6.4002,-6.3415,-6.2956,-6.2585,-6.157,-6.0899,-6.0476,-5.9879,-5.9226,-5.8887,-5.8739,-5.8642,-5.8188,-5.7198,-5.6489,-5.6216,-5.6307,-5.6518,-5.6636,-5.6666,-5.6906,-5.6756,-5.6397,-5.6094,-5.5445,-5.4599,-5.3894,-5.3305,-5.3334,-5.3688,-5.4167,-5.5027,-5.5918,-5.682,-5.7933,-5.8822,-5.9593,-5.9914,-5.9615,-5.9642,-5.9275,-5.9247,-5.9249,-6.0055,-6.0862,-6.1701,-6.2105,-6.2107,-6.2046,-6.2415,-6.2029,-7.6303,-7.8574,-7.8914,-7.9038,-7.9084,-7.9415,-7.9588,-7.9588,-7.9588,-7.9536,-7.9443,-7.9366,-7.9219,-7.9063,-7.883,-7.8366,-7.7763,-7.7504,-7.624,-7.5006,-7.4016,-7.2934,-7.1546,-7.064,-6.9964,-6.9283,-6.7633,-6.7053,-6.7244,-6.7854,-6.8648,-6.9373,-6.8946,-6.9284,-6.9637,-6.9674,-6.9231,-6.8448,-6.7388,-6.6846,-6.6618,-6.6582,-6.6487,-6.6319,-6.6172,-6.6073,-6.5835,-6.5627,-6.5539,-6.5433,-6.5326,-6.5433,-6.5696,-6.5715,-6.545,-6.5122,-6.4933,-6.5067,-6.5468,-6.568,-6.568,-6.568,-6.5627,-6.545,-6.4805,-6.4586,-6.4193,-6.3366,-6.2175,-6.1625,-6.1314,-6.0662,-6.0092,-5.9762,-5.9703,-5.9577,-5.929,-5.8168,-5.7373,-5.7229,-5.726,-5.746,-5.7665,-5.7727,-5.7641,-5.7491,-5.7234,-5.6943,-5.6155,-5.5261,-5.4473,-5.3601,-5.3826,-5.4176,-5.479,-5.5546,-5.6663,-5.765,-5.904,-6.0061,-6.0683,-6.1127,-6.1724,-6.1418,-6.0891,-6.1047,-6.1733,-6.2764,-6.3764,-6.3885,-6.4068,-6.4072,-6.4331,-6.506,-6.4992,-7.8127,-7.9884,-7.9784,-7.9748,-7.9774,-7.9747,-7.9657,-7.9657,-7.9681,-7.9651,-7.9604,-7.9571,-7.9461,-7.9309,-7.9089,-7.8883,-7.8706,-7.835,-7.7577,-7.6689,-7.6236,-7.5251,-7.366,-7.2934,-7.2057,-7.1045,-7.0052,-6.9411,-7.0234,-7.0933,-7.1055,-7.0963,-7.1102,-7.1421,-7.1051,-7.1537,-7.1066,-7.0256,-6.9351,-6.8517,-6.7927,-6.771,-6.741,-6.6593,-6.6521,-6.6474,-6.6331,-6.6283,-6.6185,-6.6087,-6.6037,-6.61,-6.6149,-6.6136,-6.5936,-6.568,-6.5699,-6.5972,-6.6331,-6.6331,-6.6283,-6.6185,-6.6087,-6.5936,-6.5767,-6.5397,-6.4884,-6.4044,-6.2886,-6.2309,-6.2058,-6.1525,-6.0965,-6.0751,-6.0701,-6.0626,-6.0257,-5.9113,-5.8284,-5.8232,-5.8178,-5.8515,-5.8682,-5.8631,-5.8515,-5.8178,-5.779,-5.7622,-5.6879,-5.6155,-5.5295,-5.4281,-5.4311,-5.4532,-5.5198,-5.6343,-5.7553,-5.8665,-6.0092,-6.1915,-6.2333,-6.2682,-6.3501,-6.354,-6.3137,-6.3454,-6.4239,-6.5024,-6.5745,-6.5924,-6.5977,-6.6235,-6.6405,-6.7052,-6.658,-7.9915,-7.9895,-7.9922,-7.9898,-7.9886,-7.9773,-7.9685,-7.9723,-7.9736,-7.9723,-7.9723,-7.9689,-7.9588,-7.9461,-7.9272,-7.9126,-7.8905,-7.871,-7.8361,-7.8118,-7.7911,-7.6946,-7.5713,-7.5161,-7.4194,-7.3143,-7.2068,-7.2729,-7.3576,-7.2964,-7.2553,-7.2613,-7.2759,-7.2359,-7.3085,-7.3252,-7.2414,-7.2139,-7.2113,-7.1348,-7.0019,-6.9646,-6.8774,-6.7793,-6.7285,-6.7204,-6.6868,-6.6751,-6.666,-6.6567,-6.6567,-6.6567,-6.6521,-6.6521,-6.6343,-6.6379,-6.6593,-6.695,-6.6877,-6.6796,-6.6705,-6.6567,-6.6521,-6.6521,-6.6331,-6.5987,-6.5522,-6.4713,-6.363,-6.3022,-6.2889,-6.2448,-6.1966,-6.1755,-6.1675,-6.1603,-6.1297,-6.017,-5.9144,-5.9013,-5.9176,-5.9451,-5.95,-5.9387,-5.9225,-5.8829,-5.8421,-5.822,-5.7814,-5.7317,-5.6636,-5.5325,-5.5039,-5.5009,-5.5521,-5.7269,-5.8598,-5.9781,-6.1976,-6.4374,-6.4358,-6.4371,-6.5196,-6.5428,-6.5651,-6.5785,-6.6071,-6.6633,-6.7673,-6.7791,-6.7429,-6.772,-6.8297,-6.8023,-6.7681,-7.9917,-7.9916,-7.9902,-7.9901,-7.9913,-7.9865,-7.9855,-7.9844,-7.9844,-7.9834,-7.986,-7.9748,-7.9709,-7.9614,-7.9478,-7.9343,-7.9216,-7.8971,-7.8813,-7.8763,-7.8547,-7.8241,-7.7579,-7.7159,-7.6576,-7.5441,-7.4615,-7.4934,-7.5993,-7.5784,-7.5867,-7.5575,-7.5784,-7.5931,-7.5804,-7.5557,-7.5072,-7.4551,-7.4076,-7.3227,-7.1968,-7.1494,-7.0764,-6.9224,-6.9005,-6.8348,-6.7327,-6.7139,-6.7096,-6.6973,-6.6973,-6.7009,-6.6796,-6.6614,-6.6567,-6.6742,-6.7046,-6.7132,-6.7139,-6.7096,-6.7009,-6.6921,-6.6841,-6.6832,-6.6705,-6.6474,-6.6064,-6.5325,-6.4341,-6.3699,-6.374,-6.3292,-6.289,-6.2551,-6.2511,-6.2431,-6.2028,-6.1065,-6.0022,-5.993,-6.0166,-6.0244,-6.0101,-5.9911,-5.9689,-5.9274,-5.8853,-5.8654,-5.8631,-5.8263,-5.7317,-5.6095,-5.5415,-5.5385,-5.6234,-5.7903,-5.9538,-6.0658,-6.2893,-6.5008,-6.5427,-6.5726,-6.5929,-6.6066,-6.6481,-6.6961,-6.7434,-6.799,-6.8387,-6.8568,-6.86,-6.869,-6.869,-6.86,-6.8329,-7.9837,-7.9899,-7.9916,-7.9913,-7.989,-7.9913,-7.9901,-7.9894,-7.9893,-7.9903,-7.9893,-7.9822,-7.9786,-7.9774,-7.9657,-7.9512,-7.9418,-7.9202,-7.9065,-7.8976,-7.8822,-7.8611,-7.8375,-7.8134,-7.7908,-7.7488,-7.6959,-7.6943,-7.7585,-7.7402,-7.7225,-7.7372,-7.7284,-7.7284,-7.7328,-7.7328,-7.6814,-7.6366,-7.6036,-7.5632,-7.4891,-7.39,-7.2249,-7.0708,-6.9864,-6.909,-6.788,-6.751,-6.743,-6.7385,-6.7385,-6.7307,-6.7224,-6.7139,-6.7096,-6.7224,-6.7385,-6.7426,-6.743,-6.7389,-6.7339,-6.7291,-6.7175,-6.7139,-6.7175,-6.6877,-6.6449,-6.5893,-6.5072,-6.4478,-6.4548,-6.4087,-6.3652,-6.3294,-6.3394,-6.336,-6.2822,-6.1531,-6.0899,-6.0629,-6.0857,-6.0899,-6.0683,-6.0389,-6.017,-5.9786,-5.9415,-5.9319,-5.9371,-5.8682,-5.7751,-5.6638,-5.5787,-5.585,-5.6429,-5.8477,-6.0327,-6.1508,-6.3187,-6.4837,-6.5627,-6.609,-6.6384,-6.6674,-6.7246,-6.7653,-6.8114,-6.8478,-6.8836,-6.9101,-6.9101,-6.9101,-6.9134,-6.9046,-6.878,-7.9773,-7.991,-7.9923,-7.9908,-7.9917,-7.9916,-7.9911,-7.9905,-7.9907,-7.991,-7.9901,-7.9893,-7.9909,-7.9849,-7.9773,-7.9695,-7.9588,-7.9442,-7.9316,-7.9211,-7.9053,-7.8906,-7.8763,-7.8547,-7.8345,-7.8355,-7.8209,-7.8021,-7.8052,-7.7861,-7.771,-7.7627,-7.7623,-7.7623,-7.7623,-7.7623,-7.7549,-7.7286,-7.7328,-7.7328,-7.6881,-7.6001,-7.4232,-7.1394,-7.1062,-6.9919,-6.8445,-6.7818,-6.7743,-6.7704,-6.774,-6.7779,-6.7742,-6.7665,-6.7626,-6.7626,-6.7702,-6.7665,-6.7628,-6.7665,-6.762,-6.7536,-6.7462,-6.7507,-6.7507,-6.7187,-6.6885,-6.639,-6.5783,-6.5137,-6.513,-6.4726,-6.4298,-6.4067,-6.4087,-6.4149,-6.344,-6.2448,-6.1597,-6.1452,-6.1491,-6.1458,-6.1172,-6.0883,-6.0584,-6.0211,-5.9951,-5.9951,-5.9837,-5.9095,-5.8147,-5.7141,-5.6216,-5.6398,-5.6638,-5.885,-6.0769,-6.1733,-6.3478,-6.5134,-6.5925,-6.6384,-6.6866,-6.7246,-6.7714,-6.8206,-6.8568,-6.8925,-6.9189,-6.9364,-6.9504,-6.959,-6.9537,-6.9483,-6.9189,-7.9761,-7.9922,-7.991,-7.9901,-7.9923,-7.9905,-7.9916,-7.9917,-7.9916,-7.9908,-7.9895,-7.9907,-7.9917,-7.9884,-7.9871,-7.9849,-7.9811,-7.9689,-7.9536,-7.9423,-7.9322,-7.9164,-7.9051,-7.8906,-7.8813,-7.8811,-7.8729,-7.8602,-7.8425,-7.8207,-7.8061,-7.8023,-7.7945,-7.7904,-7.7904,-7.7864,-7.7864,-7.7901,-7.7864,-7.7864,-7.7716,-7.7531,-7.587,-7.3393,-7.2617,-7.1101,-6.8771,-6.8108,-6.8073,-6.8002,-6.8074,-6.8214,-6.8211,-6.8036,-6.7781,-6.7818,-6.7818,-6.7818,-6.7818,-6.778,-6.7815,-6.7777,-6.7662,-6.7702,-6.7704,-6.747,-6.7181,-6.6921,-6.6567,-6.5987,-6.5486,-6.5236,-6.5016,-6.4783,-6.4749,-6.4622,-6.4079,-6.3217,-6.2482,-6.2275,-6.2135,-6.2031,-6.1751,-6.1397,-6.1024,-6.0673,-6.055,-6.0413,-6.0107,-5.958,-5.8733,-5.7751,-5.7084,-5.7026,-5.7265,-5.8961,-6.0508,-6.1948,-6.3985,-6.524,-6.5992,-6.6577,-6.7246,-6.7621,-6.8114,-6.851,-6.8869,-6.9309,-6.9537,-6.9537,-6.9676,-6.9846,-6.9846,-6.9879,-6.9794,-7.9657,-7.9796,-7.9796,-7.9827,-7.991,-7.9894,-7.9913,-7.9928,-7.9908,-7.9915,-7.9916,-7.9915,-7.9895,-7.9887,-7.9913,-7.9909,-7.9886,-7.9798,-7.9719,-7.9582,-7.9498,-7.9384,-7.9294,-7.9241,-7.9187,-7.9106,-7.8991,-7.886,-7.8717,-7.8515,-7.8345,-7.8311,-7.828,-7.8209,-7.8135,-7.8135,-7.8135,-7.8172,-7.8172,-7.8172,-7.8172,-7.8172,-7.706,-7.6059,-7.402,-7.1648,-6.8683,-6.8353,-6.8286,-6.8286,-6.8282,-6.8345,-6.834,-6.8034,-6.7892,-6.7892,-6.7929,-6.8073,-6.8036,-6.8074,-6.8076,-6.8003,-6.7966,-6.8003,-6.7966,-6.7779,-6.7503,-6.726,-6.7009,-6.6624,-6.6015,-6.5843,-6.5556,-6.5397,-6.5273,-6.5237,-6.477,-6.3975,-6.3217,-6.2788,-6.2755,-6.2517,-6.2173,-6.1792,-6.1469,-6.119,-6.1045,-6.075,-6.0476,-6.0211,-5.9338,-5.8348,-5.7782,-5.7585,-5.7939,-5.874,-6.0318,-6.2246,-6.4461,-6.5814,-6.6481,-6.7056,-6.7621,-6.8173,-6.8625,-6.9013,-6.9309,-6.9623,-6.9964,-6.9964,-7.0048,-7.0099,-7.0099,-7.0015,-7.0015,-7.955,-7.9633,-7.9671,-7.9748,-7.9844,-7.9903,-7.9913,-7.9922,-7.9913,-7.9918,-7.9913,-7.9905,-7.9917,-7.989,-7.9907,-7.9901,-7.9913,-7.9893,-7.9849,-7.9698,-7.9629,-7.9571,-7.9591,-7.9528,-7.9453,-7.9348,-7.9253,-7.9141,-7.8953,-7.8726,-7.8598,-7.8605,-7.8515,-7.8453,-7.8348,-7.8313,-7.8353,-7.8356,-7.832,-7.832,-7.832,-7.832,-7.8246,-7.7761,-7.5012,-7.178,-6.9216,-6.8484,-6.8452,-6.8484,-6.8442,-6.8467,-6.843,-6.8137,-6.7965,-6.7965,-6.8108,-6.8245,-6.8279,-6.8211,-6.8217,-6.8147,-6.8147,-6.8217,-6.8248,-6.8002,-6.7704,-6.7466,-6.7348,-6.7066,-6.6505,-6.6295,-6.6087,-6.5819,-6.5783,-6.5835,-6.5557,-6.4748,-6.3887,-6.3381,-6.3285,-6.3186,-6.2619,-6.2347,-6.2,-6.1664,-6.1405,-6.1115,-6.0965,-6.0738,-5.9739,-5.8682,-5.821,-5.804,-5.8273,-5.8611,-6.0293,-6.2192,-6.4963,-6.696,-6.7215,-6.7714,-6.8173,-6.8682,-6.9123,-6.9417,-6.9709,-7.0048,-7.0216,-7.0333,-7.0416,-7.0383,-7.0349,-7.0266,-7.0183,-7.948,-7.9553,-7.9666,-7.9736,-7.9723,-7.9871,-7.9893,-7.9893,-7.9884,-7.9884,-7.9901,-7.9901,-7.9905,-7.9917,-7.9916,-7.9911,-7.9895,-7.9907,-7.988,-7.9827,-7.9761,-7.9723,-7.9798,-7.9748,-7.9596,-7.9495,-7.9467,-7.9352,-7.9215,-7.9014,-7.8869,-7.8813,-7.8636,-7.8542,-7.8478,-7.852,-7.8419,-7.8388,-7.8353,-7.8355,-7.8393,-7.8357,-7.8356,-7.7869,-7.5155,-7.1989,-6.9824,-6.8566,-6.8566,-6.8573,-6.8581,-6.8602,-6.8584,-6.8373,-6.8214,-6.8214,-6.8242,-6.8308,-6.8377,-6.8279,-6.8214,-6.8143,-6.8214,-6.8282,-6.8312,-6.8103,-6.7892,-6.7743,-6.7781,-6.7473,-6.6937,-6.6796,-6.6567,-6.6283,-6.6331,-6.6485,-6.6427,-6.561,-6.4562,-6.3983,-6.3949,-6.3762,-6.3376,-6.3017,-6.2719,-6.2236,-6.1953,-6.1742,-6.1636,-6.1305,-6.0366,-5.9176,-5.8797,-5.8631,-5.8599,-5.865,-6.0349,-6.2237,-6.507,-6.6793,-6.7092,-6.825,-6.8673,-6.9211,-6.9557,-6.9931,-7.0216,-7.03,-7.0466,-7.0548,-7.063,-7.0597,-7.0597,-7.0515,-7.0432,-7.9442,-7.9498,-7.9658,-7.9666,-7.9695,-7.9736,-7.9799,-7.9822,-7.9844,-7.9893,-7.9903,-7.9893,-7.9925,-7.9918,-7.9899,-7.9911,-7.9917,-7.9915,-7.9905,-7.9852,-7.9842,-7.9855,-7.9855,-7.9855,-7.972,-7.9651,-7.9535,-7.9473,-7.9381,-7.9249,-7.9115,-7.9002,-7.8934,-7.8793,-7.8673,-7.8648,-7.8585,-7.849,-7.835,-7.8388,-7.8355,-7.8355,-7.8353,-7.7755,-7.5296,-7.3169,-7.1524,-6.9624,-6.8656,-6.8743,-6.8799,-6.8864,-6.8779,-6.8573,-6.8452,-6.8473,-6.8473,-6.8504,-6.8504,-6.8467,-6.8442,-6.841,-6.8404,-6.8467,-6.8467,-6.8349,-6.8073,-6.7929,-6.8034,-6.7819,-6.743,-6.7181,-6.6966,-6.6751,-6.6929,-6.7181,-6.7266,-6.6185,-6.5233,-6.4668,-6.4457,-6.4303,-6.3898,-6.3435,-6.3086,-6.2823,-6.2481,-6.2344,-6.2241,-6.178,-6.1124,-5.9898,-5.9208,-5.9208,-5.9257,-5.9257,-6.0515,-6.2004,-6.4332,-6.5778,-6.6833,-6.8619,-6.9312,-6.9864,-7.015,-7.0432,-7.0712,-7.0908,-7.0989,-7.0874,-7.0955,-7.0955,-7.0874,-7.0793,-7.076,-7.9364,-7.9443,-7.9591,-7.968,-7.9674,-7.9666,-7.9657,-7.9736,-7.9799,-7.9822,-7.9844,-7.9844,-7.9855,-7.9913,-7.9917,-7.9907,-7.989,-7.9905,-7.9911,-7.9916,-7.9916,-7.9913,-7.9908,-7.9908,-7.9831,-7.9736,-7.9646,-7.9575,-7.9516,-7.9422,-7.9279,-7.9196,-7.9177,-7.9089,-7.885,-7.8793,-7.871,-7.8552,-7.8453,-7.8457,-7.8422,-7.8385,-7.8385,-7.8121,-7.5356,-7.3747,-7.3442,-7.0496,-6.8808,-6.8864,-6.8929,-6.902,-6.8956,-6.8826,-6.8738,-6.8751,-6.8714,-6.8714,-6.8743,-6.8705,-6.8648,-6.8633,-6.8626,-6.8705,-6.8668,-6.8535,-6.841,-6.8373,-6.8275,-6.8208,-6.7855,-6.7586,-6.7389,-6.7229,-6.7513,-6.7742,-6.751,-6.6624,-6.568,-6.5268,-6.5031,-6.4827,-6.4411,-6.3967,-6.3573,-6.3354,-6.3024,-6.2755,-6.2721,-6.238,-6.1564,-6.0487,-5.9772,-5.9772,-5.993,-5.9898,-6.053,-6.2026,-6.3462,-6.5017,-6.6567,-6.8486,-6.9499,-7.0496,-7.0578,-7.0841,-7.1149,-7.1388,-7.1388,-7.1275,-7.1354,-7.1354,-7.1195,-7.1103,-7.1103,-7.9322,-7.9305,-7.9443,-7.9591,-7.968,-7.968,-7.9674,-7.9689,-7.9704,-7.9709,-7.9711,-7.9723,-7.9784,-7.9893,-7.9865,-7.9884,-7.9893,-7.991,-7.9887,-7.9901,-7.9894,-7.9907,-7.989,-7.9895,-7.9878,-7.9837,-7.9733,-7.9689,-7.9643,-7.9571,-7.9461,-7.9443,-7.9338,-7.9263,-7.9091,-7.895,-7.885,-7.8771,-7.8686,-7.8627,-7.8524,-7.849,-7.8561,-7.8547,-7.5525,-7.3727,-7.3412,-7.0909,-6.9143,-6.8956,-6.8956,-6.902,-6.902,-6.8993,-6.8993,-6.8993,-6.896,-6.9011,-6.9098,-6.8948,-6.8789,-6.8708,-6.8771,-6.8806,-6.8795,-6.8667,-6.8667,-6.9072,-6.8762,-6.841,-6.8214,-6.7965,-6.7892,-6.7965,-6.8069,-6.8069,-6.7819,-6.7023,-6.6247,-6.5783,-6.5663,-6.5504,-6.5067,-6.4574,-6.4193,-6.3956,-6.3607,-6.3381,-6.3316,-6.2888,-6.1927,-6.1016,-6.0244,-6.0321,-6.0596,-6.0673,-6.1002,-6.2309,-6.3478,-6.4663,-6.5917,-6.7781,-6.9181,-7.0294,-7.0993,-7.1241,-7.1545,-7.1667,-7.171,-7.1744,-7.1744,-7.171,-7.1623,-7.1568,-7.1523,-7.9381,-7.9422,-7.948,-7.9536,-7.9591,-7.9591,-7.9608,-7.968,-7.9658,-7.9689,-7.9681,-7.9657,-7.976,-7.9786,-7.9773,-7.9796,-7.9893,-7.9903,-7.9865,-7.9779,-7.9834,-7.9893,-7.9893,-7.9901,-7.9905,-7.9886,-7.9834,-7.9836,-7.9774,-7.9681,-7.9582,-7.9495,-7.9443,-7.9381,-7.9263,-7.9115,-7.904,-7.8944,-7.8801,-7.868,-7.8648,-7.8659,-7.8697,-7.8281,-7.5549,-7.3964,-7.3693,-7.1712,-7.0019,-6.9184,-6.9009,-6.9098,-6.9208,-6.9156,-6.9109,-6.9136,-6.9147,-6.9202,-6.9311,-6.9165,-6.9036,-6.8971,-6.9023,-6.9023,-6.8997,-6.8911,-6.8997,-6.9392,-6.9202,-6.8854,-6.8442,-6.8242,-6.8373,-6.8581,-6.8619,-6.8559,-6.8362,-6.7442,-6.6624,-6.6283,-6.6123,-6.587,-6.5504,-6.5067,-6.4876,-6.4503,-6.4167,-6.401,-6.3914,-6.3699,-6.2483,-6.1458,-6.0899,-6.0974,-6.1272,-6.1478,-6.1645,-6.2539,-6.3502,-6.45,-6.549,-6.7249,-6.8839,-6.995,-7.0977,-7.1267,-7.1898,-7.2016,-7.2167,-7.2167,-7.2201,-7.2167,-7.2091,-7.2,-7.1914,-7.9401,-7.9479,-7.9499,-7.948,-7.948,-7.948,-7.9573,-7.9608,-7.9646,-7.9663,-7.9674,-7.9674,-7.9651,-7.9695,-7.9685,-7.9736,-7.9837,-7.9849,-7.9799,-7.9736,-7.9786,-7.9811,-7.9844,-7.9903,-7.9901,-7.9917,-7.9907,-7.9903,-7.9871,-7.9786,-7.9671,-7.9614,-7.955,-7.9499,-7.9397,-7.9234,-7.9164,-7.9103,-7.8944,-7.883,-7.8771,-7.8785,-7.8754,-7.8455,-7.6094,-7.4395,-7.3899,-7.23,-7.0681,-6.9061,-6.9023,-6.916,-6.9322,-6.9327,-6.9306,-6.924,-6.9284,-6.9352,-6.9411,-6.9372,-6.9348,-6.929,-6.9284,-6.9231,-6.9256,-6.9224,-6.929,-6.9468,-6.9429,-6.9194,-6.8771,-6.8589,-6.8668,-6.9048,-6.8986,-6.8908,-6.8779,-6.8029,-6.7234,-6.6715,-6.6521,-6.6283,-6.587,-6.5504,-6.5304,-6.4959,-6.4656,-6.4551,-6.4516,-6.4314,-6.3346,-6.1994,-6.1852,-6.1742,-6.196,-6.2135,-6.2376,-6.3129,-6.3708,-6.4357,-6.5415,-6.6816,-6.8247,-6.9515,-7.058,-7.1304,-7.211,-7.2464,-7.2611,-7.2684,-7.2829,-7.2722,-7.2577,-7.2464,-7.2419,-7.9401,-7.9517,-7.9499,-7.948,-7.948,-7.948,-7.948,-7.9518,-7.948,-7.9591,-7.9663,-7.9663,-7.9658,-7.9674,-7.9651,-7.9727,-7.9689,-7.9704,-7.9689,-7.9666,-7.9723,-7.9711,-7.9723,-7.9834,-7.9884,-7.9887,-7.9917,-7.989,-7.9901,-7.9871,-7.9837,-7.9748,-7.9681,-7.9604,-7.948,-7.9384,-7.9279,-7.9164,-7.9103,-7.9036,-7.8963,-7.8897,-7.8868,-7.8584,-7.7275,-7.5658,-7.4066,-7.2531,-7.0932,-6.9334,-6.9123,-6.9277,-6.9365,-6.9386,-6.9424,-6.9407,-6.9468,-6.9559,-6.9609,-6.9576,-6.9521,-6.9445,-6.941,-6.9392,-6.941,-6.9466,-6.9521,-6.9448,-6.9429,-6.9343,-6.917,-6.8974,-6.8924,-6.9171,-6.9247,-6.9194,-6.9098,-6.8677,-6.8034,-6.7108,-6.6877,-6.6696,-6.6319,-6.5972,-6.5628,-6.537,-6.5074,-6.4989,-6.5102,-6.4726,-6.3852,-6.2788,-6.2413,-6.2482,-6.2653,-6.2821,-6.3186,-6.3548,-6.3923,-6.4164,-6.5133,-6.6166,-6.7647,-6.8644,-6.9677,-7.1091,-7.1858,-7.2762,-7.2904,-7.315,-7.3428,-7.3496,-7.3289,-7.3184,-7.3078,-7.9381,-7.9479,-7.9499,-7.948,-7.948,-7.948,-7.948,-7.948,-7.948,-7.9536,-7.9536,-7.9536,-7.9553,-7.9571,-7.968,-7.9642,-7.9571,-7.9533,-7.9588,-7.9658,-7.9674,-7.9666,-7.9695,-7.9748,-7.9735,-7.9758,-7.9842,-7.9916,-7.9907,-7.9922,-7.9855,-7.9796,-7.9723,-7.9666,-7.9598,-7.9498,-7.9461,-7.9364,-7.9309,-7.9215,-7.9077,-7.9063,-7.8971,-7.8803,-7.8456,-7.6946,-7.4146,-7.3546,-7.2034,-6.9607,-6.9262,-6.9386,-6.9429,-6.9392,-6.943,-6.9541,-6.9609,-6.9634,-6.9677,-6.9649,-6.9565,-6.955,-6.9581,-6.9619,-6.9512,-6.9587,-6.9641,-6.9641,-6.963,-6.9505,-6.9372,-6.9236,-6.9277,-6.943,-6.9486,-6.9411,-6.9322,-6.8997,-6.8436,-6.7706,-6.7389,-6.7009,-6.6521,-6.6331,-6.6044,-6.5591,-6.5503,-6.5378,-6.5323,-6.5067,-6.4574,-6.3665,-6.3251,-6.322,-6.3415,-6.3762,-6.4141,-6.4141,-6.4411,-6.4288,-6.4719,-6.5725,-6.6835,-6.774,-6.8953,-7.0373,-7.1656,-7.2732,-7.3218,-7.353,-7.3834,-7.3998,-7.3967,-7.3869,-7.3668,-7.9381,-7.9459,-7.948,-7.948,-7.948,-7.948,-7.948,-7.948,-7.948,-7.948,-7.948,-7.948,-7.948,-7.948,-7.9591,-7.9591,-7.948,-7.948,-7.9536,-7.9608,-7.9663,-7.968,-7.9674,-7.9657,-7.9685,-7.9685,-7.9811,-7.9837,-7.9886,-7.9913,-7.9894,-7.9893,-7.9811,-7.976,-7.9747,-7.9658,-7.9591,-7.9553,-7.9442,-7.9279,-7.9211,-7.9215,-7.9128,-7.9053,-7.9128,-7.7588,-7.4258,-7.4121,-7.2628,-6.9386,-6.9372,-6.9468,-6.9486,-6.9466,-6.9483,-6.9587,-6.9639,-6.9692,-6.9755,-6.9705,-6.9642,-6.9667,-6.9781,-6.9767,-6.968,-6.9653,-6.9704,-6.9831,-6.9755,-6.9663,-6.9565,-6.9533,-6.9571,-6.9581,-6.9649,-6.9603,-6.9468,-6.9277,-6.8864,-6.8208,-6.7929,-6.7516,-6.6999,-6.6633,-6.6367,-6.6049,-6.589,-6.5767,-6.5663,-6.561,-6.5288,-6.4492,-6.401,-6.3824,-6.4202,-6.4656,-6.4831,-6.4773,-6.4715,-6.4538,-6.4478,-6.5422,-6.6137,-6.6987,-6.7818,-6.9311,-7.1433,-7.2405,-7.3133,-7.351,-7.4257,-7.4385,-7.4385,-7.4519,-7.4328,-7.9322,-7.9305,-7.9443,-7.9518,-7.948,-7.948,-7.948,-7.948,-7.948,-7.948,-7.948,-7.948,-7.9442,-7.931,-7.9424,-7.9461,-7.9499,-7.9499,-7.9518,-7.9518,-7.9646,-7.9663,-7.968,-7.9674,-7.9681,-7.9685,-7.9695,-7.9788,-7.9864,-7.9915,-7.9913,-7.9907,-7.9913,-7.9886,-7.9874,-7.9757,-7.9712,-7.9689,-7.9608,-7.9443,-7.9343,-7.9316,-7.9338,-7.9284,-7.9203,-7.754,-7.4717,-7.419,-7.2684,-6.9505,-6.9503,-6.9571,-6.9587,-6.9587,-6.9603,-6.9619,-6.9729,-6.9793,-6.9773,-6.9783,-6.9793,-6.984,-6.9896,-6.9934,-6.9811,-6.98,-6.9869,-6.9942,-6.984,-6.9811,-6.9778,-6.9768,-6.9742,-6.9655,-6.9691,-6.9743,-6.9619,-6.9487,-6.9109,-6.8589,-6.8373,-6.8134,-6.7524,-6.7041,-6.6732,-6.645,-6.628,-6.6136,-6.6087,-6.6087,-6.568,-6.5067,-6.4644,-6.4551,-6.5046,-6.5213,-6.5213,-6.5193,-6.5137,-6.4968,-6.5003,-6.5087,-6.5686,-6.6338,-6.7205,-6.8696,-7.0727,-7.2014,-7.25,-7.3501,-7.4237,-7.4918,-7.4978,-7.511,-7.48,-7.9332,-7.9322,-7.9326,-7.9404,-7.948,-7.948,-7.948,-7.948,-7.948,-7.948,-7.948,-7.948,-7.8839,-7.7951,-7.8894,-7.9364,-7.9364,-7.9442,-7.9499,-7.9499,-7.9555,-7.9536,-7.9553,-7.9625,-7.9658,-7.9689,-7.9666,-7.9711,-7.977,-7.9831,-7.9917,-7.9923,-7.9913,-7.9907,-7.991,-7.986,-7.9836,-7.9798,-7.9712,-7.9608,-7.9478,-7.955,-7.955,-7.9347,-7.8273,-7.6631,-7.4478,-7.3215,-7.1597,-6.9672,-6.9555,-6.9641,-6.9753,-6.973,-6.9755,-6.9717,-6.9869,-6.9942,-6.9934,-6.9934,-6.9905,-6.9942,-6.9973,-6.9935,-6.9951,-6.992,-6.998,-6.9998,-6.9943,-6.9928,-6.9916,-6.9903,-6.9876,-6.9755,-6.9811,-6.9906,-6.9887,-6.9639,-6.9314,-6.8795,-6.8631,-6.8447,-6.8131,-6.7632,-6.7089,-6.6821,-6.6607,-6.6427,-6.6567,-6.6331,-6.5921,-6.5288,-6.5158,-6.5233,-6.568,-6.5732,-6.568,-6.5663,-6.5557,-6.5397,-6.5378,-6.5378,-6.5638,-6.5871,-6.681,-6.8034,-6.9129,-7.0333,-7.1124,-7.2853,-7.4359,-7.5248,-7.5055,-7.5378,-7.4868,-7.8519,-7.7299,-7.7998,-7.876,-7.9443,-7.9461,-7.9423,-7.948,-7.9423,-7.9084,-7.8442,-7.7649,-7.6797,-7.5884,-7.675,-7.7164,-7.7164,-7.7261,-7.7643,-7.8363,-7.8403,-7.8763,-7.9386,-7.9555,-7.9629,-7.9646,-7.9642,-7.9666,-7.9685,-7.9796,-7.9863,-7.9916,-7.9917,-7.9915,-7.9899,-7.9894,-7.9913,-7.9909,-7.9836,-7.9023,-7.7813,-7.7652,-7.7652,-7.7465,-7.658,-7.5263,-7.3665,-7.2646,-7.134,-6.9852,-6.9742,-6.9781,-6.9865,-6.9878,-6.9896,-6.9867,-6.9935,-6.9993,-7.0011,-6.9986,-6.9998,-6.9993,-6.9995,-7.0,-7.0009,-6.9998,-7.0008,-7.0008,-7.0004,-7.0008,-6.9992,-7.0018,-6.9928,-6.9885,-6.9935,-7.0011,-6.9985,-6.9752,-6.9448,-6.9044,-6.8911,-6.881,-6.8544,-6.816,-6.7706,-6.7285,-6.6968,-6.6877,-6.6966,-6.6696,-6.6221,-6.5767,-6.5732,-6.5936,-6.6136,-6.6136,-6.6051,-6.6037,-6.5886,-6.5819,-6.5715,-6.5627,-6.561,-6.5468,-6.6197,-6.6926,-6.7527,-6.8923,-7.0016,-7.1667,-7.3357,-7.4005,-7.4023,-7.4023,-7.3338,-7.6938,-7.4689,-7.59,-7.7492,-7.8798,-7.8794,-7.8778,-7.8874,-7.887,-7.7944,-7.6303,-7.4899,-7.4131,-7.3821,-7.4046,-7.4172,-7.4134,-7.4046,-7.5019,-7.6389,-7.6524,-7.7471,-7.8907,-7.9137,-7.9348,-7.9499,-7.9593,-7.9566,-7.9293,-7.9378,-7.9382,-7.942,-7.9457,-7.9339,-7.9385,-7.9308,-7.9363,-7.9446,-7.9438,-7.7928,-7.5076,-7.4849,-7.4864,-7.4876,-7.4624,-7.3754,-7.2454,-7.2013,-7.1105,-6.974,-6.9348,-6.9352,-6.9359,-6.912,-6.9288,-6.9895,-6.9995,-6.9884,-6.9677,-6.9881,-6.9887,-6.9777,-6.9811,-6.9992,-7.0009,-6.9992,-6.9966,-6.9963,-6.9958,-6.9955,-6.9998,-7.0008,-6.9965,-6.9933,-6.9927,-6.9995,-6.9968,-6.9773,-6.9517,-6.9259,-6.9221,-6.916,-6.8911,-6.8623,-6.8238,-6.7836,-6.749,-6.7266,-6.7302,-6.7046,-6.6686,-6.6331,-6.6379,-6.6521,-6.6567,-6.6474,-6.6427,-6.6379,-6.6185,-6.6037,-6.6073,-6.6023,-6.5972,-6.587,-6.61,-6.6617,-6.7476,-6.8225,-6.8866,-7.0495,-7.1204,-7.1512,-7.173,-7.1996,-7.1317,-7.3871,-7.4134,-7.4534,-7.4981,-7.541,-7.5448,-7.541,-7.5448,-7.5448,-7.4356,-7.2909,-7.3606,-7.3141,-7.2001,-7.3198,-7.3693,-7.3628,-7.3824,-7.4119,-7.4522,-7.4633,-7.5614,-7.7245,-7.7358,-7.8078,-7.9251,-7.948,-7.8856,-7.7719,-7.7692,-7.716,-7.611,-7.5979,-7.6041,-7.6138,-7.6015,-7.6042,-7.6115,-7.6155,-7.5773,-7.5006,-7.4885,-7.488,-7.475,-7.3538,-7.2656,-7.224,-6.9793,-6.8279,-6.7908,-6.5901,-6.5114,-6.5863,-6.3703,-6.4615,-6.9362,-7.0006,-6.9236,-6.7723,-6.8983,-6.9439,-6.8185,-6.9226,-6.9998,-6.9993,-6.9875,-6.9811,-6.9831,-6.9762,-6.9878,-6.9963,-6.9958,-6.9948,-6.9862,-6.9885,-6.9993,-6.9988,-6.9833,-6.9665,-6.955,-6.9505,-6.9425,-6.9241,-6.8955,-6.8659,-6.8367,-6.7892,-6.7589,-6.7507,-6.7344,-6.7053,-6.6841,-6.6885,-6.7053,-6.7096,-6.6966,-6.6885,-6.6921,-6.6751,-6.6614,-6.6521,-6.6474,-6.6474,-6.6331,-6.6331,-6.6583,-6.6763,-6.704,-6.7822,-6.9219,-6.9807,-7.031,-7.1302,-7.1603,-7.1011,-7.0974,-7.1718,-7.2493,-7.2845,-7.2984,-7.3759,-7.4059,-7.3946,-7.2384,-7.1055,-7.0208,-7.1067,-7.0898,-6.9997,-7.0786,-7.1133,-7.1069,-7.1202,-7.1734,-7.2544,-7.2691,-7.3721,-7.5347,-7.5507,-7.6065,-7.696,-7.7081,-7.6669,-7.5968,-7.5965,-7.5642,-7.4901,-7.4886,-7.487,-7.4966,-7.485,-7.4931,-7.5002,-7.3472,-7.2713,-7.2725,-7.2665,-7.262,-7.261,-7.1011,-7.0072,-7.0058,-6.7566,-6.6227,-6.6307,-6.4295,-6.3022,-6.268,-6.0993,-6.228,-6.7191,-6.767,-6.6925,-6.5156,-6.6,-6.6468,-6.6345,-6.7185,-6.763,-6.7566,-6.8835,-6.9275,-6.8311,-6.9148,-6.973,-6.9793,-6.9882,-6.9868,-6.9689,-6.9755,-6.9856,-6.9875,-6.9895,-6.9859,-6.9789,-6.974,-6.9629,-6.9512,-6.9263,-6.8996,-6.8786,-6.851,-6.811,-6.7965,-6.7855,-6.7667,-6.7344,-6.743,-6.755,-6.7434,-6.7353,-6.7302,-6.726,-6.7181,-6.7096,-6.6929,-6.6973,-6.6966,-6.6841,-6.6877,-6.6877,-6.6877,-6.6966,-6.7373,-6.8327,-6.8494,-6.8836,-6.9603,-6.9938,-6.9485,-6.8633,-6.8834,-7.0309,-7.0927,-7.0983,-7.2487,-7.3113,-7.2814,-6.9414,-6.7919,-6.7881,-6.7881,-6.7859,-6.7742,-6.7793,-6.7841,-6.7812,-6.8034,-6.902,-7.0506,-7.0711,-7.1682,-7.344,-7.3595,-7.3847,-7.4192,-7.4222,-7.4252,-7.4235,-7.4252,-7.4168,-7.4081,-7.4095,-7.407,-7.4156,-7.4112,-7.4179,-7.4235,-7.1403,-6.9925,-6.9942,-6.9933,-6.9887,-6.9588,-6.8224,-6.7347,-6.71,-6.5475,-6.457,-6.4534,-6.3361,-6.1901,-6.0151,-5.992,-6.1154,-6.3928,-6.4199,-6.3304,-6.1419,-6.1142,-6.2116,-6.4535,-6.4036,-6.3693,-6.4031,-6.6567,-6.7522,-6.6113,-6.8108,-6.9474,-6.9096,-6.9074,-6.8983,-6.8779,-6.8771,-6.8865,-6.881,-6.9415,-6.9988,-6.9951,-6.9859,-6.9738,-6.9649,-6.9508,-6.9301,-6.9106,-6.8901,-6.8765,-6.8573,-6.8552,-6.833,-6.7929,-6.7965,-6.8037,-6.7892,-6.7743,-6.7704,-6.755,-6.755,-6.751,-6.7389,-6.743,-6.7466,-6.7348,-6.7348,-6.7307,-6.7348,-6.743,-6.754,-6.7617,-6.7806,-6.7848,-6.7995,-6.8071,-6.8001,-6.814,-6.8177,-6.8649,-6.879,-6.885,-6.9303,-6.9513,-6.9296,-6.5811,0.0,0.0,-6.4461,-6.4371,-6.4394,-6.5518,-6.5902,-6.5903,-6.7192,-6.804,-6.855,-6.8653,-6.9774,-7.157,-7.1636,-7.246,-7.3921,-7.4046,-7.3425,-7.2287,-7.2351,-7.1802,-7.0639,-7.0487,-7.0608,-7.0676,-7.066,-7.0709,-7.0698,-7.0119,-6.9827,-6.9811,-6.984,-6.9222,-6.7925,-6.7576,-6.6797,-6.5402,-6.3767,-6.285,-6.2795,-6.13,-6.0223,-5.9795,-5.9722,-6.0045,-6.07,-6.0751,-5.828,-5.277,-5.349,-5.7293,-6.4464,-5.9803,-5.7672,-6.0247,-6.0954,-6.177,-6.2992,-6.6941,-6.8582,-6.6736,-6.6587,-6.6229,-6.5381,-6.5192,-6.5189,-6.5475,-6.7963,-6.9969,-6.9969,-6.9819,-6.9743,-6.9726,-6.9616,-6.9537,-6.9442,-6.9211,-6.8938,-6.8974,-6.916,-6.9043,-6.8461,-6.8373,-6.851,-6.841,-6.8275,-6.8103,-6.8066,-6.7997,-6.7928,-6.7892,-6.7892,-6.7892,-6.7781,-6.7706,-6.7706,-6.7743,-6.7781,-6.7744,-6.7781,-6.7855,-6.7965,-6.7965,-6.8036,-6.814,-6.6567,-6.6493,-6.5756,-6.5495,0.0,-6.5666,-6.5736,-6.5555,-6.3862,-6.3262,-6.3494,-6.3494,-6.332,-6.322,-6.3838,-6.403,-6.3945,-6.545,-6.6301,-6.6528,-6.7487,-6.8479,-6.9495,-6.9598,-7.0197,-7.1113,-7.1226,-7.0972,-7.0366,-7.0433,-7.0105,-6.9486,-6.9503,-6.9555,-6.9686,-6.9704,-6.968,-6.9667,-6.9768,-6.9755,-6.9778,-6.9778,-6.8994,-6.7386,-6.659,0.0,0.0,0.0,0.0,0.0,0.0,0.0,0.0,-5.9657,-5.8978,-5.7395,-5.5758,-5.2413,-4.7125,-4.7823,-5.0672,-5.518,-5.4358,-5.2409,-4.9659,-5.5563,-5.9714,-6.0667,-6.266,-6.4218,-6.4782,-6.4325,-6.3965,-6.395,-6.2487,-6.2167,-6.3993,-6.739,-6.9698,-6.9707,-6.8995,-6.879,-6.9653,-6.9723,-6.9705,-6.9707,-6.9487,-6.9283,-6.9254,-6.9468,-6.95,-6.9048,-6.8948,-6.8859,-6.8715,-6.8593,-6.8536,-6.8447,-6.8417,-6.8393,-6.834,-6.834,-6.8308,-6.8242,-6.8174,-6.814,-6.814,-6.8106,-6.8071,-6.8034,-6.8106,-6.8174,-6.8308,-6.8373,-6.8442,-6.4615,-6.443,-6.3222,-6.2746,-6.2672,-6.2086,-6.1793,-6.1719,-6.1863,-6.2072,-6.2311,-6.2311,-6.2205,-6.1954,-6.2158,-6.2118,-6.1953,-6.3481,-6.425,-6.4446,-6.6215,-6.711,-6.7339,-6.7854,-6.8174,-6.8399,-6.8522,-6.8696,-6.8961,-6.8948,-6.9081,-6.9332,-6.9334,-6.9411,-6.9538,0.0,0.0,0.0,-6.9535,-6.9767,-6.9743,-6.9478,-6.8494,-6.6803,-6.5224,0.0,-6.1936,-6.055,-5.9828,-5.9866,-5.9518,0.0,0.0,0.0,0.0,0.0,0.0,0.0,0.0,0.0,0.0,0.0,-4.7286,-4.6093,-3.9864,-4.9573,-5.6703,-5.7571,-5.8312,-5.9611,-6.1705,-6.0966,-6.0716,-6.1567,-5.9259,-5.8601,-6.1312,-6.5677,-6.8536,-6.8579,-6.736,-6.7193,-6.8826,-6.9262,-6.9379,-6.9659,-6.9692,-6.96,-6.9487,-6.9653,-6.9704,-6.9468,-6.9311,-6.9209,-6.8983,-6.8983,-6.8898,-6.8824,-6.8861,-6.8848,-6.8779,-6.8724,-6.8696,-6.8656,-6.8596,-6.8529,-6.8498,-6.8399,-6.8373,-6.8335,-6.8303,-6.8399,-6.8639,-6.8714,-6.8685,-6.2692,-6.2535,-6.2473,-6.244,-6.2182,-5.9031,-5.7756,-5.7907,-5.8136,-5.8316,-5.8455,-5.8563,-5.8459,-5.8319,-5.963,-6.0091,-5.9945,-6.1476,-6.2249,-6.252,-6.4166,-6.5066,-6.5346,-6.6965,-6.7929,-6.8245,-6.841,-6.8529,-6.8668,-6.8769,-6.8936,-6.9081,-6.9044,-6.9171,-6.9354,-6.7961,-6.7208,-6.7227,-6.8787,-6.9587,-6.9573,-6.8264,-6.6766,-6.514,-6.3438,-6.1774,-6.0098,-5.9807,-5.9704,-5.9666,-5.8369,-5.8282,-5.9406,-5.2362,-4.7545,0.0,-4.1211,0.0,0.0,0.0,0.0,0.0,0.0,0.0,0.0,-4.2078,-4.8068,-5.2129,-5.6252,-5.7655,-5.5054,-5.4534,-5.4431,-5.4571,-5.3964,-5.3818,-5.4536,-6.0524,-6.4782,-6.5004,-6.4742,-6.5231,-6.6963,-6.7354,-6.8091,-6.9369,-6.9622,-6.9587,-6.97,-6.974,-6.9742,-6.9596,-6.9562,-6.9505,-6.9487,-6.9392,-6.9317,-6.928,-6.9279,-6.9277,-6.9149,-6.9089,-6.9104,-6.8974,-6.8923,-6.8897,-6.8806,-6.8762,-6.8743,-6.8705,-6.8461,-6.8435,-6.8736,-6.871,-6.8986,-6.0487,-6.0372,-5.9625,-5.8174,-5.6396,-5.4717,-5.4106,-5.4225,-5.442,-5.4605,-5.4713,-5.4858,-5.475,-5.4568,-5.5216,-5.5414,-5.5449,-5.7679,-5.8728,-5.9039,-6.1539,-6.2799,-6.3016,-6.4031,-6.4716,-6.5022,-6.5273,-6.5505,-6.568,-6.5833,-6.5972,-6.6103,-6.6178,-6.5801,-6.5022,-6.4294,-6.4863,-6.6767,-6.7563,-6.7999,-6.8012,-6.6589,-6.4958,-6.34,-6.2632,-6.1398,-5.976,-5.967,-5.9266,-5.8472,-5.8634,-5.7434,-5.4351,-4.855,-4.3541,0.0,0.0,0.0,0.0,0.0,0.0,0.0,0.0,0.0,0.0,0.0,-4.1541,-4.4608,-5.1521,-5.4426,-5.1066,-5.1253,-5.1317,-5.0431,-4.8451,-4.7199,-4.7268,-5.3787,-5.9716,-6.3558,-6.23,-6.215,-6.4924,-6.6192,-6.7207,-6.8154,-6.8226,-6.8439,-6.9199,-6.9496,-6.9604,-6.9771,-6.9729,-6.968,-6.9717,-6.9621,-6.9604,-6.9603,-6.9613,-6.9579,-6.9468,-6.9411,-6.939,-6.9352,-6.9252,-6.9224,-6.9142,-6.9072,-6.9036,-6.8774,-6.7548,-6.6461,-6.6472,-6.6432,-6.6767,-5.7894,-5.7715,-5.5693,-5.3092,-5.0467,-5.0787,-5.1047,-5.1133,-5.1216,-5.1333,-5.1412,-5.1124,-5.0872,-5.0727,-5.0565,-5.0467,-5.0579,-5.3104,-5.4355,-5.4658,-5.8188,-5.997,-6.0144,-6.1259,-6.1923,-6.2284,-6.2635,-6.2956,-6.3246,-6.3012,-6.2983,-6.3004,-6.1233,-5.9901,-5.9144,-5.9948,-6.1851,-6.4826,-6.5667,-6.609,-6.6173,-6.4718,-6.3372,-6.221,-6.1786,-6.1019,-5.9747,-5.9318,-5.8558,-5.7406,-5.7454,-5.5219,-5.0165,-4.4647,0.0,0.0,0.0,0.0,0.0,0.0,0.0,0.0,0.0,-2.4244,-2.291,0.0,-3.5256,0.0,-4.5643,-4.9915,-4.7053,-4.7458,0.0,0.0,-4.2582,-4.0185,-4.0252,-4.7341,-5.4564,-6.054,-5.8935,-5.8628,-6.2129,-6.4203,-6.5365,-6.5597,-6.5852,-6.6472,-6.7476,-6.7909,-6.8446,-6.9624,-6.9855,-6.954,-6.8677,-6.8598,-6.8643,-6.9108,-6.8784,-6.8683,-6.8961,-6.8742,-6.8455,-6.841,-6.8331,-6.8319,-6.8206,-6.8185,-6.809,-6.7961,-6.618,-6.4457,-6.4443,-6.4498,-6.4848,-5.4449,-5.4156,-5.0678,-4.824,-4.6864,-4.824,-4.8839,-4.8839,-4.8811,-4.8853,-4.8782,-4.7364,-4.6729,-4.6729,-4.66,0.0,-4.6453,-4.8106,-4.8851,-4.9061,-5.3835,-5.6072,-5.6403,-5.9541,-6.1413,-6.1831,-6.2145,-6.2452,-6.2664,-6.1442,-6.0976,-6.1031,-5.3748,-5.0788,-5.2406,-5.5292,-5.7749,-5.9687,-6.2758,-6.4347,-6.4337,-6.2973,-6.2134,-6.203,-6.0625,-5.9835,-5.9621,-5.826,-5.7454,-5.7221,-5.3129,-5.0531,-4.9696,0.0,0.0,0.0,0.0,0.0,0.0,0.0,0.0,0.0,0.0,0.0,0.0,0.0,0.0,-3.0499,-3.9011,0.0,-4.161,-4.1181,0.0,0.0,0.0,-3.3261,-3.3258,-4.2154,-4.9762,-5.348,0.0,0.0,-5.8137,-6.0253,-6.1466,-6.1373,-6.2801,-6.381,-6.3777,-6.4027,-6.5552,-6.909,-6.9816,-6.8767,-6.5971,-6.537,-6.5882,-6.7121,-6.6164,-6.5873,-6.7058,-6.6323,-6.527,-6.5331,-6.514,-6.5184,-6.5123,-6.4943,-6.4938,-6.4855,-6.4619,-6.4467,-6.4188,-6.4118,-6.4137,-4.9842,-4.5879,-4.3423,-4.1452,-4.0237,-4.1649,-4.2266,-4.23,-4.3131,-4.3069,-4.2244,-4.162,-4.0822,-3.9882,-3.894,0.0,0.0,0.0,-4.3881,-4.505,-4.8834,-5.1215,-5.2435,-5.3986,-5.4998,-5.5476,-5.5901,-5.5805,-5.515,-5.4792,-5.278,-4.9002,0.0,-4.4307,-4.7046,-4.9247,-5.2697,-5.7292,-5.9778,-6.1494,-6.2449,-6.2043,-6.1357,-6.0534,-5.9977,-5.9204,-5.8184,-5.7633,-5.5925,-5.2883,-5.0944,-4.8051,0.0,0.0,0.0,0.0,0.0,0.0,0.0,0.0,0.0,0.0,0.0,-1.5034,-1.483,0.0,0.0,0.0,-2.9691,-3.4425,-3.6437,-3.7056,0.0,0.0,0.0,0.0,0.0,0.0,0.0,-4.905,-4.8792,-4.9871,-5.4215,-5.5434,-5.6639,-5.8599,-6.0526,-6.1344,-6.0167,0.0,-6.1839,-6.602,-6.6715,-6.6261,-6.4762,-6.4495,-6.467,-6.5405,-6.496,-6.4924,-6.5616,-6.5253,-6.4807,-6.4795,-6.4795,-6.4741,-6.4838,-6.1381,-5.8653,-5.8732,-5.8732,-5.8771,-5.877,-5.8759,-5.9039,-4.3299,0.0,0.0,0.0,0.0,-3.5326,-3.6128,-3.6527,-3.7465,-3.7101,-3.5716,-3.5277,0.0,0.0,0.0,0.0,0.0,0.0,-3.8174,-4.0015,-4.3495,-4.6041,-4.7911,-4.8622,-4.9266,-4.9695,-4.9811,-4.9396,-4.8568,-4.629,-4.2661,-3.7816,0.0,0.0,0.0,0.0,-4.813,-5.3978,-5.6835,-5.8982,-6.0611,-6.0747,-6.0367,-5.9438,-5.9102,-5.8387,-5.7217,-5.5433,-5.2542,-4.8444,-4.6506,0.0,0.0,0.0,0.0,0.0,0.0,0.0,0.0,0.0,0.0,0.0,0.0,0.0,0.0,0.0,0.0,0.0,0.0,0.0,-3.3301,-3.3989,-3.3481,0.0,0.0,0.0,0.0,0.0,0.0,0.0,0.0,0.0,-4.8452,-4.9682,-5.1706,0.0,0.0,-5.8633,-5.7735,-5.7732,-5.9024,-6.2443,-6.3005,0.0,-6.2709,-6.2702,-6.2713,-6.2743,-6.284,-6.2795,-6.2443,-6.2064,-6.183,-6.1836,-6.1879,-6.1504,-6.0517,-5.6416,-5.3545,-5.3235,-5.3249,-5.3269,-5.3312,-5.3309,-5.3791,0.0,0.0,0.0,0.0,-2.8824,0.0,0.0,0.0,-3.2352,-3.1519,0.0,-2.8519,0.0,0.0,0.0,0.0,-2.6103,-2.9094,0.0,0.0,-3.7758,-4.0782,-4.2501,-4.4292,-4.5511,-4.5932,-4.4879,-4.4505,-4.438,-3.6027,-3.0951,0.0,0.0,0.0,0.0,0.0,-4.433,-4.9268,-5.4006,-5.7219,-5.8781,-5.897,-5.9056,-5.911,-5.7908,-5.7303,-5.707,-5.1029,-4.6698,-4.4643,-3.8388,0.0,0.0,0.0,0.0,0.0,0.0,0.0,0.0,0.0,0.0,0.0,0.0,0.0,0.0,0.0,0.0,0.0,0.0,0.0,0.0,-3.2107,0.0,0.0,0.0,0.0,0.0,0.0,0.0,0.0,0.0,-3.9699,-3.9947,-4.2904,-4.6801,-5.1769,0.0,0.0,0.0,0.0,-5.7516,-5.893,-5.9215,-5.9192,-5.883,-5.8819,-5.8904,-5.8917,0.0,0.0,-5.7111,-5.5683,-5.4815,-5.4813,-5.4947,-5.3879,-5.0505,-4.9439,-4.9239,-4.9264,-4.9088,-4.9465,-4.9654,-4.9299,-4.9606,0.0,0.0,0.0,0.0,0.0,0.0,0.0,0.0,0.0,-2.6271,-2.4771,-2.3417,0.0,0.0,0.0,0.0,0.0,0.0,0.0,0.0,-3.2042,-3.4705,-3.7291,-3.8276,-3.8996,-3.9334,-3.8389,-3.5437,0.0,0.0,0.0,0.0,0.0,0.0,0.0,0.0,-4.1539,-4.7363,-5.2261,-5.6003,-5.8553,-5.8729,-5.8833,-5.8981,-5.8687,-5.6596,-5.2548,-4.6844,-4.1439,0.0,0.0,0.0,0.0,0.0,0.0,0.0,0.0,0.0,0.0,0.0,0.0,0.0,0.0,0.0,0.0,0.0,0.0,0.0,0.0,0.0,0.0,0.0,-2.9416,0.0,0.0,0.0,0.0,0.0,0.0,0.0,0.0,0.0,-3.3111,-3.7868,-4.2793,-4.6703,-5.0584,-5.3221,-5.3599,0.0,0.0,0.0,0.0,0.0,0.0,0.0,-5.6421,-5.6304,-5.4724,-5.3242,-5.2608,-5.0641,-4.9466,-5.0695,0.0,0.0,-4.0624,-3.9355,-3.9406,-3.9481,-3.9537,-3.994,-4.1117,-4.1466,-4.1989,0.0,0.0,0.0,0.0,0.0,0.0,0.0,0.0,0.0,-2.0667,-1.9256,0.0,0.0,0.0,0.0,0.0,0.0,0.0,0.0,0.0,0.0,0.0,-3.159,-3.1986,0.0,0.0,0.0,0.0,0.0,0.0,0.0,0.0,0.0,0.0,0.0,0.0,-3.9364,-4.5763,-5.0604,-5.4888,-5.8499,-5.8128,-5.8145,-5.8807,-5.8558,-5.595,-5.0636,0.0,0.0,0.0,0.0,0.0,0.0,0.0,0.0,0.0,0.0,0.0,0.0,0.0,0.0,0.0,0.0,0.0,0.0,0.0,0.0,0.0,0.0,0.0,0.0,0.0,-2.724,0.0,0.0,0.0,0.0,0.0,0.0,0.0,0.0,0.0,0.0,-3.4104,-3.8673,-4.3097,-4.7454,-5.0604,-5.1469,-5.3521,-5.558,0.0,0.0,0.0,0.0,0.0,0.0,0.0,0.0,0.0,0.0,0.0,0.0,0.0,-4.203,-3.8226,-3.3018,-3.2101,-3.2171,-3.2262,0.0,0.0,0.0,0.0,0.0,0.0,0.0,0.0,0.0,0.0,0.0,0.0,0.0,0.0,0.0,-1.3607,0.0,0.0,-1.1572,0.0,0.0,0.0,0.0,0.0,0.0,0.0,0.0,0.0,0.0,0.0,0.0,0.0,0.0,0.0,0.0,0.0,0.0,0.0,0.0,0.0,0.0,-3.785,-4.4261,-4.9185,-5.3881,-5.8304,-5.7044,-5.7109,-5.8563,-5.7385,-5.5157,-5.1754,0.0,0.0,0.0,0.0,0.0,0.0,0.0,0.0,0.0,0.0,0.0,0.0,0.0,0.0,0.0,0.0,0.0,0.0,0.0,0.0,0.0,0.0,0.0,0.0,0.0,0.0,-2.3816,-2.6313,-2.6458,0.0,0.0,0.0,0.0,0.0,0.0,0.0,0.0,0.0,-4.0849,-4.4558,-4.7637,-5.0543,-5.1217,-5.2745,-5.6209,-5.6855,-5.6736,-5.6064,-5.479,-5.3342,0.0,0.0,0.0,0.0,0.0,0.0,0.0,0.0,0.0,0.0,0.0,0.0,0.0,0.0,0.0,0.0,0.0,0.0,0.0,0.0,0.0,0.0,0.0,0.0,0.0,0.0,0.0,0.0,0.0,0.0,0.0,0.0,0.0,0.0,0.0,0.0,0.0,0.0,0.0,0.0,0.0,0.0,0.0,0.0,0.0,0.0,0.0,0.0,0.0,0.0,0.0,0.0,0.0,0.0,-3.776,-4.4097,-5.0102,-5.49,-5.8433,-5.7842,-5.7835,-5.8481,-5.6165,-5.2793,-4.8476,0.0,0.0,0.0,0.0,0.0,0.0,0.0,0.0,0.0,0.0,0.0,0.0,0.0,0.0,0.0,0.0,0.0,0.0,0.0,0.0,0.0,0.0,0.0,0.0,0.0,0.0,0.0,-2.2176,-2.2299,-1.9839,0.0,0.0,0.0,0.0,0.0,0.0,0.0,0.0,0.0,0.0,-4.3403,-4.4314,-4.8105,-5.2224,-5.5679,-5.6105,-5.5104,-5.2614,-5.0951,-4.9291,-4.7424,0.0,0.0,0.0,0.0,0.0,0.0,0.0,0.0,0.0,0.0,0.0,0.0,0.0,0.0,0.0,0.0,0.0,0.0,0.0,0.0,0.0,0.0,0.0,0.0,0.0,0.0,0.0,0.0,0.0,0.0,0.0,0.0,0.0,0.0,0.0,0.0,0.0,0.0,0.0,0.0,0.0,0.0,0.0,0.0,0.0,0.0,0.0,0.0,0.0,0.0,0.0,0.0,0.0,-3.6123,-4.3099,-4.8979,-5.3476,-5.6364,-5.6325,-5.6349,-5.659,-5.3612,-5.0156,0.0,0.0,0.0,0.0,0.0,0.0,0.0,0.0,0.0,0.0,0.0,0.0,0.0,0.0,0.0,0.0,0.0,0.0,0.0,0.0,0.0,0.0,0.0,0.0,0.0,0.0,0.0,0.0,-1.9331,-1.9366,-1.7035,0.0,0.0,0.0,0.0,0.0,0.0,0.0,0.0,0.0,0.0,-4.0711,-4.1114,-4.5462,0.0,0.0,-5.3582,-5.2588,-5.0331,-4.8193,-4.5959,-4.3678,-3.9476,0.0,0.0,0.0,0.0,0.0,0.0,0.0,0.0,0.0,0.0,0.0,0.0,0.0,0.0,0.0,0.0,0.0,0.0,0.0,0.0,0.0,0.0,0.0,0.0,0.0,0.0,0.0,0.0,0.0,0.0,0.0,0.0,0.0,0.0,0.0,0.0,0.0,0.0,0.0,0.0,0.0,0.0,0.0,0.0,0.0,0.0,0.0,0.0,0.0,0.0,0.0,0.0,-3.3512,-4.1123,-4.6455,-5.0532,-5.3172,-5.3444,-5.3614,-5.3566,-5.0626,-4.7473,0.0,0.0,0.0,0.0,0.0,0.0,0.0,0.0,0.0,0.0,0.0,0.0,0.0,0.0,0.0,0.0,0.0,0.0,0.0,0.0,0.0,0.0,0.0,0.0,0.0,0.0,0.0,0.0,0.0,0.0,0.0,0.0,0.0,0.0,0.0,0.0,0.0,0.0,0.0,0.0,0.0,-3.9116,-4.0615,-4.3183,-4.612,0.0,-4.9664,-4.9293,-4.8624,-4.6056,-4.3144,-4.0176,0.0,0.0,0.0,0.0,0.0,0.0,0.0,0.0,0.0,0.0,0.0,0.0,0.0,0.0,0.0,0.0,0.0,0.0,0.0,0.0,0.0,0.0,0.0,0.0,0.0,0.0,0.0,0.0,0.0,0.0,0.0,0.0,0.0,0.0,0.0,0.0,0.0,0.0,0.0,0.0,0.0,0.0,0.0,0.0,0.0,0.0,0.0,0.0,0.0,0.0,0.0,0.0,0.0,0.0,-3.7816,-4.6251,-5.1397,-5.3132,-5.5379,-5.6141,-5.5183,-5.1056,0.0,0.0,0.0,0.0,0.0,0.0,0.0,0.0,0.0,0.0,0.0,0.0,0.0,0.0,0.0,0.0,0.0,0.0,0.0,0.0,0.0,0.0,0.0,0.0,0.0,0.0,0.0,-0.8748,0.0,0.0,0.0,0.0,0.0,0.0,0.0,0.0,0.0,0.0,0.0,0.0,0.0,0.0,-3.6545,-4.0058,-4.1215,-4.2665,0.0,0.0,-4.4905,-4.2188,-4.1169,-3.9651,0.0,0.0,0.0,0.0,0.0,0.0,0.0,0.0,0.0,0.0,0.0,0.0,0.0,0.0,0.0,0.0,0.0,0.0,0.0,0.0,0.0,0.0,0.0,0.0,0.0,0.0,0.0,0.0,0.0,0.0,0.0,0.0,0.0,0.0,0.0,0.0,0.0,0.0,0.0,0.0,0.0,0.0,0.0,0.0,0.0,0.0,0.0,0.0,0.0,0.0,0.0,0.0,0.0,0.0,-3.0584,-3.6561,-4.4703,-4.9542,-5.0827,-5.463,-5.5646,-5.3566,-4.9694,-4.5492,0.0,0.0,0.0,0.0,0.0,0.0,0.0,0.0,0.0,0.0,0.0,0.0,0.0,0.0,0.0,0.0,0.0,0.0,0.0,0.0,0.0,0.0,0.0,0.0,0.0,0.0,0.0,0.0,0.0,0.0,0.0,0.0,0.0,0.0,0.0,0.0,0.0,0.0,0.0,0.0,0.0,0.0,-3.6312,-3.7638,0.0,0.0,0.0,-4.0859,-3.7703,0.0,0.0,0.0,0.0,0.0,0.0,0.0,0.0,0.0,0.0,0.0,0.0,0.0,0.0,0.0,0.0,0.0,0.0,0.0,0.0,0.0,0.0,0.0,0.0,0.0,0.0,0.0,0.0,0.0,0.0,0.0,0.0,0.0,0.0,0.0,0.0,0.0,0.0,0.0,0.0,0.0,0.0,0.0,0.0,0.0,0.0,0.0,0.0,0.0,0.0,0.0,0.0,0.0,0.0,0.0,0.0,0.0,-3.587,-4.2821,-4.6954,-4.8238,-5.2894,-5.3837,-5.0572,-4.7915,-4.415,0.0,0.0,0.0,0.0,0.0,0.0,0.0,0.0,0.0,0.0,0.0,0.0,0.0,0.0,0.0,0.0,0.0,0.0,0.0,0.0,0.0,0.0,0.0,0.0,0.0,0.0,0.0,0.0,0.0,0.0,0.0,0.0,0.0,0.0,0.0,0.0,0.0,0.0,0.0,0.0,0.0,-3.3033,-3.1699,-3.3748,-3.6112,0.0,0.0,-3.6804,-3.4436,-3.2787,0.0,0.0,0.0,0.0,0.0,0.0,0.0,0.0,0.0,0.0,0.0,0.0,0.0,0.0,0.0,0.0,0.0,0.0,0.0,0.0,0.0,0.0,0.0,0.0,0.0,0.0,0.0,0.0,0.0,0.0,0.0,0.0,0.0,0.0,0.0,0.0,0.0,0.0,0.0,0.0,0.0,0.0,0.0,0.0,0.0,0.0,0.0,0.0,0.0,0.0,0.0,0.0,0.0,0.0,0.0,0.0,-3.2822,-4.2858,-4.8615,-4.9839,-5.4424,-5.4787,-5.0348,-4.8729,-4.4605,0.0,0.0,0.0,0.0,0.0,0.0,0.0,0.0,0.0,0.0,0.0,0.0,0.0,0.0,0.0,0.0,0.0,0.0,0.0,0.0,0.0,0.0,0.0,0.0,0.0,0.0,0.0,0.0,0.0,0.0,0.0,0.0,0.0,0.0,0.0,0.0,0.0,0.0,0.0,0.0,0.0,-3.0595,-3.1555,-3.1871,0.0,0.0,0.0,0.0,-3.0948,-2.9839,0.0,0.0,0.0,0.0,0.0,0.0,0.0,0.0,0.0,0.0,0.0,0.0,0.0,0.0,0.0,0.0,0.0,0.0,0.0,0.0,0.0,0.0,0.0,0.0,0.0,0.0,0.0,0.0,0.0,0.0,0.0,0.0,0.0,0.0,0.0,0.0,0.0,0.0,0.0,0.0,0.0,0.0,0.0,0.0,0.0,0.0,0.0,0.0,0.0,0.0,0.0,0.0,0.0,0.0,0.0,0.0,-3.3036,-4.0883,-4.6648,-5.01,-5.4097,-5.4169,-5.0147,-4.8884,-4.4655,0.0,0.0,0.0,0.0,0.0,0.0,0.0,0.0,0.0,0.0,0.0,0.0,0.0,0.0,0.0,0.0,0.0,0.0,0.0,0.0,0.0,0.0,0.0,0.0,0.0,0.0,0.0,0.0,0.0,0.0,0.0,0.0,0.0,0.0,0.0,0.0,0.0,0.0,0.0,0.0,-2.5463,-2.7307,-2.7376,0.0,0.0,0.0,0.0,0.0,0.0,-2.5513,-2.4565,0.0,0.0,0.0,0.0,0.0,0.0,0.0,0.0,0.0,0.0,0.0,0.0,0.0,0.0,0.0,0.0,0.0,0.0,0.0,0.0,0.0,0.0,0.0,0.0,0.0,0.0,0.0,0.0,0.0,0.0,0.0,0.0,0.0,0.0,0.0,0.0,0.0,0.0,0.0,0.0,0.0,0.0,0.0,0.0,0.0,0.0,0.0,0.0,0.0,0.0,0.0,0.0,0.0,0.0,0.0,-3.3491,-3.8482,-4.3862,-4.9631,-5.2756,-5.2754,-4.9504,-4.8264,-4.4096,-3.6413,0.0,0.0,0.0,0.0,0.0,0.0,0.0,0.0,0.0,0.0,0.0,0.0,0.0,0.0,0.0,0.0,0.0,0.0,0.0,0.0,0.0,0.0,0.0,0.0,0.0,0.0,0.0,0.0,0.0,0.0,0.0,0.0,0.0,0.0,0.0,0.0,0.0,0.0,0.0,-2.2955,-2.4105,0.0,0.0,0.0,0.0,0.0,0.0,0.0,0.0,-2.0667,0.0,0.0,0.0,0.0,0.0,0.0,0.0,0.0,0.0,0.0,0.0,0.0,0.0,0.0,0.0,0.0,0.0,0.0,0.0,0.0,0.0,0.0,0.0,0.0,0.0,0.0,0.0,0.0,0.0,0.0,0.0,0.0,0.0,0.0,0.0,0.0,0.0,0.0,0.0,0.0,0.0,0.0,0.0,0.0,0.0,0.0,0.0,0.0,0.0,0.0,0.0,0.0,0.0,0.0,0.0,0.0,-3.7433,-4.3408,-4.7893,-5.0948,-5.0945,-4.7707,-4.6419,-4.2125,-3.4534,0.0,0.0,0.0,0.0,0.0,0.0,0.0,0.0,0.0,0.0,0.0,0.0,0.0,0.0,0.0,0.0,0.0,0.0,0.0,0.0,0.0,0.0,0.0,0.0,0.0,0.0,0.0,0.0,0.0,0.0,0.0,0.0,0.0,0.0,0.0,0.0,0.0,0.0,-1.8738,-2.1632,0.0,0.0,0.0,0.0,0.0,0.0,0.0,0.0,-2.1098,0.0,0.0,0.0,0.0,0.0,0.0,0.0,0.0,0.0,0.0,0.0,0.0,0.0,0.0,0.0,0.0,0.0,0.0,0.0,0.0,0.0,0.0,0.0,0.0,0.0,0.0,0.0,0.0,0.0,0.0,0.0,0.0,0.0,0.0,0.0,0.0,0.0,0.0,0.0,0.0,0.0,0.0,0.0,0.0,0.0,0.0,0.0,0.0,0.0,0.0,0.0,0.0,0.0,0.0,0.0,0.0,0.0,0.0,-4.0682,-4.508,-4.8059,-4.8461,-4.602,-4.3076,-3.7906,0.0,0.0,0.0,0.0,0.0,0.0,0.0,0.0,0.0,0.0,0.0,0.0,0.0,0.0,0.0,0.0,0.0,0.0,0.0,0.0,0.0,0.0,0.0,0.0,0.0,0.0,0.0,0.0,0.0,0.0,0.0,0.0,0.0,0.0,0.0,0.0,0.0,0.0,0.0,0.0,0.0,0.0,0.0,0.0,0.0,0.0,0.0,0.0,0.0,0.0,0.0,0.0,0.0,0.0,0.0,0.0,0.0,0.0,0.0,0.0,0.0,0.0,0.0,0.0,0.0,0.0,0.0,0.0,0.0,0.0,0.0,0.0,0.0,0.0,0.0,0.0,0.0,0.0,0.0,0.0,0.0,0.0,0.0,0.0,0.0,0.0,0.0,0.0,0.0,0.0,0.0,0.0,0.0,0.0,0.0,0.0,0.0,0.0,0.0,0.0,0.0,0.0,0.0,0.0,0.0,0.0,0.0,0.0,-3.7069,-4.1853,-4.4547,-4.5257,-4.3902,-3.8879,-3.3272,0.0,0.0,0.0,0.0,0.0,0.0,0.0,0.0,0.0,0.0,0.0,0.0,0.0,0.0,0.0,0.0,0.0,0.0,0.0,0.0,0.0,0.0,0.0,0.0,0.0,0.0,0.0,0.0,0.0,0.0,0.0,0.0,0.0,0.0,0.0,0.0,0.0,0.0,0.0,0.0,0.0,0.0,0.0,0.0,0.0,0.0,0.0,0.0,-1.8208,0.0,0.0,0.0,0.0,0.0,0.0,0.0,0.0,0.0,0.0,0.0,0.0,0.0,0.0,0.0,0.0,0.0,0.0,0.0,0.0,0.0,0.0,0.0,0.0,0.0,0.0,0.0,0.0,0.0,0.0,0.0,0.0,0.0,0.0,0.0,0.0,0.0,0.0,0.0,0.0,0.0,0.0,0.0,0.0,0.0,0.0,0.0,0.0,0.0,0.0,0.0,0.0,0.0,0.0,0.0,0.0,0.0,0.0,0.0,-3.2768,-3.8648,-4.0208,-4.09,-4.054,-3.3598,-2.945,0.0,0.0,0.0,0.0,0.0,0.0,0.0,0.0,0.0,0.0,0.0,0.0,0.0,0.0,0.0,0.0,0.0,0.0,0.0,0.0,0.0,0.0,0.0,0.0,0.0,0.0,0.0,0.0,0.0,0.0,0.0,0.0,0.0,0.0,0.0,0.0,0.0,0.0,0.0,0.0,0.0,0.0,0.0,0.0,0.0,0.0,0.0,0.0,0.0,0.0,0.0,0.0,0.0,0.0,0.0,0.0,0.0,0.0,0.0,0.0,0.0,0.0,0.0,0.0,0.0,0.0,0.0,0.0,0.0,0.0,0.0,0.0,0.0,0.0,0.0,0.0,0.0,0.0,0.0,0.0,0.0,0.0,0.0,0.0,0.0,0.0,0.0,0.0,0.0,0.0,0.0,0.0,0.0,0.0,0.0,0.0,0.0,0.0,0.0,0.0,0.0,0.0,0.0,0.0,0.0,0.0,0.0,0.0,-3.0291,-3.2866,-3.5968,-3.6353,-3.3774,-3.0622,-2.7341,0.0,0.0,0.0,0.0,0.0,0.0,0.0,0.0,0.0,0.0,0.0,0.0,0.0,0.0,0.0,0.0,0.0,0.0,0.0,0.0,0.0,0.0,0.0,0.0,0.0,0.0,0.0,0.0,0.0,0.0,0.0,0.0,0.0,0.0,0.0,0.0,0.0,0.0,0.0,0.0,0.0,0.0,0.0,0.0,0.0,0.0,0.0,0.0,0.0,0.0,0.0,0.0,0.0,0.0,0.0,0.0,0.0,0.0,0.0,0.0,0.0,0.0,0.0,0.0,0.0,0.0,0.0,0.0,0.0,0.0,0.0,0.0,0.0,0.0,0.0,0.0,0.0,0.0,0.0,0.0,0.0,0.0,0.0,0.0,0.0,0.0,0.0,0.0,0.0,0.0,0.0,0.0,0.0,0.0,0.0,0.0,0.0,0.0,0.0,0.0,0.0,0.0,0.0,0.0,0.0,0.0,0.0,0.0,0.0,-2.9044,-3.1422,-3.115,-2.7914,-2.7065,-2.4421,0.0,0.0,0.0,0.0,0.0,0.0,0.0,0.0,0.0,0.0,0.0,0.0,0.0,0.0,0.0,0.0,0.0,0.0,0.0,0.0,0.0,0.0,0.0,0.0,0.0,0.0,0.0,0.0,0.0,0.0,0.0,0.0,0.0,0.0,0.0,0.0,0.0,0.0,0.0,0.0,0.0,0.0,0.0,0.0,0.0,0.0,0.0,0.0,0.0,0.0,0.0,0.0,0.0,0.0,0.0,0.0,0.0,0.0,0.0,0.0,0.0,0.0,0.0,0.0,0.0,0.0,0.0,0.0,0.0,0.0,0.0,0.0,0.0,0.0,0.0,0.0,0.0,0.0,0.0,0.0,0.0,0.0,0.0,0.0,0.0,0.0,0.0,0.0,0.0,0.0,0.0,0.0,0.0,0.0,0.0,0.0,0.0,0.0,0.0,0.0,0.0,0.0,0.0,0.0,0.0,0.0,0.0,0.0,0.0,-2.9065,-2.6382,-2.4908,-2.4695,-2.1839,-1.998,0.0,0.0,0.0,0.0,0.0,0.0,0.0,0.0,0.0,0.0,0.0,0.0,0.0,0.0,0.0,0.0,0.0,0.0,0.0,0.0,0.0,0.0,0.0,0.0,0.0,0.0,0.0,0.0,0.0,0.0,0.0,0.0,0.0,0.0,0.0,0.0,0.0,0.0,0.0,0.0,0.0,0.0,0.0,0.0,0.0,0.0,0.0,0.0,0.0,0.0,0.0,0.0,0.0,0.0,0.0,0.0,0.0,0.0,0.0,0.0,0.0,0.0,0.0,0.0,0.0,0.0,0.0,0.0,0.0,0.0,0.0,0.0,0.0,0.0,0.0,0.0,0.0,0.0,0.0,0.0,0.0,0.0,0.0,0.0,0.0,0.0,0.0,0.0,0.0,0.0,0.0,0.0,0.0,0.0,0.0,0.0,0.0,0.0,0.0,0.0,0.0,0.0,0.0,0.0,0.0,0.0,0.0,0.0,0.0,-2.3109,-2.3056,-2.2994,-2.3012,-2.0908,-1.8781,-1.6638,0.0,0.0,0.0,0.0,0.0,0.0,0.0,0.0,0.0,0.0,0.0,0.0,0.0,0.0,0.0,0.0,0.0,0.0,0.0,0.0,0.0,0.0,0.0,0.0,0.0,0.0,0.0,0.0,0.0,0.0,0.0,0.0,0.0,0.0,0.0,0.0,0.0,0.0,0.0,0.0,0.0,0.0,0.0,0.0,0.0,0.0,0.0,0.0,0.0,0.0,0.0,0.0,0.0,0.0,0.0,0.0,0.0,0.0,0.0,0.0,0.0,0.0,0.0,0.0,0.0,0.0,0.0,0.0,0.0,0.0,0.0,0.0,0.0,0.0,0.0,0.0,0.0,0.0,0.0,0.0,0.0,0.0,0.0,0.0,0.0,0.0,0.0,0.0,0.0,0.0,0.0,0.0,0.0,0.0,0.0,0.0,0.0,0.0,0.0,0.0,0.0,0.0,0.0,0.0,0.0,0.0,0.0,0.0,-1.891,-2.055,-2.1449,-2.1374,-1.9389,-1.723,0.0,0.0,0.0,0.0,0.0,0.0,0.0,0.0,0.0,0.0,0.0,0.0,0.0,0.0,0.0,0.0,0.0,0.0,0.0,0.0,0.0,0.0,0.0,0.0,0.0,0.0,0.0,0.0,0.0,0.0,0.0,0.0,0.0,0.0,0.0,0.0,0.0,0.0,0.0,0.0,0.0,0.0,0.0,0.0,0.0,0.0,0.0,0.0,0.0,0.0,0.0,0.0,0.0,0.0,0.0,0.0,0.0,0.0,0.0,0.0,0.0,0.0,0.0,0.0,0.0,0.0,0.0,0.0,0.0,0.0,0.0,0.0,0.0,0.0,0.0,0.0,0.0,0.0,0.0,0.0,0.0,0.0,0.0,0.0,0.0,0.0,0.0,0.0,0.0,0.0,0.0,0.0,0.0,0.0,0.0,0.0,0.0,0.0,0.0,0.0,0.0,0.0,0.0,0.0,0.0,0.0,0.0,0.0,-1.4127,-1.7203,-1.898,-1.9923,-1.9798,-1.6889,-1.5107,0.0,0.0,0.0,0.0,0.0,0.0,0.0,0.0,0.0,0.0,0.0,0.0,0.0,0.0,0.0,0.0,0.0,0.0,0.0,0.0,0.0,0.0,0.0,0.0,0.0,0.0,0.0,0.0,0.0,0.0,0.0,0.0,0.0,0.0,0.0,0.0,0.0,0.0,0.0,0.0,0.0,0.0,0.0,0.0,0.0,0.0,0.0,0.0,0.0,0.0,0.0,0.0,0.0,0.0,0.0,0.0,0.0,0.0,0.0,0.0,0.0,0.0,0.0,0.0,0.0,0.0,0.0,0.0,0.0,0.0,0.0,0.0,0.0,0.0,0.0,0.0,0.0,0.0,0.0,0.0,0.0,0.0,0.0,0.0,0.0,0.0,0.0,0.0,0.0,0.0,0.0,0.0,0.0,0.0,0.0,0.0,0.0,0.0,0.0,0.0,0.0,0.0,0.0,0.0,0.0,0.0,0.0,0.0,0.0,-1.5518,0.0,-1.9813,-1.9777,-1.7787,-1.6134,0.0,0.0,0.0,0.0,0.0,0.0,0.0,0.0,0.0,0.0,0.0,0.0,0.0,0.0,0.0,0.0,0.0,0.0,0.0,0.0,0.0,0.0,0.0,0.0,0.0,0.0,0.0,0.0,0.0,0.0,0.0,0.0,0.0,0.0,0.0,0.0,0.0,0.0,0.0,0.0,0.0,0.0,0.0,0.0,0.0,0.0,0.0,0.0,0.0,0.0,0.0,0.0,0.0,0.0,0.0,0.0,0.0,0.0,0.0,0.0,0.0,0.0,0.0,0.0,0.0,0.0,0.0,0.0,0.0,0.0,0.0,0.0,0.0,0.0,0.0,0.0,0.0,0.0,0.0,0.0,0.0,0.0,0.0,0.0,0.0,0.0,0.0,0.0,0.0,0.0,0.0,0.0,0.0,0.0,0.0,0.0,0.0,0.0,0.0,0.0,0.0,0.0,0.0,0.0,0.0,0.0,0.0,0.0,0.0,-1.4826,-1.7545,-1.9281,-1.9808,-1.8333,-1.6695,0.0,0.0,0.0,0.0,0.0,0.0,0.0,0.0,0.0,0.0,0.0,0.0,0.0,0.0,0.0,0.0,0.0,0.0,0.0,0.0,0.0,0.0,0.0,0.0,0.0,0.0,0.0,0.0,0.0,0.0,0.0,0.0,0.0,0.0,0.0,0.0,0.0,0.0,0.0,0.0,0.0,0.0,0.0,0.0,0.0,0.0,0.0,0.0,0.0,0.0,0.0,0.0,0.0,0.0,0.0,0.0,0.0,0.0,0.0,0.0,0.0,0.0,0.0,0.0,0.0,0.0,0.0,0.0,0.0,0.0,0.0,0.0,0.0,0.0,0.0,0.0,0.0,0.0,0.0,0.0,0.0,0.0,0.0,0.0,0.0,0.0,0.0,0.0,0.0,0.0,0.0,0.0,0.0,0.0,0.0,0.0,0.0,0.0,0.0,0.0,0.0,0.0,0.0,0.0,0.0,0.0,0.0,0.0,0.0,-1.4968,-1.6628,-1.8293,-1.9915,-1.8451,-1.6763,0.0,0.0,0.0,0.0,0.0,0.0,0.0,0.0,0.0,0.0,0.0,0.0,0.0,0.0,0.0,0.0,0.0,0.0,0.0,0.0,0.0,0.0,0.0,0.0,0.0,0.0,0.0,0.0,0.0,0.0,0.0,0.0,0.0,0.0,0.0,0.0,0.0,0.0,0.0,0.0,0.0,0.0,0.0,0.0,0.0,0.0,0.0,0.0,0.0,0.0,0.0,0.0,0.0,0.0,0.0,0.0,0.0,0.0,0.0,0.0,0.0,0.0,0.0,0.0,0.0,0.0,0.0,0.0,0.0,0.0,0.0,0.0,0.0,0.0,0.0,0.0,0.0,0.0,0.0,0.0,0.0,0.0,0.0,0.0,0.0,0.0,0.0,0.0,0.0,0.0,0.0,0.0,0.0,0.0,0.0,0.0,0.0,0.0,0.0,0.0,0.0,0.0,0.0,0.0,0.0,0.0,0.0,0.0,0.0,0.0,-1.6616,-1.8312,-1.9911,-1.9552,-1.7973,-1.5044,0.0,0.0,0.0,0.0,0.0,0.0,0.0,0.0,0.0,0.0,0.0,0.0,0.0,0.0,0.0,0.0,0.0,0.0,0.0,0.0,0.0,0.0,0.0,0.0,0.0,0.0,0.0,0.0,0.0,0.0,0.0,0.0,0.0,0.0,0.0,0.0,0.0,0.0,0.0,0.0,0.0,0.0,0.0,0.0,0.0,0.0,0.0,0.0,0.0,0.0,0.0,0.0,0.0,0.0,0.0,0.0,0.0,0.0,0.0,0.0,0.0,0.0,0.0,0.0,0.0,0.0,0.0,0.0,0.0,0.0,0.0,0.0,0.0,0.0,0.0,0.0,0.0,0.0,0.0,0.0,0.0,0.0,0.0,0.0,0.0,0.0,0.0,0.0,0.0,0.0,0.0,0.0,0.0,0.0,0.0,0.0,0.0,0.0,0.0,0.0,0.0,0.0,0.0,0.0,0.0,0.0,0.0,0.0,0.0,0.0,-1.9017,-1.9969,-1.9962,-1.8376,0.0,0.0,0.0,0.0,0.0,0.0,0.0,0.0,0.0,0.0,0.0,0.0,0.0,0.0,0.0,0.0,0.0,0.0,0.0,0.0,0.0,0.0,0.0,0.0,0.0,0.0,0.0,0.0,0.0,0.0,0.0,0.0,0.0,0.0,0.0,0.0,0.0,0.0,0.0,0.0,0.0,0.0,0.0,0.0,0.0,0.0,0.0,0.0,0.0,0.0,0.0,0.0,0.0,0.0,0.0,0.0,0.0,0.0,0.0,0.0,0.0,0.0,0.0,0.0,0.0,0.0,0.0,0.0,0.0,0.0,0.0,0.0,0.0,0.0,0.0,0.0,0.0,0.0,0.0,0.0,0.0,0.0,0.0,0.0,0.0,0.0,0.0,0.0,0.0,0.0,0.0,0.0,0.0,0.0,0.0,0.0,0.0,0.0,0.0,0.0,0.0,0.0,0.0,0.0,0.0,0.0,0.0,0.0,0.0,0.0,0.0,-2.0004,-1.998,-1.9741,0.0,-1.539,0.0,0.0,0.0,0.0,0.0,0.0,0.0,0.0,0.0,0.0,0.0,0.0,0.0,0.0,0.0,0.0,0.0,0.0,0.0,0.0,0.0,0.0,0.0,0.0,0.0,0.0,0.0,0.0,0.0,0.0,0.0,0.0,0.0,0.0,0.0,0.0,0.0,0.0,0.0,0.0,0.0,0.0,0.0,0.0,0.0,0.0,0.0,0.0,0.0,0.0,0.0,0.0,0.0,0.0,0.0,0.0,0.0,0.0,0.0,0.0,0.0,0.0,0.0,0.0,0.0,0.0,0.0,0.0,0.0,0.0,0.0,0.0,0.0,0.0,0.0,0.0,0.0,0.0,0.0,0.0,0.0,0.0,0.0,0.0,0.0,0.0,0.0,0.0,0.0,0.0,0.0,0.0,0.0,0.0,0.0,0.0,0.0,0.0,0.0,0.0,0.0,0.0,0.0,0.0,0.0,0.0,0.0,0.0,0.0,0.0,0.0,0.0,-1.8604,-1.7527,-1.6736,0.0,0.0,0.0,0.0,0.0,0.0,0.0,0.0,0.0,0.0,0.0,0.0,0.0,0.0,0.0,0.0,0.0,0.0,0.0,0.0,0.0,0.0,0.0,0.0,0.0,0.0,0.0,0.0,0.0,0.0,0.0,0.0,0.0,0.0,0.0,0.0,0.0,0.0,0.0,0.0,0.0,0.0,0.0,0.0,0.0,0.0,0.0,0.0,0.0,0.0,0.0,0.0,0.0,0.0,0.0,0.0,0.0,0.0,0.0,0.0,0.0,0.0,0.0,0.0,0.0,0.0,0.0,0.0,0.0,0.0,0.0,0.0,0.0,0.0,0.0,0.0,0.0,0.0,0.0,0.0,0.0,0.0,0.0,0.0,0.0,0.0,0.0,0.0,0.0,0.0,0.0,0.0,0.0,0.0,0.0,0.0,0.0,0.0,0.0,0.0,0.0,0.0,0.0,0.0,0.0,0.0,0.0,0.0,0.0,0.0,-1.9496,-1.8705,-1.7734,-1.6891,-1.6134,0.0,0.0,0.0,0.0,0.0,0.0,0.0,0.0,0.0,0.0,0.0,0.0,0.0,0.0,0.0,0.0,0.0,0.0,0.0,0.0,0.0,0.0,0.0,0.0,0.0,0.0,0.0,0.0,0.0,0.0,0.0,0.0,0.0,0.0,0.0,0.0,0.0,0.0,0.0,0.0,0.0,0.0,0.0,0.0,0.0,0.0,0.0,0.0,0.0,0.0,0.0,0.0,0.0,0.0,0.0,0.0,0.0,0.0,0.0,0.0,0.0,0.0,0.0,0.0,0.0,0.0,0.0,0.0,0.0,0.0,0.0,0.0,0.0,0.0,0.0,0.0,0.0,0.0,0.0,0.0,0.0,0.0,0.0,0.0,0.0,0.0,0.0,0.0,0.0,0.0,0.0,0.0,0.0,0.0,0.0,0.0,0.0,0.0,0.0,0.0,0.0,0.0,0.0,0.0,0.0,0.0,0.0,0.0,0.0,0.0,0.0,0.0,0.0,0.0,-1.4443,0.0,0.0,0.0,0.0,0.0,0.0,0.0,0.0,0.0,0.0,0.0,0.0,0.0,0.0,0.0,0.0,0.0,0.0,0.0,0.0,0.0,0.0,0.0,0.0,0.0,0.0,0.0,0.0,0.0,0.0,0.0,0.0,0.0,0.0,0.0,0.0,0.0,0.0,0.0,0.0,0.0,0.0,0.0,0.0,0.0,0.0,0.0,0.0,0.0,0.0,0.0,0.0,0.0,0.0,0.0,0.0,0.0,0.0,0.0,0.0,0.0,0.0,0.0,0.0,0.0,0.0,0.0,0.0,0.0,0.0,0.0,0.0,0.0,0.0,0.0,0.0,0.0,0.0,0.0,0.0,0.0,0.0,0.0,0.0,0.0,0.0,0.0,0.0,0.0,0.0,0.0,0.0,0.0,0.0,0.0,0.0,0.0,0.0,0.0,0.0,0.0,0.0,0.0,0.0,0.0,0.0,0.0,0.0,0.0,0.0,0.0,0.0,0.0,0.0,0.0,0.0,0.0,0.0,0.0,0.0,0.0,0.0,0.0,0.0,0.0,0.0,0.0,0.0,0.0,0.0,0.0,0.0,0.0,0.0,0.0,0.0,0.0,0.0,0.0,0.0,0.0,0.0,0.0,0.0,0.0,0.0,0.0,0.0,0.0,0.0,0.0,0.0,0.0,0.0,0.0,0.0,0.0,0.0,0.0,0.0,0.0,0.0,0.0,0.0,0.0,0.0,0.0,0.0,0.0,0.0,0.0,0.0,0.0,0.0,0.0,0.0,0.0,0.0,0.0,0.0,0.0,0.0,0.0,0.0,0.0,0.0,0.0,0.0,0.0,0.0,0.0,0.0,0.0,0.0,0.0,0.0,0.0,0.0,0.0,0.0,0.0,0.0,0.0,0.0,0.0,0.0,0.0,0.0,0.0,0.0,0.0,0.0,0.0,0.0,0.0,0.0,0.0,0.0,0.0,0.0,0.0,0.0,0.0,0.0,0.0,0.0,0.0,0.0,0.0,0.0,0.0,0.0,0.0,0.0,0.0,0.0,0.0,0.0,0.0,0.0,0.0,0.0,0.0,0.0,0.0,0.0,0.0,0.0,0.0,0.0,0.0,0.0,0.0,0.0,0.0,0.0,0.0,0.0,0.0,0.0,0.0,0.0,0.0,0.0,0.0,0.0,0.0,0.0,0.0,0.0,0.0,0.0,0.0,0.0,0.0,0.0,0.0,0.0,0.0,0.0,0.0,0.0,0.0,0.0,0.0,0.0,0.0,0.0,0.0,0.0,0.0,0.0,0.0,0.0,0.0,0.0,0.0,0.0,0.0,0.0,0.0,0.0,0.0,0.0,0.0,0.0,0.0,0.0,0.0,0.0,0.0,0.0,0.0,0.0,0.0,0.0,0.0,0.0,0.0,0.0,0.0,0.0,0.0,0.0,0.0,0.0,0.0,0.0,0.0,0.0,0.0,0.0,0.0,0.0,0.0,0.0,0.0,0.0,0.0,0.0,0.0,0.0,0.0,0.0,0.0,0.0,0.0,0.0,0.0,0.0,0.0,0.0,0.0,0.0,0.0,0.0,0.0,0.0,0.0,0.0,0.0,0.0,0.0,0.0,0.0,0.0,0.0,0.0,0.0,0.0,0.0,0.0,0.0,0.0,0.0,0.0,0.0,0.0,0.0,0.0,0.0,0.0,0.0,0.0,0.0,0.0,0.0,0.0,0.0,0.0,0.0,0.0,0.0,0.0,0.0,0.0,0.0,0.0,0.0,0.0,0.0,0.0,0.0,0.0,0.0,0.0,0.0,0.0,0.0,0.0,0.0,0.0,0.0,0.0,0.0,0.0,0.0,0.0,0.0,0.0,0.0,0.0,0.0,0.0,0.0,0.0,0.0,0.0,0.0,0.0,0.0,0.0,0.0,0.0,0.0,0.0,0.0,0.0,0.0,0.0,0.0,0.0,0.0,0.0,0.0,0.0,0.0,0.0,0.0,0.0,0.0,0.0,0.0,0.0,0.0,0.0,0.0,0.0,0.0,0.0,0.0,0.0,0.0,0.0,0.0,0.0,0.0,0.0,0.0,0.0,0.0,0.0,0.0,0.0,0.0,0.0,0.0,0.0,0.0,0.0,0.0,0.0,0.0,0.0,0.0,0.0,0.0,0.0,0.0,0.0,0.0,0.0,0.0,0.0,0.0,0.0,0.0,0.0,0.0,0.0,0.0,0.0,0.0,0.0,0.0,0.0,0.0,0.0,0.0,0.0,0.0,0.0,0.0,0.0,0.0,0.0,0.0,0.0,0.0,0.0,0.0,0.0,0.0,0.0,0.0,0.0,0.0,0.0,0.0,0.0,0.0,0.0,0.0,0.0,0.0,0.0,0.0,0.0,0.0,0.0,0.0,0.0,0.0,0.0,0.0,0.0,0.0,0.0,0.0,0.0,0.0,0.0,0.0,0.0,0.0,0.0,0.0,0.0,0.0,0.0,0.0,0.0,0.0,0.0,0.0,0.0,0.0,0.0,0.0,0.0,0.0,0.0,0.0,0.0,0.0,0.0,0.0,0.0,0.0,0.0,0.0,0.0,0.0,0.0,0.0,0.0,0.0,0.0,0.0,0.0,0.0,0.0,0.0,0.0,0.0,0.0,0.0,0.0,0.0,0.0,0.0,0.0,0.0,0.0,0.0,0.0,0.0,0.0,0.0,0.0,0.0,0.0,0.0,0.0,0.0,0.0,0.0,0.0,0.0,0.0,0.0,0.0,0.0,0.0,0.0,0.0,0.0,0.0,0.0,0.0,0.0,0.0,0.0,0.0,0.0,0.0,0.0,0.0,0.0,0.0,0.0,0.0,0.0,0.0,0.0,0.0,0.0,0.0,0.0,0.0,0.0,0.0,0.0,0.0,0.0,0.0,0.0,0.0,0.0,0.0,0.0,0.0,0.0,0.0,0.0,0.0,0.0,0.0,0.0,0.0,0.0,0.0,0.0,0.0,0.0,0.0,0.0,0.0,0.0,0.0,0.0,0.0,0.0,0.0,0.0,0.0,0.0,0.0,0.0,0.0,0.0,0.0,0.0,0.0,0.0,0.0,0.0,0.0,0.0,0.0,0.0,0.0,0.0,0.0,0.0,0.0,0.0,0.0,0.0,0.0,0.0,0.0,0.0,0.0,0.0,0.0,0.0,0.0,0.0,0.0,0.0,0.0,0.0,0.0,0.0,0.0,0.0,0.0,0.0,0.0,0.0,0.0,0.0,0.0,0.0,0.0,0.0,0.0,0.0,0.0,0.0,0.0,0.0,0.0,0.0,0.0,0.0,0.0,0.0,0.0,0.0,0.0,0.0,0.0,0.0,0.0,0.0,0.0,0.0,0.0,0.0,0.0,0.0,0.0,0.0,0.0,0.0,0.0,0.0,0.0,0.0,0.0,0.0,0.0,0.0,0.0,0.0,0.0,0.0,0.0,0.0,0.0,0.0,0.0,0.0,0.0,0.0,0.0,0.0,0.0,0.0,0.0,0.0,0.0,0.0,0.0,0.0,0.0,0.0,0.0,0.0,0.0,0.0,0.0,0.0,0.0,0.0,0.0,0.0,0.0,0.0,0.0,0.0,0.0,0.0,0.0,0.0,0.0,0.0,0.0,0.0,0.0,0.0,0.0,0.0,0.0,0.0,0.0,0.0,0.0,0.0,0.0,0.0,0.0,0.0,0.0,0.0,0.0,0.0,0.0,0.0,0.0,0.0,0.0,0.0,0.0,0.0,0.0,0.0,0.0,0.0,0.0,0.0,0.0,0.0,0.0,0.0,0.0,0.0,0.0,0.0,0.0,0.0,0.0,0.0,0.0,0.0,0.0,0.0,0.0,0.0,0.0,0.0,0.0,0.0,0.0,0.0,0.0,0.0,0.0,0.0,0.0,0.0,0.0,0.0,0.0,0.0,0.0,0.0,0.0,0.0,0.0,0.0,0.0,0.0,0.0,0.0,0.0,0.0,0.0,0.0,0.0,0.0,0.0,0.0,0.0,0.0,0.0,0.0,0.0,0.0,0.0,0.0,0.0,0.0,0.0,0.0,0.0,0.0,0.0,0.0,0.0,0.0,0.0,0.0,0.0,0.0,0.0,0.0,0.0,0.0,0.0,0.0,0.0,0.0,0.0,0.0,0.0,0.0,0.0,0.0,0.0,0.0,0.0,0.0,0.0,0.0,0.0,0.0,0.0,0.0,0.0,0.0,0.0,0.0,0.0,0.0,0.0,0.0,0.0,0.0,0.0,0.0,0.0,0.0,0.0,0.0,0.0,0.0,0.0,0.0,0.0,0.0,0.0,0.0,0.0,0.0,0.0,0.0,0.0,0.0,0.0,0.0,0.0,0.0,0.0,0.0,0.0]}]]]